Wetterdaten: Freitag, 20.05.2016
Datum Zeit Temp. A. Feuchte A. Luftdruck Regen Wind Richtung Richtung Sonnenschein ET UV Solar Taupunkt Windchill Windben Empfang
20.05.2016 00:00 8,9 C 92 % 1016,3 hPa 0,0 l/m 15,0 km/h (3 Bft) W-SW 253 0 min 0,000 mm 0,0 UV-I 0 W/m 7,7 C 3,8 C 19,3 km/h (3 Bft) 100,00 %
20.05.2016 00:02 9,0 C 92 % 1016,4 hPa 0,0 l/m 12,9 km/h (3 Bft) SW 230 0 min 0,000 mm 0,0 UV-I 0 W/m 7,8 C 4,9 C 20,9 km/h (4 Bft) 100,00 %
20.05.2016 00:03 9,0 C 92 % 1016,4 hPa 0,0 l/m 13,9 km/h (3 Bft) SW 225 0 min 0,000 mm 0,0 UV-I 0 W/m 7,8 C 4,4 C 20,9 km/h (4 Bft) 100,00 %
20.05.2016 00:04 9,0 C 92 % 1016,4 hPa 0,0 l/m 10,1 km/h (2 Bft) W-SW 244 0 min 0,000 mm 0,0 UV-I 0 W/m 7,8 C 6,4 C 14,5 km/h (3 Bft) 96,88 %
20.05.2016 00:05 9,0 C 92 % 1016,4 hPa 0,0 l/m 10,5 km/h (2 Bft) W-SW 237 0 min 0,000 mm 0,0 UV-I 0 W/m 7,8 C 6,2 C 19,3 km/h (3 Bft) 100,00 %
20.05.2016 00:06 9,0 C 92 % 1016,5 hPa 0,0 l/m 13,9 km/h (3 Bft) W-SW 243 0 min 0,000 mm 0,0 UV-I 0 W/m 7,8 C 4,4 C 17,7 km/h (3 Bft) 100,00 %
20.05.2016 00:07 9,1 C 92 % 1016,4 hPa 0,0 l/m 11,7 km/h (2 Bft) W-SW 238 0 min 0,000 mm 0,0 UV-I 0 W/m 7,9 C 5,6 C 16,1 km/h (3 Bft) 100,00 %
20.05.2016 00:08 9,0 C 92 % 1016,4 hPa 0,0 l/m 14,6 km/h (3 Bft) W-SW 245 0 min 0,000 mm 0,0 UV-I 0 W/m 7,8 C 4,1 C 17,7 km/h (3 Bft) 96,55 %
20.05.2016 00:09 9,0 C 92 % 1016,5 hPa 0,0 l/m 14,5 km/h (3 Bft) W 259 0 min 0,000 mm 0,0 UV-I 0 W/m 7,8 C 4,1 C 19,3 km/h (3 Bft) 96,30 %
20.05.2016 00:10 9,0 C 92 % 1016,4 hPa 0,0 l/m 14,5 km/h (3 Bft) W 271 0 min 0,000 mm 0,0 UV-I 0 W/m 7,8 C 4,1 C 20,9 km/h (4 Bft) 100,00 %
20.05.2016 00:11 9,1 C 92 % 1016,5 hPa 0,0 l/m 14,4 km/h (3 Bft) SW 215 0 min 0,000 mm 0,0 UV-I 0 W/m 7,9 C 4,3 C 22,5 km/h (4 Bft) 100,00 %
20.05.2016 00:12 9,1 C 92 % 1016,5 hPa 0,0 l/m 12,8 km/h (3 Bft) W 259 0 min 0,000 mm 0,0 UV-I 0 W/m 7,9 C 5,1 C 24,1 km/h (4 Bft) 100,00 %
20.05.2016 00:13 9,1 C 92 % 1016,5 hPa 0,0 l/m 14,9 km/h (3 Bft) SW 236 0 min 0,000 mm 0,0 UV-I 0 W/m 7,9 C 4,1 C 24,1 km/h (4 Bft) 100,00 %
20.05.2016 00:14 9,1 C 92 % 1016,5 hPa 0,0 l/m 15,6 km/h (3 Bft) W-SW 241 0 min 0,000 mm 0,0 UV-I 0 W/m 7,9 C 3,8 C 20,9 km/h (4 Bft) 100,00 %
20.05.2016 00:15 9,1 C 92 % 1016,5 hPa 0,0 l/m 15,0 km/h (3 Bft) SW 225 0 min 0,000 mm 0,0 UV-I 0 W/m 7,9 C 4,0 C 19,3 km/h (3 Bft) 100,00 %
20.05.2016 00:16 9,1 C 92 % 1016,5 hPa 0,0 l/m 14,1 km/h (3 Bft) W 264 0 min 0,000 mm 0,0 UV-I 0 W/m 7,9 C 4,4 C 19,3 km/h (3 Bft) 96,15 %
20.05.2016 00:17 9,1 C 92 % 1016,5 hPa 0,0 l/m 11,8 km/h (2 Bft) W 270 0 min 0,000 mm 0,0 UV-I 0 W/m 7,9 C 5,6 C 16,1 km/h (3 Bft) 100,00 %
20.05.2016 00:18 9,1 C 92 % 1016,5 hPa 0,0 l/m 13,9 km/h (3 Bft) SW 233 0 min 0,000 mm 0,0 UV-I 0 W/m 7,9 C 4,5 C 19,3 km/h (3 Bft) 100,00 %
20.05.2016 00:19 9,1 C 92 % 1016,5 hPa 0,0 l/m 10,4 km/h (2 Bft) SW 221 0 min 0,000 mm 0,0 UV-I 0 W/m 7,9 C 6,4 C 16,1 km/h (3 Bft) 100,00 %
20.05.2016 00:20 9,1 C 92 % 1016,5 hPa 0,0 l/m 13,9 km/h (3 Bft) W-SW 254 0 min 0,000 mm 0,0 UV-I 0 W/m 7,9 C 4,5 C 19,3 km/h (3 Bft) 100,00 %
20.05.2016 00:21 9,1 C 92 % 1016,5 hPa 0,0 l/m 15,1 km/h (3 Bft) W-SW 240 0 min 0,000 mm 0,0 UV-I 0 W/m 7,9 C 4,0 C 20,9 km/h (4 Bft) 100,00 %
20.05.2016 00:22 9,1 C 92 % 1016,5 hPa 0,0 l/m 11,3 km/h (2 Bft) W 274 0 min 0,000 mm 0,0 UV-I 0 W/m 7,9 C 5,9 C 16,1 km/h (3 Bft) 100,00 %
20.05.2016 00:23 9,1 C 92 % 1016,5 hPa 0,0 l/m 10,8 km/h (2 Bft) W 267 0 min 0,000 mm 0,0 UV-I 0 W/m 7,9 C 6,1 C 17,7 km/h (3 Bft) 100,00 %
20.05.2016 00:24 9,1 C 92 % 1016,5 hPa 0,0 l/m 11,0 km/h (2 Bft) S-SW 194 0 min 0,000 mm 0,0 UV-I 0 W/m 7,9 C 6,0 C 16,1 km/h (3 Bft) 100,00 %
20.05.2016 00:25 9,1 C 92 % 1016,5 hPa 0,0 l/m 17,2 km/h (3 Bft) W-SW 252 0 min 0,000 mm 0,0 UV-I 0 W/m 7,9 C 3,1 C 20,9 km/h (4 Bft) 100,00 %
20.05.2016 00:26 9,1 C 92 % 1016,5 hPa 0,0 l/m 16,1 km/h (3 Bft) W-SW 240 0 min 0,000 mm 0,0 UV-I 0 W/m 7,9 C 3,6 C 24,1 km/h (4 Bft) 100,00 %
20.05.2016 00:27 9,1 C 92 % 1016,5 hPa 0,0 l/m 12,7 km/h (3 Bft) W-SW 238 0 min 0,000 mm 0,0 UV-I 0 W/m 7,9 C 5,1 C 16,1 km/h (3 Bft) 100,00 %
20.05.2016 00:28 9,1 C 92 % 1016,5 hPa 0,0 l/m 13,5 km/h (3 Bft) W-SW 250 0 min 0,000 mm 0,0 UV-I 0 W/m 7,9 C 4,7 C 20,9 km/h (4 Bft) 100,00 %
20.05.2016 00:29 9,1 C 92 % 1016,5 hPa 0,0 l/m 16,2 km/h (3 Bft) W-SW 250 0 min 0,000 mm 0,0 UV-I 0 W/m 7,9 C 3,5 C 22,5 km/h (4 Bft) 100,00 %
20.05.2016 00:30 9,1 C 92 % 1016,4 hPa 0,0 l/m 19,0 km/h (3 Bft) SW 217 0 min 0,000 mm 0,0 UV-I 0 W/m 7,9 C 2,5 C 27,4 km/h (4 Bft) 95,65 %
20.05.2016 00:31 9,1 C 92 % 1016,4 hPa 0,0 l/m 11,5 km/h (2 Bft) SW 236 0 min 0,000 mm 0,0 UV-I 0 W/m 7,9 C 5,7 C 16,1 km/h (3 Bft) 100,00 %
20.05.2016 00:32 9,1 C 92 % 1016,4 hPa 0,0 l/m 15,0 km/h (3 Bft) SW 220 0 min 0,000 mm 0,0 UV-I 0 W/m 7,9 C 4,0 C 19,3 km/h (3 Bft) 100,00 %
20.05.2016 00:33 9,1 C 92 % 1016,4 hPa 0,0 l/m 15,3 km/h (3 Bft) SW 230 0 min 0,000 mm 0,0 UV-I 0 W/m 7,9 C 3,9 C 22,5 km/h (4 Bft) 96,55 %
20.05.2016 00:34 9,1 C 92 % 1016,5 hPa 0,0 l/m 15,6 km/h (3 Bft) SW 227 0 min 0,000 mm 0,0 UV-I 0 W/m 7,9 C 3,8 C 24,1 km/h (4 Bft) 100,00 %
20.05.2016 00:35 9,1 C 92 % 1016,5 hPa 0,0 l/m 16,5 km/h (3 Bft) SW 235 0 min 0,000 mm 0,0 UV-I 0 W/m 7,9 C 3,4 C 25,7 km/h (4 Bft) 100,00 %
20.05.2016 00:36 9,1 C 91 % 1016,5 hPa 0,0 l/m 12,8 km/h (3 Bft) W-SW 247 0 min 0,000 mm 0,0 UV-I 0 W/m 7,7 C 5,1 C 24,1 km/h (4 Bft) 100,00 %
20.05.2016 00:37 9,1 C 91 % 1016,5 hPa 0,0 l/m 13,6 km/h (3 Bft) W-SW 239 0 min 0,000 mm 0,0 UV-I 0 W/m 7,7 C 4,7 C 20,9 km/h (4 Bft) 88,46 %
20.05.2016 00:38 9,1 C 91 % 1016,5 hPa 0,0 l/m 16,7 km/h (3 Bft) S-SW 205 0 min 0,000 mm 0,0 UV-I 0 W/m 7,7 C 3,3 C 29,0 km/h (5 Bft) 100,00 %
20.05.2016 00:39 9,1 C 91 % 1016,5 hPa 0,0 l/m 14,2 km/h (3 Bft) W-SW 242 0 min 0,000 mm 0,0 UV-I 0 W/m 7,7 C 4,4 C 19,3 km/h (3 Bft) 100,00 %
20.05.2016 00:40 9,1 C 91 % 1016,5 hPa 0,0 l/m 17,5 km/h (3 Bft) W-SW 248 0 min 0,000 mm 0,0 UV-I 0 W/m 7,7 C 3,0 C 27,4 km/h (4 Bft) 100,00 %
20.05.2016 00:41 9,1 C 91 % 1016,6 hPa 0,0 l/m 14,8 km/h (3 Bft) SW 225 0 min 0,000 mm 0,0 UV-I 0 W/m 7,7 C 4,1 C 19,3 km/h (3 Bft) 100,00 %
20.05.2016 00:42 9,1 C 91 % 1016,5 hPa 0,0 l/m 16,2 km/h (3 Bft) W-SW 246 0 min 0,000 mm 0,0 UV-I 0 W/m 7,7 C 3,5 C 22,5 km/h (4 Bft) 100,00 %
20.05.2016 00:43 9,1 C 91 % 1016,5 hPa 0,0 l/m 12,4 km/h (3 Bft) W 261 0 min 0,000 mm 0,0 UV-I 0 W/m 7,7 C 5,3 C 17,7 km/h (3 Bft) 100,00 %
20.05.2016 00:44 9,1 C 91 % 1016,5 hPa 0,0 l/m 11,7 km/h (2 Bft) W-SW 240 0 min 0,000 mm 0,0 UV-I 0 W/m 7,7 C 5,6 C 16,1 km/h (3 Bft) 100,00 %
20.05.2016 00:45 9,1 C 91 % 1016,6 hPa 0,0 l/m 14,2 km/h (3 Bft) SW 227 0 min 0,000 mm 0,0 UV-I 0 W/m 7,7 C 4,4 C 19,3 km/h (3 Bft) 100,00 %
20.05.2016 00:46 9,1 C 91 % 1016,6 hPa 0,0 l/m 15,3 km/h (3 Bft) S-SW 198 0 min 0,000 mm 0,0 UV-I 0 W/m 7,7 C 3,9 C 19,3 km/h (3 Bft) 100,00 %
20.05.2016 00:47 9,1 C 91 % 1016,5 hPa 0,0 l/m 19,1 km/h (3 Bft) W 261 0 min 0,000 mm 0,0 UV-I 0 W/m 7,7 C 2,4 C 25,7 km/h (4 Bft) 100,00 %
20.05.2016 00:48 9,1 C 91 % 1016,6 hPa 0,0 l/m 17,0 km/h (3 Bft) W-SW 240 0 min 0,000 mm 0,0 UV-I 0 W/m 7,7 C 3,2 C 22,5 km/h (4 Bft) 100,00 %
20.05.2016 00:49 9,1 C 91 % 1016,6 hPa 0,0 l/m 13,5 km/h (3 Bft) SW 220 0 min 0,000 mm 0,0 UV-I 0 W/m 7,7 C 4,7 C 19,3 km/h (3 Bft) 100,00 %
20.05.2016 00:50 9,1 C 91 % 1016,6 hPa 0,0 l/m 11,6 km/h (2 Bft) W-SW 246 0 min 0,000 mm 0,0 UV-I 0 W/m 7,7 C 5,7 C 17,7 km/h (3 Bft) 100,00 %
20.05.2016 00:51 9,1 C 91 % 1016,6 hPa 0,0 l/m 15,3 km/h (3 Bft) W-SW 254 0 min 0,000 mm 0,0 UV-I 0 W/m 7,7 C 3,9 C 25,7 km/h (4 Bft) 100,00 %
20.05.2016 00:52 9,1 C 91 % 1016,6 hPa 0,0 l/m 15,4 km/h (3 Bft) W-SW 243 0 min 0,000 mm 0,0 UV-I 0 W/m 7,7 C 3,9 C 20,9 km/h (4 Bft) 96,55 %
20.05.2016 00:53 9,1 C 91 % 1016,6 hPa 0,0 l/m 15,7 km/h (3 Bft) S-SW 209 0 min 0,000 mm 0,0 UV-I 0 W/m 7,7 C 3,7 C 20,9 km/h (4 Bft) 100,00 %
20.05.2016 00:54 9,1 C 91 % 1016,5 hPa 0,0 l/m 11,3 km/h (2 Bft) SW 234 0 min 0,000 mm 0,0 UV-I 0 W/m 7,7 C 5,9 C 16,1 km/h (3 Bft) 100,00 %
20.05.2016 00:55 9,1 C 91 % 1016,5 hPa 0,0 l/m 14,9 km/h (3 Bft) W-SW 240 0 min 0,000 mm 0,0 UV-I 0 W/m 7,7 C 4,1 C 19,3 km/h (3 Bft) 100,00 %
20.05.2016 00:56 9,1 C 91 % 1016,5 hPa 0,0 l/m 16,8 km/h (3 Bft) SW 227 0 min 0,000 mm 0,0 UV-I 0 W/m 7,7 C 3,3 C 22,5 km/h (4 Bft) 100,00 %
20.05.2016 00:57 9,1 C 91 % 1016,5 hPa 0,0 l/m 17,3 km/h (3 Bft) W-SW 240 0 min 0,000 mm 0,0 UV-I 0 W/m 7,7 C 3,1 C 20,9 km/h (4 Bft) 100,00 %
20.05.2016 00:58 9,1 C 91 % 1016,5 hPa 0,0 l/m 17,0 km/h (3 Bft) W-SW 238 0 min 0,000 mm 0,0 UV-I 0 W/m 7,7 C 3,2 C 24,1 km/h (4 Bft) 100,00 %
20.05.2016 00:59 9,1 C 91 % 1016,5 hPa 0,0 l/m 13,7 km/h (3 Bft) SW 223 0 min 0,000 mm 0,0 UV-I 0 W/m 7,7 C 4,6 C 19,3 km/h (3 Bft) 100,00 %
20.05.2016 01:00 9,1 C 91 % 1016,5 hPa 0,0 l/m 13,9 km/h (3 Bft) S-SW 192 0 min 0,000 mm 0,0 UV-I 0 W/m 7,7 C 4,5 C 20,9 km/h (4 Bft) 100,00 %
20.05.2016 01:01 9,2 C 91 % 1016,6 hPa 0,0 l/m 18,9 km/h (3 Bft) S-SW 211 0 min 0,025 mm 0,0 UV-I 0 W/m 7,8 C 2,6 C 27,4 km/h (4 Bft) 100,00 %
20.05.2016 01:02 9,1 C 91 % 1016,5 hPa 0,0 l/m 18,5 km/h (3 Bft) W-SW 237 0 min 0,000 mm 0,0 UV-I 0 W/m 7,7 C 2,7 C 24,1 km/h (4 Bft) 100,00 %
20.05.2016 01:03 9,1 C 91 % 1016,6 hPa 0,0 l/m 15,0 km/h (3 Bft) SW 221 0 min 0,000 mm 0,0 UV-I 0 W/m 7,7 C 4,0 C 20,9 km/h (4 Bft) 100,00 %
20.05.2016 01:04 9,2 C 91 % 1016,6 hPa 0,0 l/m 20,2 km/h (4 Bft) SW 223 0 min 0,000 mm 0,0 UV-I 0 W/m 7,8 C 2,2 C 27,4 km/h (4 Bft) 100,00 %
20.05.2016 01:05 9,2 C 91 % 1016,5 hPa 0,0 l/m 13,1 km/h (3 Bft) SW 234 0 min 0,000 mm 0,0 UV-I 0 W/m 7,8 C 5,0 C 16,1 km/h (3 Bft) 93,33 %
20.05.2016 01:06 9,2 C 91 % 1016,6 hPa 0,0 l/m 15,6 km/h (3 Bft) W 261 0 min 0,000 mm 0,0 UV-I 0 W/m 7,8 C 3,9 C 24,1 km/h (4 Bft) 100,00 %
20.05.2016 01:07 9,2 C 91 % 1016,5 hPa 0,0 l/m 14,3 km/h (3 Bft) S-SW 210 0 min 0,000 mm 0,0 UV-I 0 W/m 7,8 C 4,5 C 22,5 km/h (4 Bft) 100,00 %
20.05.2016 01:08 9,1 C 91 % 1016,5 hPa 0,0 l/m 21,1 km/h (4 Bft) W-SW 253 0 min 0,000 mm 0,0 UV-I 0 W/m 7,7 C 1,8 C 29,0 km/h (5 Bft) 100,00 %
20.05.2016 01:09 9,2 C 91 % 1016,5 hPa 0,0 l/m 19,2 km/h (3 Bft) SW 224 0 min 0,000 mm 0,0 UV-I 0 W/m 7,8 C 2,5 C 24,1 km/h (4 Bft) 100,00 %
20.05.2016 01:10 9,1 C 91 % 1016,5 hPa 0,0 l/m 19,2 km/h (3 Bft) SW 221 0 min 0,000 mm 0,0 UV-I 0 W/m 7,7 C 2,4 C 29,0 km/h (5 Bft) 91,30 %
20.05.2016 01:11 9,2 C 91 % 1016,5 hPa 0,0 l/m 18,3 km/h (3 Bft) W-SW 245 0 min 0,000 mm 0,0 UV-I 0 W/m 7,8 C 2,8 C 24,1 km/h (4 Bft) 100,00 %
20.05.2016 01:12 9,2 C 91 % 1016,5 hPa 0,0 l/m 13,8 km/h (3 Bft) S-SW 207 0 min 0,000 mm 0,0 UV-I 0 W/m 7,8 C 4,7 C 17,7 km/h (3 Bft) 100,00 %
20.05.2016 01:13 9,2 C 91 % 1016,5 hPa 0,0 l/m 17,3 km/h (3 Bft) S-SW 205 0 min 0,000 mm 0,0 UV-I 0 W/m 7,8 C 3,2 C 22,5 km/h (4 Bft) 100,00 %
20.05.2016 01:14 9,2 C 91 % 1016,5 hPa 0,0 l/m 17,4 km/h (3 Bft) S-SW 210 0 min 0,000 mm 0,0 UV-I 0 W/m 7,8 C 3,2 C 22,5 km/h (4 Bft) 96,30 %
20.05.2016 01:15 9,2 C 91 % 1016,5 hPa 0,0 l/m 21,2 km/h (4 Bft) SW 229 0 min 0,000 mm 0,0 UV-I 0 W/m 7,8 C 1,9 C 30,6 km/h (5 Bft) 100,00 %
20.05.2016 01:16 9,2 C 91 % 1016,5 hPa 0,0 l/m 17,4 km/h (3 Bft) W 259 0 min 0,000 mm 0,0 UV-I 0 W/m 7,8 C 3,2 C 24,1 km/h (4 Bft) 96,67 %
20.05.2016 01:17 9,2 C 91 % 1016,5 hPa 0,0 l/m 17,3 km/h (3 Bft) SW 234 0 min 0,000 mm 0,0 UV-I 0 W/m 7,8 C 3,2 C 24,1 km/h (4 Bft) 96,15 %
20.05.2016 01:18 9,2 C 91 % 1016,5 hPa 0,0 l/m 18,8 km/h (3 Bft) SW 222 0 min 0,000 mm 0,0 UV-I 0 W/m 7,8 C 2,7 C 27,4 km/h (4 Bft) 100,00 %
20.05.2016 01:19 9,2 C 91 % 1016,5 hPa 0,0 l/m 15,8 km/h (3 Bft) W-SW 239 0 min 0,000 mm 0,0 UV-I 0 W/m 7,8 C 3,8 C 22,5 km/h (4 Bft) 92,86 %
20.05.2016 01:20 9,2 C 91 % 1016,6 hPa 0,0 l/m 19,2 km/h (3 Bft) W-SW 245 0 min 0,000 mm 0,0 UV-I 0 W/m 7,8 C 2,5 C 25,7 km/h (4 Bft) 100,00 %
20.05.2016 01:21 9,2 C 91 % 1016,5 hPa 0,0 l/m 16,2 km/h (3 Bft) SW 227 0 min 0,000 mm 0,0 UV-I 0 W/m 7,8 C 3,7 C 24,1 km/h (4 Bft) 96,15 %
20.05.2016 01:22 9,2 C 91 % 1016,7 hPa 0,0 l/m 15,4 km/h (3 Bft) S-SW 207 0 min 0,000 mm 0,0 UV-I 0 W/m 7,8 C 4,0 C 19,3 km/h (3 Bft) 100,00 %
20.05.2016 01:23 9,2 C 91 % 1016,6 hPa 0,0 l/m 17,9 km/h (3 Bft) W-SW 244 0 min 0,000 mm 0,0 UV-I 0 W/m 7,8 C 3,0 C 25,7 km/h (4 Bft) 88,46 %
20.05.2016 01:24 9,2 C 91 % 1016,6 hPa 0,0 l/m 18,9 km/h (3 Bft) W-SW 241 0 min 0,000 mm 0,0 UV-I 0 W/m 7,8 C 2,6 C 24,1 km/h (4 Bft) 100,00 %
20.05.2016 01:25 9,3 C 91 % 1016,7 hPa 0,0 l/m 15,8 km/h (3 Bft) W-SW 246 0 min 0,000 mm 0,0 UV-I 0 W/m 7,9 C 3,9 C 22,5 km/h (4 Bft) 95,65 %
20.05.2016 01:26 9,2 C 91 % 1016,7 hPa 0,0 l/m 12,4 km/h (3 Bft) W-SW 237 0 min 0,000 mm 0,0 UV-I 0 W/m 7,8 C 5,4 C 16,1 km/h (3 Bft) 95,83 %
20.05.2016 01:27 9,2 C 91 % 1016,7 hPa 0,0 l/m 12,4 km/h (3 Bft) W 264 0 min 0,000 mm 0,0 UV-I 0 W/m 7,8 C 5,4 C 17,7 km/h (3 Bft) 96,15 %
20.05.2016 01:28 9,3 C 91 % 1016,7 hPa 0,0 l/m 19,6 km/h (3 Bft) SW 223 0 min 0,000 mm 0,0 UV-I 0 W/m 7,9 C 2,5 C 24,1 km/h (4 Bft) 94,44 %
20.05.2016 01:29 9,3 C 91 % 1016,7 hPa 0,0 l/m 17,0 km/h (3 Bft) W-SW 255 0 min 0,000 mm 0,0 UV-I 0 W/m 7,9 C 3,5 C 24,1 km/h (4 Bft) 100,00 %
20.05.2016 01:30 9,3 C 91 % 1016,7 hPa 0,0 l/m 17,4 km/h (3 Bft) W 259 0 min 0,000 mm 0,0 UV-I 0 W/m 7,9 C 3,3 C 25,7 km/h (4 Bft) 95,65 %
20.05.2016 01:31 9,3 C 91 % 1016,7 hPa 0,0 l/m 24,6 km/h (4 Bft) S-SW 213 0 min 0,000 mm 0,0 UV-I 0 W/m 7,9 C 1,0 C 30,6 km/h (5 Bft) 100,00 %
20.05.2016 01:32 9,3 C 91 % 1016,7 hPa 0,0 l/m 15,8 km/h (3 Bft) SW 235 0 min 0,000 mm 0,0 UV-I 0 W/m 7,9 C 3,9 C 22,5 km/h (4 Bft) 90,91 %
20.05.2016 01:33 9,3 C 91 % 1016,7 hPa 0,0 l/m 17,1 km/h (3 Bft) W-SW 242 0 min 0,000 mm 0,0 UV-I 0 W/m 7,9 C 3,4 C 24,1 km/h (4 Bft) 100,00 %
20.05.2016 01:34 9,3 C 91 % 1016,7 hPa 0,0 l/m 17,4 km/h (3 Bft) W-SW 240 0 min 0,000 mm 0,0 UV-I 0 W/m 7,9 C 3,3 C 24,1 km/h (4 Bft) 92,31 %
20.05.2016 01:35 9,3 C 90 % 1016,7 hPa 0,0 l/m 17,0 km/h (3 Bft) W-SW 241 0 min 0,000 mm 0,0 UV-I 0 W/m 7,7 C 3,5 C 27,4 km/h (4 Bft) 96,97 %
20.05.2016 01:36 9,3 C 91 % 1016,7 hPa 0,0 l/m 13,6 km/h (3 Bft) SW 229 0 min 0,000 mm 0,0 UV-I 0 W/m 7,9 C 4,9 C 19,3 km/h (3 Bft) 100,00 %
20.05.2016 01:37 9,3 C 91 % 1016,7 hPa 0,0 l/m 18,9 km/h (3 Bft) W 275 0 min 0,000 mm 0,0 UV-I 0 W/m 7,9 C 2,8 C 29,0 km/h (5 Bft) 96,67 %
20.05.2016 01:38 9,3 C 90 % 1016,7 hPa 0,0 l/m 20,8 km/h (4 Bft) S-SW 213 0 min 0,000 mm 0,0 UV-I 0 W/m 7,7 C 2,1 C 30,6 km/h (5 Bft) 100,00 %
20.05.2016 01:39 9,3 C 90 % 1016,7 hPa 0,0 l/m 19,3 km/h (3 Bft) W 281 0 min 0,000 mm 0,0 UV-I 0 W/m 7,7 C 2,6 C 25,7 km/h (4 Bft) 91,67 %
20.05.2016 01:40 9,3 C 90 % 1016,7 hPa 0,0 l/m 18,5 km/h (3 Bft) W-SW 242 0 min 0,000 mm 0,0 UV-I 0 W/m 7,7 C 2,9 C 27,4 km/h (4 Bft) 100,00 %
20.05.2016 01:41 9,3 C 90 % 1016,8 hPa 0,0 l/m 18,2 km/h (3 Bft) SW 222 0 min 0,000 mm 0,0 UV-I 0 W/m 7,7 C 3,0 C 25,7 km/h (4 Bft) 96,55 %
20.05.2016 01:42 9,3 C 90 % 1016,8 hPa 0,0 l/m 15,6 km/h (3 Bft) SW 221 0 min 0,000 mm 0,0 UV-I 0 W/m 7,7 C 4,0 C 24,1 km/h (4 Bft) 96,77 %
20.05.2016 01:43 9,3 C 90 % 1016,8 hPa 0,0 l/m 12,9 km/h (3 Bft) SW 216 0 min 0,000 mm 0,0 UV-I 0 W/m 7,7 C 5,3 C 22,5 km/h (4 Bft) 92,59 %
20.05.2016 01:44 9,3 C 90 % 1016,8 hPa 0,0 l/m 16,0 km/h (3 Bft) W-SW 252 0 min 0,000 mm 0,0 UV-I 0 W/m 7,7 C 3,9 C 20,9 km/h (4 Bft) 92,31 %
20.05.2016 01:45 9,3 C 90 % 1016,8 hPa 0,0 l/m 15,5 km/h (3 Bft) W-SW 242 0 min 0,000 mm 0,0 UV-I 0 W/m 7,7 C 4,1 C 24,1 km/h (4 Bft) 100,00 %
20.05.2016 01:46 9,3 C 90 % 1016,8 hPa 0,0 l/m 17,7 km/h (3 Bft) SW 223 0 min 0,000 mm 0,0 UV-I 0 W/m 7,7 C 3,2 C 25,7 km/h (4 Bft) 93,33 %
20.05.2016 01:47 9,3 C 90 % 1016,8 hPa 0,0 l/m 15,3 km/h (3 Bft) SW 234 0 min 0,000 mm 0,0 UV-I 0 W/m 7,7 C 4,2 C 20,9 km/h (4 Bft) 100,00 %
20.05.2016 01:48 9,4 C 90 % 1016,9 hPa 0,0 l/m 14,9 km/h (3 Bft) W-SW 248 0 min 0,000 mm 0,0 UV-I 0 W/m 7,8 C 4,5 C 17,7 km/h (3 Bft) 93,33 %
20.05.2016 01:49 9,3 C 90 % 1016,9 hPa 0,0 l/m 13,8 km/h (3 Bft) SW 221 0 min 0,000 mm 0,0 UV-I 0 W/m 7,7 C 4,8 C 17,7 km/h (3 Bft) 100,00 %
20.05.2016 01:50 9,4 C 90 % 1016,9 hPa 0,0 l/m 18,6 km/h (3 Bft) SW 232 0 min 0,000 mm 0,0 UV-I 0 W/m 7,8 C 3,0 C 24,1 km/h (4 Bft) 96,30 %
20.05.2016 01:51 9,4 C 90 % 1016,9 hPa 0,0 l/m 16,3 km/h (3 Bft) S-SW 202 0 min 0,000 mm 0,0 UV-I 0 W/m 7,8 C 3,9 C 20,9 km/h (4 Bft) 98,40 %
20.05.2016 01:52 9,4 C 90 % 1016,9 hPa 0,0 l/m 13,1 km/h (3 Bft) SW 224 0 min 0,000 mm 0,0 UV-I 0 W/m 7,8 C 5,3 C 17,7 km/h (3 Bft) 100,00 %
20.05.2016 01:53 9,4 C 90 % 1016,9 hPa 0,0 l/m 18,7 km/h (3 Bft) SW 235 0 min 0,000 mm 0,0 UV-I 0 W/m 7,8 C 3,0 C 22,5 km/h (4 Bft) 100,00 %
20.05.2016 01:54 9,4 C 90 % 1016,9 hPa 0,0 l/m 15,7 km/h (3 Bft) SW 228 0 min 0,000 mm 0,0 UV-I 0 W/m 7,8 C 4,1 C 19,3 km/h (3 Bft) 100,00 %
20.05.2016 01:55 9,4 C 90 % 1016,9 hPa 0,0 l/m 16,9 km/h (3 Bft) W-SW 254 0 min 0,000 mm 0,0 UV-I 0 W/m 7,8 C 3,6 C 22,5 km/h (4 Bft) 100,00 %
20.05.2016 01:56 9,4 C 90 % 1016,9 hPa 0,0 l/m 15,1 km/h (3 Bft) W-SW 252 0 min 0,000 mm 0,0 UV-I 0 W/m 7,8 C 4,4 C 19,3 km/h (3 Bft) 100,00 %
20.05.2016 01:57 9,4 C 90 % 1016,9 hPa 0,0 l/m 13,3 km/h (3 Bft) SW 233 0 min 0,000 mm 0,0 UV-I 0 W/m 7,8 C 5,2 C 16,1 km/h (3 Bft) 100,00 %
20.05.2016 01:58 9,4 C 90 % 1016,9 hPa 0,0 l/m 13,4 km/h (3 Bft) SW 230 0 min 0,000 mm 0,0 UV-I 0 W/m 7,8 C 5,1 C 17,7 km/h (3 Bft) 100,00 %
20.05.2016 01:59 9,4 C 90 % 1016,9 hPa 0,0 l/m 16,4 km/h (3 Bft) W-SW 246 0 min 0,000 mm 0,0 UV-I 0 W/m 7,8 C 3,8 C 25,7 km/h (4 Bft) 93,10 %
20.05.2016 02:00 9,4 C 90 % 1016,9 hPa 0,0 l/m 13,8 km/h (3 Bft) W-SW 257 0 min 0,026 mm 0,0 UV-I 0 W/m 7,8 C 4,9 C 17,7 km/h (3 Bft) 100,00 %
20.05.2016 02:01 9,4 C 90 % 1016,9 hPa 0,0 l/m 19,2 km/h (3 Bft) SW 224 0 min 0,000 mm 0,0 UV-I 0 W/m 7,8 C 2,8 C 24,1 km/h (4 Bft) 96,00 %
20.05.2016 02:02 9,4 C 90 % 1016,9 hPa 0,0 l/m 19,7 km/h (3 Bft) W-SW 239 0 min 0,000 mm 0,0 UV-I 0 W/m 7,8 C 2,6 C 24,1 km/h (4 Bft) 100,00 %
20.05.2016 02:03 9,4 C 90 % 1016,9 hPa 0,0 l/m 16,8 km/h (3 Bft) W-SW 250 0 min 0,000 mm 0,0 UV-I 0 W/m 7,8 C 3,7 C 22,5 km/h (4 Bft) 96,15 %
20.05.2016 02:04 9,4 C 90 % 1016,9 hPa 0,0 l/m 16,5 km/h (3 Bft) SW 220 0 min 0,000 mm 0,0 UV-I 0 W/m 7,8 C 3,8 C 19,3 km/h (3 Bft) 100,00 %
20.05.2016 02:05 9,4 C 90 % 1016,9 hPa 0,0 l/m 13,6 km/h (3 Bft) SW 232 0 min 0,000 mm 0,0 UV-I 0 W/m 7,8 C 5,0 C 16,1 km/h (3 Bft) 100,00 %
20.05.2016 02:06 9,4 C 90 % 1016,9 hPa 0,0 l/m 15,3 km/h (3 Bft) W-SW 254 0 min 0,000 mm 0,0 UV-I 0 W/m 7,8 C 4,3 C 22,5 km/h (4 Bft) 100,00 %
20.05.2016 02:07 9,4 C 90 % 1017,0 hPa 0,0 l/m 19,1 km/h (3 Bft) W-SW 254 0 min 0,000 mm 0,0 UV-I 0 W/m 7,8 C 2,8 C 25,7 km/h (4 Bft) 96,30 %
20.05.2016 02:08 9,4 C 90 % 1016,9 hPa 0,0 l/m 16,4 km/h (3 Bft) SW 225 0 min 0,000 mm 0,0 UV-I 0 W/m 7,8 C 3,8 C 24,1 km/h (4 Bft) 100,00 %
20.05.2016 02:09 9,4 C 90 % 1017,0 hPa 0,0 l/m 13,9 km/h (3 Bft) S-SW 207 0 min 0,000 mm 0,0 UV-I 0 W/m 7,8 C 4,9 C 19,3 km/h (3 Bft) 100,00 %
20.05.2016 02:10 9,4 C 90 % 1017,0 hPa 0,0 l/m 11,0 km/h (2 Bft) SW 225 0 min 0,000 mm 0,0 UV-I 0 W/m 7,8 C 6,4 C 19,3 km/h (3 Bft) 100,00 %
20.05.2016 02:11 9,4 C 90 % 1017,0 hPa 0,0 l/m 13,9 km/h (3 Bft) SW 217 0 min 0,000 mm 0,0 UV-I 0 W/m 7,8 C 4,9 C 19,3 km/h (3 Bft) 100,00 %
20.05.2016 02:12 9,4 C 90 % 1017,0 hPa 0,0 l/m 16,4 km/h (3 Bft) W-SW 248 0 min 0,000 mm 0,0 UV-I 0 W/m 7,8 C 3,8 C 22,5 km/h (4 Bft) 100,00 %
20.05.2016 02:13 9,4 C 90 % 1017,1 hPa 0,0 l/m 15,7 km/h (3 Bft) W-SW 244 0 min 0,000 mm 0,0 UV-I 0 W/m 7,8 C 4,1 C 22,5 km/h (4 Bft) 100,00 %
20.05.2016 02:14 9,4 C 90 % 1017,1 hPa 0,0 l/m 22,2 km/h (4 Bft) S-SW 212 0 min 0,000 mm 0,0 UV-I 0 W/m 7,8 C 1,8 C 29,0 km/h (5 Bft) 100,00 %
20.05.2016 02:15 9,4 C 90 % 1017,0 hPa 0,0 l/m 20,1 km/h (4 Bft) W-SW 250 0 min 0,000 mm 0,0 UV-I 0 W/m 7,8 C 2,5 C 27,4 km/h (4 Bft) 100,00 %
20.05.2016 02:16 9,4 C 90 % 1017,0 hPa 0,0 l/m 19,8 km/h (3 Bft) W-SW 248 0 min 0,000 mm 0,0 UV-I 0 W/m 7,8 C 2,6 C 27,4 km/h (4 Bft) 100,00 %
20.05.2016 02:17 9,4 C 90 % 1017,0 hPa 0,0 l/m 14,8 km/h (3 Bft) W-NW 299 0 min 0,000 mm 0,0 UV-I 0 W/m 7,8 C 4,5 C 20,9 km/h (4 Bft) 100,00 %
20.05.2016 02:18 9,4 C 90 % 1017,1 hPa 0,0 l/m 17,7 km/h (3 Bft) W-SW 257 0 min 0,000 mm 0,0 UV-I 0 W/m 7,8 C 3,3 C 29,0 km/h (5 Bft) 100,00 %
20.05.2016 02:19 9,5 C 90 % 1017,1 hPa 0,0 l/m 17,3 km/h (3 Bft) W 263 0 min 0,000 mm 0,0 UV-I 0 W/m 7,9 C 3,6 C 29,0 km/h (5 Bft) 100,00 %
20.05.2016 02:20 9,4 C 90 % 1017,1 hPa 0,0 l/m 13,7 km/h (3 Bft) S-SW 213 0 min 0,000 mm 0,0 UV-I 0 W/m 7,8 C 5,0 C 22,5 km/h (4 Bft) 100,00 %
20.05.2016 02:21 9,4 C 90 % 1017,1 hPa 0,0 l/m 20,4 km/h (4 Bft) W-SW 253 0 min 0,000 mm 0,0 UV-I 0 W/m 7,8 C 2,4 C 30,6 km/h (5 Bft) 100,00 %
20.05.2016 02:22 9,4 C 90 % 1017,1 hPa 0,0 l/m 18,3 km/h (3 Bft) W-SW 245 0 min 0,000 mm 0,0 UV-I 0 W/m 7,8 C 3,1 C 22,5 km/h (4 Bft) 100,00 %
20.05.2016 02:23 9,4 C 90 % 1017,1 hPa 0,0 l/m 13,5 km/h (3 Bft) W 265 0 min 0,000 mm 0,0 UV-I 0 W/m 7,8 C 5,1 C 19,3 km/h (3 Bft) 100,00 %
20.05.2016 02:24 9,4 C 90 % 1017,1 hPa 0,0 l/m 17,6 km/h (3 Bft) W-SW 243 0 min 0,000 mm 0,0 UV-I 0 W/m 7,8 C 3,4 C 24,1 km/h (4 Bft) 100,00 %
20.05.2016 02:25 9,4 C 90 % 1017,1 hPa 0,0 l/m 15,5 km/h (3 Bft) W-SW 253 0 min 0,000 mm 0,0 UV-I 0 W/m 7,8 C 4,2 C 22,5 km/h (4 Bft) 100,00 %
20.05.2016 02:26 9,4 C 90 % 1017,1 hPa 0,0 l/m 13,2 km/h (3 Bft) W-SW 241 0 min 0,000 mm 0,0 UV-I 0 W/m 7,8 C 5,2 C 20,9 km/h (4 Bft) 100,00 %
20.05.2016 02:27 9,4 C 90 % 1017,1 hPa 0,0 l/m 19,5 km/h (3 Bft) SW 234 0 min 0,000 mm 0,0 UV-I 0 W/m 7,8 C 2,7 C 30,6 km/h (5 Bft) 100,00 %
20.05.2016 02:28 9,4 C 90 % 1017,1 hPa 0,0 l/m 18,5 km/h (3 Bft) SW 216 0 min 0,000 mm 0,0 UV-I 0 W/m 7,8 C 3,0 C 25,7 km/h (4 Bft) 100,00 %
20.05.2016 02:29 9,4 C 90 % 1017,1 hPa 0,0 l/m 16,1 km/h (3 Bft) W-SW 252 0 min 0,000 mm 0,0 UV-I 0 W/m 7,8 C 3,9 C 22,5 km/h (4 Bft) 100,00 %
20.05.2016 02:30 9,4 C 90 % 1017,1 hPa 0,0 l/m 17,9 km/h (3 Bft) W-SW 240 0 min 0,000 mm 0,0 UV-I 0 W/m 7,8 C 3,2 C 22,5 km/h (4 Bft) 100,00 %
20.05.2016 02:31 9,4 C 90 % 1017,0 hPa 0,0 l/m 16,1 km/h (3 Bft) W-SW 258 0 min 0,000 mm 0,0 UV-I 0 W/m 7,8 C 3,9 C 20,9 km/h (4 Bft) 100,00 %
20.05.2016 02:32 9,4 C 90 % 1017,0 hPa 0,0 l/m 20,6 km/h (4 Bft) W 267 0 min 0,000 mm 0,0 UV-I 0 W/m 7,8 C 2,3 C 25,7 km/h (4 Bft) 100,00 %
20.05.2016 02:33 9,4 C 90 % 1017,0 hPa 0,0 l/m 16,0 km/h (3 Bft) W-SW 246 0 min 0,000 mm 0,0 UV-I 0 W/m 7,8 C 4,0 C 22,5 km/h (4 Bft) 100,00 %
20.05.2016 02:34 9,4 C 90 % 1017,0 hPa 0,0 l/m 16,5 km/h (3 Bft) W-SW 249 0 min 0,000 mm 0,0 UV-I 0 W/m 7,8 C 3,8 C 19,3 km/h (3 Bft) 100,00 %
20.05.2016 02:35 9,4 C 90 % 1017,0 hPa 0,0 l/m 15,6 km/h (3 Bft) W-SW 238 0 min 0,000 mm 0,0 UV-I 0 W/m 7,8 C 4,2 C 24,1 km/h (4 Bft) 96,15 %
20.05.2016 02:36 9,4 C 90 % 1017,0 hPa 0,0 l/m 16,9 km/h (3 Bft) W-SW 241 0 min 0,000 mm 0,0 UV-I 0 W/m 7,8 C 3,6 C 20,9 km/h (4 Bft) 100,00 %
20.05.2016 02:37 9,4 C 90 % 1017,0 hPa 0,0 l/m 14,3 km/h (3 Bft) W-SW 254 0 min 0,000 mm 0,0 UV-I 0 W/m 7,8 C 4,7 C 22,5 km/h (4 Bft) 100,00 %
20.05.2016 02:38 9,4 C 90 % 1017,1 hPa 0,0 l/m 21,5 km/h (4 Bft) W-SW 239 0 min 0,000 mm 0,0 UV-I 0 W/m 7,8 C 2,0 C 25,7 km/h (4 Bft) 100,00 %
20.05.2016 02:39 9,4 C 90 % 1017,0 hPa 0,0 l/m 14,3 km/h (3 Bft) W-SW 250 0 min 0,000 mm 0,0 UV-I 0 W/m 7,8 C 4,7 C 19,3 km/h (3 Bft) 100,00 %
20.05.2016 02:40 9,4 C 90 % 1017,0 hPa 0,0 l/m 16,4 km/h (3 Bft) W-SW 247 0 min 0,000 mm 0,0 UV-I 0 W/m 7,8 C 3,8 C 25,7 km/h (4 Bft) 100,00 %
20.05.2016 02:42 9,4 C 90 % 1017,1 hPa 0,0 l/m 19,1 km/h (3 Bft) SW 235 0 min 0,000 mm 0,0 UV-I 0 W/m 7,8 C 2,8 C 27,4 km/h (4 Bft) 100,00 %
20.05.2016 02:43 9,4 C 90 % 1017,1 hPa 0,0 l/m 15,0 km/h (3 Bft) SW 235 0 min 0,000 mm 0,0 UV-I 0 W/m 7,8 C 4,4 C 19,3 km/h (3 Bft) 100,00 %
20.05.2016 02:44 9,4 C 90 % 1017,1 hPa 0,0 l/m 12,2 km/h (2 Bft) W-SW 246 0 min 0,000 mm 0,0 UV-I 0 W/m 7,8 C 5,7 C 14,5 km/h (3 Bft) 100,00 %
20.05.2016 02:45 9,4 C 90 % 1017,1 hPa 0,0 l/m 15,3 km/h (3 Bft) SW 223 0 min 0,000 mm 0,0 UV-I 0 W/m 7,8 C 4,3 C 20,9 km/h (4 Bft) 100,00 %
20.05.2016 02:46 9,4 C 90 % 1017,1 hPa 0,0 l/m 16,6 km/h (3 Bft) S 180 0 min 0,000 mm 0,0 UV-I 0 W/m 7,8 C 3,7 C 22,5 km/h (4 Bft) 96,88 %
20.05.2016 02:47 9,4 C 90 % 1017,1 hPa 0,0 l/m 16,6 km/h (3 Bft) W-NW 293 0 min 0,000 mm 0,0 UV-I 0 W/m 7,8 C 3,7 C 22,5 km/h (4 Bft) 100,00 %
20.05.2016 02:48 9,4 C 90 % 1017,1 hPa 0,0 l/m 14,7 km/h (3 Bft) W-SW 254 0 min 0,000 mm 0,0 UV-I 0 W/m 7,8 C 4,5 C 22,5 km/h (4 Bft) 100,00 %
20.05.2016 02:49 9,4 C 90 % 1017,0 hPa 0,0 l/m 17,6 km/h (3 Bft) W-SW 238 0 min 0,000 mm 0,0 UV-I 0 W/m 7,8 C 3,4 C 25,7 km/h (4 Bft) 98,78 %
20.05.2016 02:50 9,4 C 90 % 1017,0 hPa 0,0 l/m 15,2 km/h (3 Bft) SW 232 0 min 0,000 mm 0,0 UV-I 0 W/m 7,8 C 4,3 C 19,3 km/h (3 Bft) 100,00 %
20.05.2016 02:51 9,4 C 90 % 1017,1 hPa 0,0 l/m 15,0 km/h (3 Bft) SW 230 0 min 0,000 mm 0,0 UV-I 0 W/m 7,8 C 4,4 C 19,3 km/h (3 Bft) 100,00 %
20.05.2016 02:52 9,4 C 90 % 1017,0 hPa 0,0 l/m 14,7 km/h (3 Bft) W-SW 245 0 min 0,000 mm 0,0 UV-I 0 W/m 7,8 C 4,5 C 20,9 km/h (4 Bft) 100,00 %
20.05.2016 02:53 9,4 C 90 % 1017,1 hPa 0,0 l/m 17,0 km/h (3 Bft) SW 220 0 min 0,000 mm 0,0 UV-I 0 W/m 7,8 C 3,6 C 20,9 km/h (4 Bft) 100,00 %
20.05.2016 02:54 9,4 C 91 % 1017,0 hPa 0,0 l/m 13,7 km/h (3 Bft) S 169 0 min 0,000 mm 0,0 UV-I 0 W/m 8,0 C 5,0 C 19,3 km/h (3 Bft) 100,00 %
20.05.2016 02:55 9,4 C 91 % 1017,1 hPa 0,0 l/m 12,2 km/h (2 Bft) W-SW 240 0 min 0,000 mm 0,0 UV-I 0 W/m 8,0 C 5,7 C 19,3 km/h (3 Bft) 100,00 %
20.05.2016 02:56 9,4 C 91 % 1017,1 hPa 0,0 l/m 13,6 km/h (3 Bft) W 259 0 min 0,000 mm 0,0 UV-I 0 W/m 8,0 C 5,0 C 16,1 km/h (3 Bft) 100,00 %
20.05.2016 02:57 9,4 C 91 % 1017,0 hPa 0,0 l/m 12,6 km/h (3 Bft) SW 227 0 min 0,000 mm 0,0 UV-I 0 W/m 8,0 C 5,5 C 20,9 km/h (4 Bft) 100,00 %
20.05.2016 02:58 9,4 C 91 % 1017,0 hPa 0,0 l/m 16,0 km/h (3 Bft) W-SW 242 0 min 0,000 mm 0,0 UV-I 0 W/m 8,0 C 4,0 C 25,7 km/h (4 Bft) 100,00 %
20.05.2016 02:59 9,4 C 91 % 1017,1 hPa 0,0 l/m 15,0 km/h (3 Bft) W-SW 252 0 min 0,000 mm 0,0 UV-I 0 W/m 8,0 C 4,4 C 20,9 km/h (4 Bft) 100,00 %
20.05.2016 03:00 9,4 C 91 % 1017,1 hPa 0,0 l/m 20,3 km/h (4 Bft) W-SW 241 0 min 0,025 mm 0,0 UV-I 0 W/m 8,0 C 2,4 C 29,0 km/h (5 Bft) 100,00 %
20.05.2016 03:01 9,4 C 91 % 1017,1 hPa 0,0 l/m 15,0 km/h (3 Bft) W-SW 256 0 min 0,000 mm 0,0 UV-I 0 W/m 8,0 C 4,4 C 19,3 km/h (3 Bft) 100,00 %
20.05.2016 03:02 9,4 C 91 % 1017,1 hPa 0,0 l/m 17,2 km/h (3 Bft) SW 235 0 min 0,000 mm 0,0 UV-I 0 W/m 8,0 C 3,5 C 24,1 km/h (4 Bft) 100,00 %
20.05.2016 03:03 9,4 C 91 % 1017,1 hPa 0,0 l/m 13,8 km/h (3 Bft) W-SW 239 0 min 0,000 mm 0,0 UV-I 0 W/m 8,0 C 4,9 C 19,3 km/h (3 Bft) 100,00 %
20.05.2016 03:04 9,4 C 91 % 1017,1 hPa 0,0 l/m 14,4 km/h (3 Bft) SW 227 0 min 0,000 mm 0,0 UV-I 0 W/m 8,0 C 4,7 C 19,3 km/h (3 Bft) 100,00 %
20.05.2016 03:05 9,4 C 91 % 1017,1 hPa 0,0 l/m 14,5 km/h (3 Bft) SW 235 0 min 0,000 mm 0,0 UV-I 0 W/m 8,0 C 4,6 C 20,9 km/h (4 Bft) 100,00 %
20.05.2016 03:06 9,4 C 91 % 1017,1 hPa 0,0 l/m 18,0 km/h (3 Bft) W-SW 257 0 min 0,000 mm 0,0 UV-I 0 W/m 8,0 C 3,2 C 25,7 km/h (4 Bft) 100,00 %
20.05.2016 03:07 9,4 C 91 % 1017,1 hPa 0,0 l/m 14,2 km/h (3 Bft) W 280 0 min 0,000 mm 0,0 UV-I 0 W/m 8,0 C 4,8 C 17,7 km/h (3 Bft) 100,00 %
20.05.2016 03:08 9,4 C 91 % 1017,1 hPa 0,0 l/m 11,3 km/h (2 Bft) SW 227 0 min 0,000 mm 0,0 UV-I 0 W/m 8,0 C 6,2 C 12,9 km/h (3 Bft) 100,00 %
20.05.2016 03:09 9,4 C 91 % 1017,1 hPa 0,0 l/m 11,6 km/h (2 Bft) SW 217 0 min 0,000 mm 0,0 UV-I 0 W/m 8,0 C 6,0 C 16,1 km/h (3 Bft) 100,00 %
20.05.2016 03:10 9,4 C 91 % 1017,1 hPa 0,0 l/m 15,9 km/h (3 Bft) SW 218 0 min 0,000 mm 0,0 UV-I 0 W/m 8,0 C 4,0 C 20,9 km/h (4 Bft) 100,00 %
20.05.2016 03:11 9,4 C 91 % 1017,1 hPa 0,0 l/m 15,9 km/h (3 Bft) S-SW 213 0 min 0,000 mm 0,0 UV-I 0 W/m 8,0 C 4,0 C 22,5 km/h (4 Bft) 100,00 %
20.05.2016 03:12 9,4 C 91 % 1017,1 hPa 0,0 l/m 11,3 km/h (2 Bft) SW 229 0 min 0,000 mm 0,0 UV-I 0 W/m 8,0 C 6,2 C 16,1 km/h (3 Bft) 93,33 %
20.05.2016 03:13 9,4 C 91 % 1017,2 hPa 0,0 l/m 14,6 km/h (3 Bft) W 265 0 min 0,000 mm 0,0 UV-I 0 W/m 8,0 C 4,6 C 19,3 km/h (3 Bft) 100,00 %
20.05.2016 03:14 9,4 C 91 % 1017,1 hPa 0,0 l/m 11,9 km/h (2 Bft) SW 214 0 min 0,000 mm 0,0 UV-I 0 W/m 8,0 C 5,9 C 16,1 km/h (3 Bft) 100,00 %
20.05.2016 03:15 9,4 C 91 % 1017,1 hPa 0,0 l/m 18,1 km/h (3 Bft) SW 227 0 min 0,000 mm 0,0 UV-I 0 W/m 8,0 C 3,2 C 22,5 km/h (4 Bft) 100,00 %
20.05.2016 03:16 9,4 C 91 % 1017,1 hPa 0,0 l/m 13,0 km/h (3 Bft) W-SW 250 0 min 0,000 mm 0,0 UV-I 0 W/m 8,0 C 5,3 C 17,7 km/h (3 Bft) 100,00 %
20.05.2016 03:17 9,4 C 91 % 1017,2 hPa 0,0 l/m 13,3 km/h (3 Bft) S-SW 208 0 min 0,000 mm 0,0 UV-I 0 W/m 8,0 C 5,2 C 17,7 km/h (3 Bft) 100,00 %
20.05.2016 03:18 9,4 C 91 % 1017,2 hPa 0,0 l/m 17,3 km/h (3 Bft) W-SW 253 0 min 0,000 mm 0,0 UV-I 0 W/m 8,0 C 3,5 C 25,7 km/h (4 Bft) 96,67 %
20.05.2016 03:19 9,4 C 91 % 1017,2 hPa 0,0 l/m 17,1 km/h (3 Bft) W-SW 244 0 min 0,000 mm 0,0 UV-I 0 W/m 8,0 C 3,6 C 24,1 km/h (4 Bft) 96,43 %
20.05.2016 03:20 9,4 C 91 % 1017,1 hPa 0,0 l/m 15,7 km/h (3 Bft) W-SW 242 0 min 0,000 mm 0,0 UV-I 0 W/m 8,0 C 4,1 C 24,1 km/h (4 Bft) 100,00 %
20.05.2016 03:21 9,4 C 91 % 1017,2 hPa 0,0 l/m 13,1 km/h (3 Bft) SW 217 0 min 0,000 mm 0,0 UV-I 0 W/m 8,0 C 5,3 C 20,9 km/h (4 Bft) 95,65 %
20.05.2016 03:22 9,4 C 91 % 1017,2 hPa 0,0 l/m 17,8 km/h (3 Bft) SW 227 0 min 0,000 mm 0,0 UV-I 0 W/m 8,0 C 3,3 C 27,4 km/h (4 Bft) 100,00 %
20.05.2016 03:23 9,4 C 91 % 1017,2 hPa 0,0 l/m 16,4 km/h (3 Bft) SW 232 0 min 0,000 mm 0,0 UV-I 0 W/m 8,0 C 3,8 C 19,3 km/h (3 Bft) 91,67 %
20.05.2016 03:24 9,4 C 91 % 1017,1 hPa 0,0 l/m 22,6 km/h (4 Bft) SW 219 0 min 0,000 mm 0,0 UV-I 0 W/m 8,0 C 1,7 C 30,6 km/h (5 Bft) 100,00 %
20.05.2016 03:25 9,4 C 91 % 1017,1 hPa 0,0 l/m 20,5 km/h (4 Bft) SW 229 0 min 0,000 mm 0,0 UV-I 0 W/m 8,0 C 2,3 C 30,6 km/h (5 Bft) 95,83 %
20.05.2016 03:26 9,4 C 91 % 1017,1 hPa 0,0 l/m 18,1 km/h (3 Bft) W-SW 244 0 min 0,000 mm 0,0 UV-I 0 W/m 8,0 C 3,2 C 25,7 km/h (4 Bft) 93,10 %
20.05.2016 03:27 9,4 C 91 % 1017,1 hPa 0,0 l/m 15,4 km/h (3 Bft) S-SW 206 0 min 0,000 mm 0,0 UV-I 0 W/m 8,0 C 4,2 C 22,5 km/h (4 Bft) 100,00 %
20.05.2016 03:28 9,4 C 91 % 1017,1 hPa 0,0 l/m 16,1 km/h (3 Bft) S-SW 213 0 min 0,000 mm 0,0 UV-I 0 W/m 8,0 C 3,9 C 22,5 km/h (4 Bft) 96,15 %
20.05.2016 03:29 9,4 C 91 % 1017,1 hPa 0,0 l/m 17,6 km/h (3 Bft) SW 228 0 min 0,000 mm 0,0 UV-I 0 W/m 8,0 C 3,4 C 27,4 km/h (4 Bft) 100,00 %
20.05.2016 03:30 9,4 C 91 % 1017,1 hPa 0,0 l/m 16,7 km/h (3 Bft) W 262 0 min 0,000 mm 0,0 UV-I 0 W/m 8,0 C 3,7 C 22,5 km/h (4 Bft) 96,15 %
20.05.2016 03:31 9,4 C 91 % 1017,1 hPa 0,0 l/m 17,7 km/h (3 Bft) SW 215 0 min 0,000 mm 0,0 UV-I 0 W/m 8,0 C 3,3 C 27,4 km/h (4 Bft) 100,00 %
20.05.2016 03:32 9,4 C 91 % 1017,1 hPa 0,0 l/m 18,7 km/h (3 Bft) W-SW 257 0 min 0,000 mm 0,0 UV-I 0 W/m 8,0 C 3,0 C 27,4 km/h (4 Bft) 96,15 %
20.05.2016 03:33 9,4 C 91 % 1017,1 hPa 0,0 l/m 13,4 km/h (3 Bft) W-SW 254 0 min 0,000 mm 0,0 UV-I 0 W/m 8,0 C 5,1 C 19,3 km/h (3 Bft) 100,00 %
20.05.2016 03:34 9,4 C 91 % 1017,1 hPa 0,0 l/m 13,4 km/h (3 Bft) SW 236 0 min 0,000 mm 0,0 UV-I 0 W/m 8,0 C 5,1 C 19,3 km/h (3 Bft) 96,30 %
20.05.2016 03:35 9,4 C 91 % 1017,0 hPa 0,0 l/m 22,4 km/h (4 Bft) W-SW 238 0 min 0,000 mm 0,0 UV-I 0 W/m 8,0 C 1,8 C 33,8 km/h (5 Bft) 96,30 %
20.05.2016 03:36 9,4 C 91 % 1017,0 hPa 0,0 l/m 19,2 km/h (3 Bft) SW 221 0 min 0,000 mm 0,0 UV-I 0 W/m 8,0 C 2,8 C 29,0 km/h (5 Bft) 96,15 %
20.05.2016 03:37 9,4 C 91 % 1017,0 hPa 0,0 l/m 15,2 km/h (3 Bft) SW 229 0 min 0,000 mm 0,0 UV-I 0 W/m 8,0 C 4,3 C 19,3 km/h (3 Bft) 95,83 %
20.05.2016 03:38 9,4 C 91 % 1017,0 hPa 0,0 l/m 15,6 km/h (3 Bft) SW 228 0 min 0,000 mm 0,0 UV-I 0 W/m 8,0 C 4,2 C 25,7 km/h (4 Bft) 91,30 %
20.05.2016 03:39 9,4 C 91 % 1017,1 hPa 0,0 l/m 17,8 km/h (3 Bft) SW 232 0 min 0,000 mm 0,0 UV-I 0 W/m 8,0 C 3,3 C 25,7 km/h (4 Bft) 95,83 %
20.05.2016 03:40 9,5 C 91 % 1017,1 hPa 0,0 l/m 15,7 km/h (3 Bft) S 184 0 min 0,000 mm 0,0 UV-I 0 W/m 8,1 C 4,2 C 24,1 km/h (4 Bft) 100,00 %
20.05.2016 03:41 9,4 C 91 % 1017,1 hPa 0,0 l/m 13,5 km/h (3 Bft) W 267 0 min 0,000 mm 0,0 UV-I 0 W/m 8,0 C 5,1 C 19,3 km/h (3 Bft) 91,67 %
20.05.2016 03:42 9,4 C 91 % 1017,1 hPa 0,0 l/m 16,6 km/h (3 Bft) S-SW 200 0 min 0,000 mm 0,0 UV-I 0 W/m 8,0 C 3,7 C 22,5 km/h (4 Bft) 95,65 %
20.05.2016 03:43 9,4 C 91 % 1017,0 hPa 0,0 l/m 15,9 km/h (3 Bft) W-SW 246 0 min 0,000 mm 0,0 UV-I 0 W/m 8,0 C 4,0 C 29,0 km/h (5 Bft) 100,00 %
20.05.2016 03:44 9,4 C 91 % 1017,0 hPa 0,0 l/m 22,8 km/h (4 Bft) SW 234 0 min 0,000 mm 0,0 UV-I 0 W/m 8,0 C 1,6 C 29,0 km/h (5 Bft) 100,00 %
20.05.2016 03:45 9,4 C 91 % 1017,1 hPa 0,0 l/m 19,5 km/h (3 Bft) SW 234 0 min 0,000 mm 0,0 UV-I 0 W/m 8,0 C 2,7 C 25,7 km/h (4 Bft) 96,55 %
20.05.2016 03:46 9,4 C 91 % 1017,0 hPa 0,0 l/m 14,7 km/h (3 Bft) W 263 0 min 0,000 mm 0,0 UV-I 0 W/m 8,0 C 4,5 C 20,9 km/h (4 Bft) 96,15 %
20.05.2016 03:47 9,4 C 91 % 1017,1 hPa 0,0 l/m 16,4 km/h (3 Bft) SW 221 0 min 0,000 mm 0,0 UV-I 0 W/m 8,0 C 3,8 C 22,5 km/h (4 Bft) 100,00 %
20.05.2016 03:48 9,4 C 91 % 1017,0 hPa 0,0 l/m 15,9 km/h (3 Bft) W-SW 256 0 min 0,000 mm 0,0 UV-I 0 W/m 8,0 C 4,0 C 19,3 km/h (3 Bft) 93,33 %
20.05.2016 03:49 9,4 C 91 % 1017,0 hPa 0,0 l/m 21,2 km/h (4 Bft) SW 220 0 min 0,000 mm 0,0 UV-I 0 W/m 8,0 C 2,1 C 24,1 km/h (4 Bft) 100,00 %
20.05.2016 03:50 9,4 C 91 % 1017,0 hPa 0,0 l/m 18,0 km/h (3 Bft) SW 225 0 min 0,000 mm 0,0 UV-I 0 W/m 8,0 C 3,2 C 22,5 km/h (4 Bft) 95,83 %
20.05.2016 03:51 9,4 C 91 % 1017,1 hPa 0,0 l/m 14,1 km/h (3 Bft) SW 221 0 min 0,000 mm 0,0 UV-I 0 W/m 8,0 C 4,8 C 19,3 km/h (3 Bft) 91,30 %
20.05.2016 03:52 9,4 C 91 % 1017,1 hPa 0,0 l/m 15,8 km/h (3 Bft) W-SW 238 0 min 0,000 mm 0,0 UV-I 0 W/m 8,0 C 4,1 C 20,9 km/h (4 Bft) 100,00 %
20.05.2016 03:53 9,4 C 91 % 1017,1 hPa 0,0 l/m 17,7 km/h (3 Bft) W-SW 245 0 min 0,000 mm 0,0 UV-I 0 W/m 8,0 C 3,3 C 24,1 km/h (4 Bft) 100,00 %
20.05.2016 03:54 9,4 C 91 % 1017,1 hPa 0,0 l/m 21,4 km/h (4 Bft) W-SW 238 0 min 0,000 mm 0,0 UV-I 0 W/m 8,0 C 2,1 C 27,4 km/h (4 Bft) 100,00 %
20.05.2016 03:55 9,4 C 91 % 1017,0 hPa 0,0 l/m 13,9 km/h (3 Bft) W 261 0 min 0,000 mm 0,0 UV-I 0 W/m 8,0 C 4,9 C 19,3 km/h (3 Bft) 92,31 %
20.05.2016 03:56 9,4 C 91 % 1017,1 hPa 0,0 l/m 19,0 km/h (3 Bft) W-SW 239 0 min 0,000 mm 0,0 UV-I 0 W/m 8,0 C 2,9 C 30,6 km/h (5 Bft) 100,00 %
20.05.2016 03:57 9,4 C 91 % 1017,1 hPa 0,0 l/m 18,0 km/h (3 Bft) W-SW 245 0 min 0,000 mm 0,0 UV-I 0 W/m 8,0 C 3,2 C 27,4 km/h (4 Bft) 96,15 %
20.05.2016 03:58 9,4 C 91 % 1017,1 hPa 0,0 l/m 15,9 km/h (3 Bft) SW 221 0 min 0,000 mm 0,0 UV-I 0 W/m 8,0 C 4,0 C 22,5 km/h (4 Bft) 100,00 %
20.05.2016 03:59 9,4 C 91 % 1017,1 hPa 0,0 l/m 13,4 km/h (3 Bft) W-SW 238 0 min 0,000 mm 0,0 UV-I 0 W/m 8,0 C 5,1 C 19,3 km/h (3 Bft) 100,00 %
20.05.2016 04:00 9,4 C 91 % 1017,1 hPa 0,0 l/m 17,9 km/h (3 Bft) W 263 0 min 0,026 mm 0,0 UV-I 0 W/m 8,0 C 3,2 C 30,6 km/h (5 Bft) 100,00 %
20.05.2016 04:02 9,4 C 91 % 1017,1 hPa 0,0 l/m 17,9 km/h (3 Bft) SW 230 0 min 0,000 mm 0,0 UV-I 0 W/m 8,0 C 3,2 C 25,7 km/h (4 Bft) 100,00 %
20.05.2016 04:03 9,5 C 91 % 1017,1 hPa 0,0 l/m 17,0 km/h (3 Bft) SW 226 0 min 0,000 mm 0,0 UV-I 0 W/m 8,1 C 3,7 C 22,5 km/h (4 Bft) 100,00 %
20.05.2016 04:04 9,5 C 91 % 1017,1 hPa 0,0 l/m 16,2 km/h (3 Bft) SW 232 0 min 0,000 mm 0,0 UV-I 0 W/m 8,1 C 4,0 C 29,0 km/h (5 Bft) 100,00 %
20.05.2016 04:05 9,5 C 91 % 1017,1 hPa 0,0 l/m 21,1 km/h (4 Bft) SW 227 0 min 0,000 mm 0,0 UV-I 0 W/m 8,1 C 2,3 C 32,2 km/h (5 Bft) 97,56 %
20.05.2016 04:06 9,5 C 91 % 1017,1 hPa 0,0 l/m 17,4 km/h (3 Bft) SW 222 0 min 0,000 mm 0,0 UV-I 0 W/m 8,1 C 3,6 C 24,1 km/h (4 Bft) 100,00 %
20.05.2016 04:07 9,5 C 91 % 1017,1 hPa 0,0 l/m 15,1 km/h (3 Bft) SW 233 0 min 0,000 mm 0,0 UV-I 0 W/m 8,1 C 4,5 C 19,3 km/h (3 Bft) 100,00 %
20.05.2016 04:08 9,5 C 91 % 1017,1 hPa 0,0 l/m 15,9 km/h (3 Bft) SW 231 0 min 0,000 mm 0,0 UV-I 0 W/m 8,1 C 4,2 C 22,5 km/h (4 Bft) 100,00 %
20.05.2016 04:09 9,5 C 91 % 1017,1 hPa 0,0 l/m 12,2 km/h (2 Bft) SW 235 0 min 0,000 mm 0,0 UV-I 0 W/m 8,1 C 5,8 C 16,1 km/h (3 Bft) 100,00 %
20.05.2016 04:10 9,5 C 91 % 1017,1 hPa 0,0 l/m 16,3 km/h (3 Bft) S 175 0 min 0,000 mm 0,0 UV-I 0 W/m 8,1 C 4,0 C 20,9 km/h (4 Bft) 100,00 %
20.05.2016 04:11 9,5 C 91 % 1017,1 hPa 0,0 l/m 17,6 km/h (3 Bft) SW 236 0 min 0,000 mm 0,0 UV-I 0 W/m 8,1 C 3,5 C 22,5 km/h (4 Bft) 100,00 %
20.05.2016 04:12 9,5 C 91 % 1017,1 hPa 0,0 l/m 15,4 km/h (3 Bft) S 179 0 min 0,000 mm 0,0 UV-I 0 W/m 8,1 C 4,4 C 20,9 km/h (4 Bft) 100,00 %
20.05.2016 04:13 9,5 C 91 % 1017,1 hPa 0,0 l/m 20,4 km/h (4 Bft) W-SW 243 0 min 0,000 mm 0,0 UV-I 0 W/m 8,1 C 2,5 C 29,0 km/h (5 Bft) 100,00 %
20.05.2016 04:14 9,5 C 91 % 1017,2 hPa 0,0 l/m 13,9 km/h (3 Bft) S 180 0 min 0,000 mm 0,0 UV-I 0 W/m 8,1 C 5,0 C 20,9 km/h (4 Bft) 100,00 %
20.05.2016 04:15 9,6 C 91 % 1017,1 hPa 0,0 l/m 14,4 km/h (3 Bft) S-SW 202 0 min 0,000 mm 0,0 UV-I 0 W/m 8,2 C 4,9 C 20,9 km/h (4 Bft) 100,00 %
20.05.2016 04:16 9,5 C 91 % 1017,1 hPa 0,0 l/m 12,4 km/h (3 Bft) SW 217 0 min 0,000 mm 0,0 UV-I 0 W/m 8,1 C 5,7 C 19,3 km/h (3 Bft) 100,00 %
20.05.2016 04:17 9,6 C 91 % 1017,1 hPa 0,0 l/m 16,9 km/h (3 Bft) W 269 0 min 0,000 mm 0,0 UV-I 0 W/m 8,2 C 3,9 C 27,4 km/h (4 Bft) 100,00 %
20.05.2016 04:18 9,6 C 91 % 1017,1 hPa 0,0 l/m 18,3 km/h (3 Bft) SW 226 0 min 0,000 mm 0,0 UV-I 0 W/m 8,2 C 3,4 C 22,5 km/h (4 Bft) 100,00 %
20.05.2016 04:19 9,6 C 91 % 1017,1 hPa 0,0 l/m 14,1 km/h (3 Bft) W-SW 251 0 min 0,000 mm 0,0 UV-I 0 W/m 8,2 C 5,0 C 22,5 km/h (4 Bft) 100,00 %
20.05.2016 04:20 9,6 C 91 % 1017,1 hPa 0,0 l/m 13,3 km/h (3 Bft) SW 227 0 min 0,000 mm 0,0 UV-I 0 W/m 8,2 C 5,4 C 20,9 km/h (4 Bft) 100,00 %
20.05.2016 04:21 9,6 C 91 % 1017,2 hPa 0,0 l/m 15,3 km/h (3 Bft) SW 220 0 min 0,000 mm 0,0 UV-I 0 W/m 8,2 C 4,5 C 25,7 km/h (4 Bft) 100,00 %
20.05.2016 04:22 9,6 C 91 % 1017,2 hPa 0,0 l/m 13,3 km/h (3 Bft) SW 232 0 min 0,000 mm 0,0 UV-I 0 W/m 8,2 C 5,4 C 16,1 km/h (3 Bft) 100,00 %
20.05.2016 04:23 9,6 C 91 % 1017,2 hPa 0,0 l/m 16,9 km/h (3 Bft) SW 229 0 min 0,000 mm 0,0 UV-I 0 W/m 8,2 C 3,9 C 24,1 km/h (4 Bft) 100,00 %
20.05.2016 04:24 9,6 C 91 % 1017,3 hPa 0,0 l/m 13,4 km/h (3 Bft) S-SW 199 0 min 0,000 mm 0,0 UV-I 0 W/m 8,2 C 5,4 C 19,3 km/h (3 Bft) 96,55 %
20.05.2016 04:25 9,6 C 91 % 1017,2 hPa 0,0 l/m 20,2 km/h (4 Bft) SW 236 0 min 0,000 mm 0,0 UV-I 0 W/m 8,2 C 2,7 C 25,7 km/h (4 Bft) 100,00 %
20.05.2016 04:26 9,6 C 91 % 1017,3 hPa 0,0 l/m 15,4 km/h (3 Bft) SW 231 0 min 0,000 mm 0,0 UV-I 0 W/m 8,2 C 4,5 C 19,3 km/h (3 Bft) 100,00 %
20.05.2016 04:27 9,6 C 91 % 1017,3 hPa 0,0 l/m 19,3 km/h (3 Bft) W-SW 250 0 min 0,000 mm 0,0 UV-I 0 W/m 8,2 C 3,0 C 25,7 km/h (4 Bft) 100,00 %
20.05.2016 04:28 9,6 C 91 % 1017,3 hPa 0,0 l/m 14,8 km/h (3 Bft) S-SW 200 0 min 0,000 mm 0,0 UV-I 0 W/m 8,2 C 4,7 C 22,5 km/h (4 Bft) 96,15 %
20.05.2016 04:29 9,6 C 91 % 1017,2 hPa 0,0 l/m 15,7 km/h (3 Bft) S-SW 208 0 min 0,000 mm 0,0 UV-I 0 W/m 8,2 C 4,4 C 22,5 km/h (4 Bft) 100,00 %
20.05.2016 04:30 9,6 C 91 % 1017,2 hPa 0,0 l/m 23,9 km/h (4 Bft) SW 219 0 min 0,000 mm 0,0 UV-I 0 W/m 8,2 C 1,6 C 29,0 km/h (5 Bft) 100,00 %
20.05.2016 04:31 9,6 C 91 % 1017,3 hPa 0,0 l/m 15,3 km/h (3 Bft) W-SW 251 0 min 0,000 mm 0,0 UV-I 0 W/m 8,2 C 4,5 C 20,9 km/h (4 Bft) 100,00 %
20.05.2016 04:32 9,6 C 91 % 1017,3 hPa 0,0 l/m 16,6 km/h (3 Bft) SW 217 0 min 0,000 mm 0,0 UV-I 0 W/m 8,2 C 4,0 C 24,1 km/h (4 Bft) 100,00 %
20.05.2016 04:33 9,6 C 91 % 1017,3 hPa 0,0 l/m 13,7 km/h (3 Bft) S-SW 209 0 min 0,000 mm 0,0 UV-I 0 W/m 8,2 C 5,2 C 19,3 km/h (3 Bft) 100,00 %
20.05.2016 04:34 9,6 C 91 % 1017,3 hPa 0,0 l/m 17,0 km/h (3 Bft) SW 236 0 min 0,000 mm 0,0 UV-I 0 W/m 8,2 C 3,8 C 25,7 km/h (4 Bft) 100,00 %
20.05.2016 04:35 9,6 C 91 % 1017,3 hPa 0,0 l/m 13,5 km/h (3 Bft) SW 232 0 min 0,000 mm 0,0 UV-I 0 W/m 8,2 C 5,3 C 20,9 km/h (4 Bft) 95,65 %
20.05.2016 04:36 9,6 C 91 % 1017,3 hPa 0,0 l/m 17,8 km/h (3 Bft) S 182 0 min 0,000 mm 0,0 UV-I 0 W/m 8,2 C 3,5 C 22,5 km/h (4 Bft) 100,00 %
20.05.2016 04:37 9,6 C 91 % 1017,3 hPa 0,0 l/m 18,6 km/h (3 Bft) SW 233 0 min 0,000 mm 0,0 UV-I 0 W/m 8,2 C 3,2 C 24,1 km/h (4 Bft) 100,00 %
20.05.2016 04:38 9,6 C 91 % 1017,3 hPa 0,0 l/m 14,5 km/h (3 Bft) SW 236 0 min 0,000 mm 0,0 UV-I 0 W/m 8,2 C 4,9 C 19,3 km/h (3 Bft) 96,67 %
20.05.2016 04:39 9,6 C 91 % 1017,3 hPa 0,0 l/m 16,3 km/h (3 Bft) SW 231 0 min 0,000 mm 0,0 UV-I 0 W/m 8,2 C 4,1 C 24,1 km/h (4 Bft) 100,00 %
20.05.2016 04:40 9,6 C 91 % 1017,3 hPa 0,0 l/m 17,2 km/h (3 Bft) SW 229 0 min 0,000 mm 0,0 UV-I 0 W/m 8,2 C 3,8 C 24,1 km/h (4 Bft) 100,00 %
20.05.2016 04:41 9,6 C 91 % 1017,4 hPa 0,0 l/m 16,7 km/h (3 Bft) SW 221 0 min 0,000 mm 0,0 UV-I 0 W/m 8,2 C 4,0 C 27,4 km/h (4 Bft) 100,00 %
20.05.2016 04:42 9,6 C 91 % 1017,3 hPa 0,0 l/m 22,2 km/h (4 Bft) W 273 0 min 0,000 mm 0,0 UV-I 0 W/m 8,2 C 2,1 C 29,0 km/h (5 Bft) 92,31 %
20.05.2016 04:43 9,7 C 91 % 1017,4 hPa 0,0 l/m 13,5 km/h (3 Bft) SW 222 0 min 0,000 mm 0,0 UV-I 0 W/m 8,3 C 5,4 C 20,9 km/h (4 Bft) 100,00 %
20.05.2016 04:44 9,7 C 91 % 1017,4 hPa 0,0 l/m 14,2 km/h (3 Bft) W-SW 255 0 min 0,000 mm 0,0 UV-I 0 W/m 8,3 C 5,1 C 20,9 km/h (4 Bft) 100,00 %
20.05.2016 04:45 9,7 C 91 % 1017,4 hPa 0,0 l/m 15,1 km/h (3 Bft) S-SW 209 0 min 0,000 mm 0,0 UV-I 0 W/m 8,3 C 4,7 C 19,3 km/h (3 Bft) 100,00 %
20.05.2016 04:46 9,7 C 91 % 1017,4 hPa 0,0 l/m 14,7 km/h (3 Bft) SW 225 0 min 0,000 mm 0,0 UV-I 0 W/m 8,3 C 4,9 C 24,1 km/h (4 Bft) 96,15 %
20.05.2016 04:47 9,7 C 91 % 1017,4 hPa 0,0 l/m 17,6 km/h (3 Bft) SW 221 0 min 0,000 mm 0,0 UV-I 0 W/m 8,3 C 3,7 C 22,5 km/h (4 Bft) 96,67 %
20.05.2016 04:48 9,7 C 91 % 1017,4 hPa 0,0 l/m 15,5 km/h (3 Bft) SW 227 0 min 0,000 mm 0,0 UV-I 0 W/m 8,3 C 4,6 C 22,5 km/h (4 Bft) 92,31 %
20.05.2016 04:49 9,7 C 91 % 1017,4 hPa 0,0 l/m 20,0 km/h (4 Bft) SW 228 0 min 0,000 mm 0,0 UV-I 0 W/m 8,3 C 2,9 C 25,7 km/h (4 Bft) 100,00 %
20.05.2016 04:50 9,7 C 91 % 1017,4 hPa 0,0 l/m 17,1 km/h (3 Bft) W-SW 245 0 min 0,000 mm 0,0 UV-I 0 W/m 8,3 C 3,9 C 24,1 km/h (4 Bft) 100,00 %
20.05.2016 04:51 9,7 C 91 % 1017,4 hPa 0,0 l/m 14,9 km/h (3 Bft) W 267 0 min 0,000 mm 0,0 UV-I 0 W/m 8,3 C 4,8 C 20,9 km/h (4 Bft) 96,30 %
20.05.2016 04:52 9,7 C 91 % 1017,4 hPa 0,0 l/m 19,5 km/h (3 Bft) SW 221 0 min 0,000 mm 0,0 UV-I 0 W/m 8,3 C 3,1 C 25,7 km/h (4 Bft) 100,00 %
20.05.2016 04:53 9,7 C 91 % 1017,4 hPa 0,0 l/m 18,2 km/h (3 Bft) SW 223 0 min 0,000 mm 0,0 UV-I 0 W/m 8,3 C 3,5 C 24,1 km/h (4 Bft) 100,00 %
20.05.2016 04:54 9,7 C 91 % 1017,4 hPa 0,0 l/m 14,7 km/h (3 Bft) SW 223 0 min 0,000 mm 0,0 UV-I 0 W/m 8,3 C 4,9 C 19,3 km/h (3 Bft) 91,30 %
20.05.2016 04:55 9,7 C 91 % 1017,4 hPa 0,0 l/m 15,8 km/h (3 Bft) SW 223 0 min 0,000 mm 0,0 UV-I 0 W/m 8,3 C 4,4 C 20,9 km/h (4 Bft) 93,33 %
20.05.2016 04:56 9,7 C 91 % 1017,4 hPa 0,0 l/m 11,5 km/h (2 Bft) W-SW 242 0 min 0,000 mm 0,0 UV-I 0 W/m 8,3 C 6,4 C 14,5 km/h (3 Bft) 100,00 %
20.05.2016 04:57 9,7 C 91 % 1017,4 hPa 0,0 l/m 17,2 km/h (3 Bft) SW 231 0 min 0,000 mm 0,0 UV-I 0 W/m 8,3 C 3,9 C 24,1 km/h (4 Bft) 100,00 %
20.05.2016 04:58 9,7 C 91 % 1017,4 hPa 0,0 l/m 16,0 km/h (3 Bft) W-SW 243 0 min 0,000 mm 0,0 UV-I 0 W/m 8,3 C 4,4 C 19,3 km/h (3 Bft) 100,00 %
20.05.2016 04:59 9,7 C 91 % 1017,5 hPa 0,0 l/m 20,8 km/h (4 Bft) W-SW 238 0 min 0,000 mm 0,0 UV-I 0 W/m 8,3 C 2,6 C 29,0 km/h (5 Bft) 100,00 %
20.05.2016 05:00 9,7 C 91 % 1017,5 hPa 0,0 l/m 15,9 km/h (3 Bft) SW 234 0 min 0,025 mm 0,0 UV-I 0 W/m 8,3 C 4,4 C 24,1 km/h (4 Bft) 100,00 %
20.05.2016 05:02 9,7 C 91 % 1017,5 hPa 0,0 l/m 16,2 km/h (3 Bft) W-SW 238 0 min 0,000 mm 0,0 UV-I 0 W/m 8,3 C 4,3 C 22,5 km/h (4 Bft) 100,00 %
20.05.2016 05:03 9,7 C 91 % 1017,5 hPa 0,0 l/m 18,0 km/h (3 Bft) SW 228 0 min 0,000 mm 0,0 UV-I 0 W/m 8,3 C 3,6 C 22,5 km/h (4 Bft) 100,00 %
20.05.2016 05:04 9,7 C 91 % 1017,5 hPa 0,0 l/m 21,7 km/h (4 Bft) SW 231 0 min 0,000 mm 0,0 UV-I 0 W/m 8,3 C 2,4 C 27,4 km/h (4 Bft) 100,00 %
20.05.2016 05:05 9,7 C 91 % 1017,5 hPa 0,0 l/m 16,4 km/h (3 Bft) SW 223 0 min 0,000 mm 0,0 UV-I 0 W/m 8,3 C 4,2 C 25,7 km/h (4 Bft) 100,00 %
20.05.2016 05:06 9,7 C 91 % 1017,6 hPa 0,0 l/m 21,6 km/h (4 Bft) SW 228 0 min 0,000 mm 0,0 UV-I 0 W/m 8,3 C 2,4 C 30,6 km/h (5 Bft) 100,00 %
20.05.2016 05:07 9,7 C 91 % 1017,6 hPa 0,0 l/m 18,0 km/h (3 Bft) W-SW 246 0 min 0,000 mm 0,0 UV-I 0 W/m 8,3 C 3,6 C 24,1 km/h (4 Bft) 95,65 %
20.05.2016 05:08 9,7 C 91 % 1017,6 hPa 0,0 l/m 17,6 km/h (3 Bft) SW 227 0 min 0,000 mm 0,0 UV-I 0 W/m 8,3 C 3,7 C 22,5 km/h (4 Bft) 100,00 %
20.05.2016 05:09 9,7 C 91 % 1017,6 hPa 0,0 l/m 20,7 km/h (4 Bft) SW 229 0 min 0,000 mm 0,0 UV-I 0 W/m 8,3 C 2,7 C 25,7 km/h (4 Bft) 100,00 %
20.05.2016 05:10 9,7 C 91 % 1017,6 hPa 0,0 l/m 16,6 km/h (3 Bft) SW 228 0 min 0,000 mm 0,0 UV-I 0 W/m 8,3 C 4,1 C 24,1 km/h (4 Bft) 100,00 %
20.05.2016 05:11 9,7 C 91 % 1017,6 hPa 0,0 l/m 11,6 km/h (2 Bft) W-SW 250 0 min 0,000 mm 0,0 UV-I 0 W/m 8,3 C 6,4 C 20,9 km/h (4 Bft) 100,00 %
20.05.2016 05:12 9,7 C 91 % 1017,6 hPa 0,0 l/m 21,9 km/h (4 Bft) SW 226 0 min 0,000 mm 0,0 UV-I 0 W/m 8,3 C 2,3 C 38,6 km/h (5 Bft) 100,00 %
20.05.2016 05:13 9,7 C 91 % 1017,6 hPa 0,0 l/m 23,3 km/h (4 Bft) W-SW 237 0 min 0,000 mm 0,0 UV-I 0 W/m 8,3 C 1,9 C 30,6 km/h (5 Bft) 100,00 %
20.05.2016 05:14 9,7 C 90 % 1017,6 hPa 0,0 l/m 19,3 km/h (3 Bft) SW 231 0 min 0,000 mm 0,0 UV-I 0 W/m 8,1 C 3,1 C 25,7 km/h (4 Bft) 100,00 %
20.05.2016 05:15 9,7 C 91 % 1017,6 hPa 0,0 l/m 15,2 km/h (3 Bft) SW 228 0 min 0,000 mm 0,0 UV-I 0 W/m 8,3 C 4,7 C 22,5 km/h (4 Bft) 100,00 %
20.05.2016 05:16 9,7 C 91 % 1017,6 hPa 0,0 l/m 18,5 km/h (3 Bft) W-SW 247 0 min 0,000 mm 0,0 UV-I 0 W/m 8,3 C 3,4 C 25,7 km/h (4 Bft) 100,00 %
20.05.2016 05:17 9,7 C 91 % 1017,6 hPa 0,0 l/m 15,8 km/h (3 Bft) SW 222 0 min 0,000 mm 0,0 UV-I 0 W/m 8,3 C 4,4 C 25,7 km/h (4 Bft) 100,00 %
20.05.2016 05:18 9,7 C 91 % 1017,6 hPa 0,0 l/m 16,7 km/h (3 Bft) SW 235 0 min 0,000 mm 0,0 UV-I 0 W/m 8,3 C 4,1 C 24,1 km/h (4 Bft) 100,00 %
20.05.2016 05:19 9,7 C 91 % 1017,7 hPa 0,0 l/m 15,2 km/h (3 Bft) W 270 0 min 0,000 mm 0,0 UV-I 0 W/m 8,3 C 4,7 C 22,5 km/h (4 Bft) 100,00 %
20.05.2016 05:20 9,7 C 91 % 1017,7 hPa 0,0 l/m 16,2 km/h (3 Bft) SW 225 0 min 0,000 mm 0,0 UV-I 0 W/m 8,3 C 4,3 C 22,5 km/h (4 Bft) 100,00 %
20.05.2016 05:21 9,7 C 91 % 1017,7 hPa 0,0 l/m 19,5 km/h (3 Bft) W-SW 244 0 min 0,000 mm 0,0 UV-I 0 W/m 8,3 C 3,1 C 25,7 km/h (4 Bft) 100,00 %
20.05.2016 05:22 9,7 C 91 % 1017,7 hPa 0,0 l/m 19,2 km/h (3 Bft) W-SW 237 0 min 0,000 mm 0,0 UV-I 0 W/m 8,3 C 3,2 C 30,6 km/h (5 Bft) 95,65 %
20.05.2016 05:23 9,7 C 91 % 1017,7 hPa 0,0 l/m 18,3 km/h (3 Bft) W-SW 241 0 min 0,000 mm 0,0 UV-I 0 W/m 8,3 C 3,5 C 22,5 km/h (4 Bft) 95,83 %
20.05.2016 05:24 9,7 C 91 % 1017,7 hPa 0,0 l/m 17,8 km/h (3 Bft) W-SW 238 0 min 0,000 mm 0,0 UV-I 0 W/m 8,3 C 3,7 C 25,7 km/h (4 Bft) 100,00 %
20.05.2016 05:25 9,7 C 91 % 1017,8 hPa 0,0 l/m 17,2 km/h (3 Bft) W 261 0 min 0,000 mm 0,0 UV-I 0 W/m 8,3 C 3,9 C 24,1 km/h (4 Bft) 91,67 %
20.05.2016 05:26 9,7 C 91 % 1017,8 hPa 0,0 l/m 15,4 km/h (3 Bft) S-SW 207 0 min 0,000 mm 0,0 UV-I 0 W/m 8,3 C 4,6 C 20,9 km/h (4 Bft) 100,00 %
20.05.2016 05:27 9,7 C 91 % 1017,8 hPa 0,0 l/m 16,6 km/h (3 Bft) W-SW 246 0 min 0,000 mm 0,0 UV-I 0 W/m 8,3 C 4,1 C 24,1 km/h (4 Bft) 96,30 %
20.05.2016 05:28 9,7 C 91 % 1017,8 hPa 0,0 l/m 21,2 km/h (4 Bft) SW 231 0 min 0,000 mm 0,0 UV-I 0 W/m 8,3 C 2,5 C 29,0 km/h (5 Bft) 96,15 %
20.05.2016 05:29 9,7 C 91 % 1017,8 hPa 0,0 l/m 15,3 km/h (3 Bft) SW 225 0 min 0,000 mm 0,0 UV-I 0 W/m 8,3 C 4,6 C 20,9 km/h (4 Bft) 100,00 %
20.05.2016 05:30 9,7 C 91 % 1017,9 hPa 0,0 l/m 14,3 km/h (3 Bft) SW 225 0 min 0,000 mm 0,0 UV-I 0 W/m 8,3 C 5,1 C 22,5 km/h (4 Bft) 96,15 %
20.05.2016 05:31 9,7 C 91 % 1017,9 hPa 0,0 l/m 13,3 km/h (3 Bft) S-SW 213 0 min 0,000 mm 0,0 UV-I 0 W/m 8,3 C 5,5 C 20,9 km/h (4 Bft) 95,83 %
20.05.2016 05:32 9,7 C 91 % 1017,8 hPa 0,0 l/m 18,0 km/h (3 Bft) SW 219 0 min 0,000 mm 0,0 UV-I 0 W/m 8,3 C 3,6 C 22,5 km/h (4 Bft) 95,65 %
20.05.2016 05:33 9,7 C 91 % 1017,8 hPa 0,0 l/m 16,7 km/h (3 Bft) S-SW 205 0 min 0,000 mm 0,0 UV-I 0 W/m 8,3 C 4,1 C 24,1 km/h (4 Bft) 100,00 %
20.05.2016 05:34 9,7 C 91 % 1017,8 hPa 0,0 l/m 13,9 km/h (3 Bft) SW 217 0 min 0,000 mm 0,0 UV-I 0 W/m 8,3 C 5,3 C 16,1 km/h (3 Bft) 96,55 %
20.05.2016 05:35 9,7 C 91 % 1017,9 hPa 0,0 l/m 18,6 km/h (3 Bft) W-SW 251 0 min 0,000 mm 0,0 UV-I 0 W/m 8,3 C 3,4 C 24,1 km/h (4 Bft) 95,83 %
20.05.2016 05:36 9,7 C 91 % 1017,9 hPa 0,0 l/m 16,6 km/h (3 Bft) SW 235 0 min 0,000 mm 0,0 UV-I 0 W/m 8,3 C 4,1 C 25,7 km/h (4 Bft) 100,00 %
20.05.2016 05:37 9,6 C 91 % 1017,9 hPa 0,0 l/m 13,9 km/h (3 Bft) W 264 0 min 0,000 mm 0,0 UV-I 0 W/m 8,2 C 5,1 C 19,3 km/h (3 Bft) 95,83 %
20.05.2016 05:38 9,7 C 91 % 1017,9 hPa 0,0 l/m 16,1 km/h (3 Bft) S-SW 200 0 min 0,000 mm 0,0 UV-I 0 W/m 8,3 C 4,3 C 24,1 km/h (4 Bft) 92,86 %
20.05.2016 05:39 9,6 C 91 % 1017,8 hPa 0,0 l/m 16,9 km/h (3 Bft) SW 232 0 min 0,000 mm 0,0 UV-I 0 W/m 8,2 C 3,9 C 22,5 km/h (4 Bft) 96,30 %
20.05.2016 05:40 9,6 C 91 % 1017,9 hPa 0,0 l/m 16,9 km/h (3 Bft) W 270 0 min 0,000 mm 0,0 UV-I 0 W/m 8,2 C 3,9 C 22,5 km/h (4 Bft) 100,00 %
20.05.2016 05:41 9,6 C 91 % 1017,8 hPa 0,0 l/m 17,4 km/h (3 Bft) S-SW 197 0 min 0,000 mm 0,0 UV-I 0 W/m 8,2 C 3,7 C 24,1 km/h (4 Bft) 93,33 %
20.05.2016 05:42 9,6 C 91 % 1017,9 hPa 0,0 l/m 17,0 km/h (3 Bft) SW 224 0 min 0,000 mm 0,0 UV-I 1 W/m 8,2 C 3,8 C 25,7 km/h (4 Bft) 100,00 %
20.05.2016 05:43 9,6 C 92 % 1017,9 hPa 0,0 l/m 19,0 km/h (3 Bft) W-SW 248 0 min 0,000 mm 0,0 UV-I 5 W/m 8,4 C 3,1 C 24,1 km/h (4 Bft) 95,65 %
20.05.2016 05:44 9,6 C 92 % 1017,9 hPa 0,0 l/m 17,9 km/h (3 Bft) W-SW 249 0 min 0,000 mm 0,0 UV-I 5 W/m 8,4 C 3,5 C 22,5 km/h (4 Bft) 96,55 %
20.05.2016 05:45 9,6 C 92 % 1017,9 hPa 0,0 l/m 14,6 km/h (3 Bft) SW 219 0 min 0,000 mm 0,0 UV-I 5 W/m 8,4 C 4,8 C 22,5 km/h (4 Bft) 100,00 %
20.05.2016 05:46 9,6 C 92 % 1017,9 hPa 0,0 l/m 19,9 km/h (4 Bft) W 261 0 min 0,000 mm 0,0 UV-I 5 W/m 8,4 C 2,8 C 24,1 km/h (4 Bft) 100,00 %
20.05.2016 05:47 9,6 C 92 % 1017,9 hPa 0,2 l/m 14,9 km/h (3 Bft) SW 230 0 min 0,000 mm 0,0 UV-I 5 W/m 8,4 C 4,7 C 20,9 km/h (4 Bft) 96,15 %
20.05.2016 05:48 9,6 C 92 % 1018,0 hPa 0,0 l/m 17,7 km/h (3 Bft) W 267 0 min 0,000 mm 0,0 UV-I 5 W/m 8,4 C 3,6 C 24,1 km/h (4 Bft) 96,67 %
20.05.2016 05:49 9,6 C 92 % 1018,0 hPa 0,0 l/m 14,1 km/h (3 Bft) W 266 0 min 0,000 mm 0,0 UV-I 5 W/m 8,4 C 5,0 C 17,7 km/h (3 Bft) 100,00 %
20.05.2016 05:50 9,6 C 92 % 1018,0 hPa 0,0 l/m 17,7 km/h (3 Bft) W-SW 252 0 min 0,000 mm 0,0 UV-I 5 W/m 8,4 C 3,6 C 27,4 km/h (4 Bft) 95,83 %
20.05.2016 05:51 9,6 C 92 % 1018,0 hPa 0,0 l/m 14,6 km/h (3 Bft) W-SW 247 0 min 0,000 mm 0,0 UV-I 5 W/m 8,4 C 4,8 C 20,9 km/h (4 Bft) 91,30 %
20.05.2016 05:52 9,6 C 92 % 1018,0 hPa 0,0 l/m 20,1 km/h (4 Bft) S-SW 213 0 min 0,000 mm 0,0 UV-I 5 W/m 8,4 C 2,7 C 25,7 km/h (4 Bft) 91,67 %
20.05.2016 05:53 9,6 C 92 % 1018,0 hPa 0,0 l/m 18,7 km/h (3 Bft) W-SW 241 0 min 0,000 mm 0,0 UV-I 5 W/m 8,4 C 3,2 C 25,7 km/h (4 Bft) 100,00 %
20.05.2016 05:54 9,6 C 92 % 1018,0 hPa 0,0 l/m 19,9 km/h (4 Bft) W 272 0 min 0,000 mm 0,0 UV-I 5 W/m 8,4 C 2,8 C 25,7 km/h (4 Bft) 96,30 %
20.05.2016 05:55 9,6 C 92 % 1018,0 hPa 0,0 l/m 19,3 km/h (3 Bft) W-SW 249 0 min 0,000 mm 0,0 UV-I 5 W/m 8,4 C 3,0 C 22,5 km/h (4 Bft) 95,65 %
20.05.2016 05:56 9,6 C 92 % 1017,9 hPa 0,2 l/m 19,3 km/h (3 Bft) SW 230 0 min 0,000 mm 0,0 UV-I 5 W/m 8,4 C 3,0 C 30,6 km/h (5 Bft) 100,00 %
20.05.2016 05:57 9,6 C 92 % 1018,0 hPa 0,0 l/m 17,2 km/h (3 Bft) W-SW 250 0 min 0,000 mm 0,0 UV-I 5 W/m 8,4 C 3,8 C 27,4 km/h (4 Bft) 100,00 %
20.05.2016 05:58 9,6 C 92 % 1018,0 hPa 0,0 l/m 18,5 km/h (3 Bft) W-SW 244 0 min 0,000 mm 0,0 UV-I 5 W/m 8,4 C 3,3 C 25,7 km/h (4 Bft) 96,30 %
20.05.2016 05:59 9,6 C 92 % 1018,0 hPa 0,0 l/m 19,6 km/h (3 Bft) W-SW 249 0 min 0,000 mm 0,0 UV-I 5 W/m 8,4 C 2,9 C 27,4 km/h (4 Bft) 100,00 %
20.05.2016 06:00 9,6 C 92 % 1018,0 hPa 0,0 l/m 15,9 km/h (3 Bft) SW 232 0 min 0,025 mm 0,0 UV-I 7 W/m 8,4 C 4,3 C 24,1 km/h (4 Bft) 96,30 %
20.05.2016 06:02 9,6 C 92 % 1017,9 hPa 0,0 l/m 20,0 km/h (4 Bft) SW 231 0 min 0,000 mm 0,0 UV-I 7 W/m 8,4 C 2,8 C 27,4 km/h (4 Bft) 100,00 %
20.05.2016 06:03 9,6 C 92 % 1018,0 hPa 0,0 l/m 17,0 km/h (3 Bft) W 274 0 min 0,000 mm 0,0 UV-I 9 W/m 8,4 C 3,8 C 22,5 km/h (4 Bft) 100,00 %
20.05.2016 06:04 9,6 C 92 % 1018,0 hPa 0,0 l/m 18,4 km/h (3 Bft) W-SW 252 0 min 0,000 mm 0,0 UV-I 9 W/m 8,4 C 3,3 C 24,1 km/h (4 Bft) 95,83 %
20.05.2016 06:05 9,6 C 92 % 1018,0 hPa 0,0 l/m 16,8 km/h (3 Bft) W 259 0 min 0,000 mm 0,0 UV-I 9 W/m 8,4 C 3,9 C 24,1 km/h (4 Bft) 93,33 %
20.05.2016 06:06 9,6 C 92 % 1018,0 hPa 0,0 l/m 14,3 km/h (3 Bft) SW 223 0 min 0,000 mm 0,0 UV-I 9 W/m 8,4 C 5,0 C 20,9 km/h (4 Bft) 100,00 %
20.05.2016 06:07 9,6 C 92 % 1018,0 hPa 0,0 l/m 13,7 km/h (3 Bft) W-SW 246 0 min 0,000 mm 0,0 UV-I 9 W/m 8,4 C 5,2 C 19,3 km/h (3 Bft) 100,00 %
20.05.2016 06:08 9,6 C 92 % 1018,0 hPa 0,0 l/m 17,3 km/h (3 Bft) SW 214 0 min 0,000 mm 0,0 UV-I 9 W/m 8,4 C 3,7 C 30,6 km/h (5 Bft) 100,00 %
20.05.2016 06:09 9,6 C 93 % 1018,0 hPa 0,0 l/m 12,5 km/h (3 Bft) W-SW 256 0 min 0,000 mm 0,0 UV-I 9 W/m 8,5 C 5,8 C 17,7 km/h (3 Bft) 95,83 %
20.05.2016 06:10 9,6 C 93 % 1018,0 hPa 0,0 l/m 14,4 km/h (3 Bft) W-SW 240 0 min 0,000 mm 0,0 UV-I 9 W/m 8,5 C 4,9 C 17,7 km/h (3 Bft) 100,00 %
20.05.2016 06:11 9,5 C 93 % 1018,0 hPa 0,0 l/m 16,8 km/h (3 Bft) W-SW 258 0 min 0,000 mm 0,0 UV-I 9 W/m 8,4 C 3,8 C 24,1 km/h (4 Bft) 100,00 %
20.05.2016 06:12 9,5 C 92 % 1018,1 hPa 0,0 l/m 20,7 km/h (4 Bft) W-SW 249 0 min 0,000 mm 0,0 UV-I 9 W/m 8,3 C 2,4 C 30,6 km/h (5 Bft) 100,00 %
20.05.2016 06:13 9,5 C 92 % 1018,1 hPa 0,0 l/m 17,9 km/h (3 Bft) SW 222 0 min 0,000 mm 0,0 UV-I 9 W/m 8,3 C 3,4 C 27,4 km/h (4 Bft) 100,00 %
20.05.2016 06:14 9,5 C 92 % 1018,2 hPa 0,0 l/m 17,3 km/h (3 Bft) W-SW 245 0 min 0,000 mm 0,0 UV-I 9 W/m 8,3 C 3,6 C 22,5 km/h (4 Bft) 100,00 %
20.05.2016 06:15 9,5 C 92 % 1018,1 hPa 0,0 l/m 16,5 km/h (3 Bft) S-SW 211 0 min 0,000 mm 0,0 UV-I 10 W/m 8,3 C 3,9 C 22,5 km/h (4 Bft) 100,00 %
20.05.2016 06:16 9,5 C 92 % 1018,2 hPa 0,0 l/m 16,2 km/h (3 Bft) W 269 0 min 0,000 mm 0,0 UV-I 11 W/m 8,3 C 4,0 C 29,0 km/h (5 Bft) 100,00 %
20.05.2016 06:17 9,5 C 92 % 1018,2 hPa 0,0 l/m 13,7 km/h (3 Bft) S-SW 213 0 min 0,000 mm 0,0 UV-I 11 W/m 8,3 C 5,1 C 22,5 km/h (4 Bft) 100,00 %
20.05.2016 06:18 9,6 C 93 % 1018,1 hPa 0,0 l/m 13,5 km/h (3 Bft) SW 234 0 min 0,000 mm 0,0 UV-I 11 W/m 8,5 C 5,3 C 24,1 km/h (4 Bft) 100,00 %
20.05.2016 06:19 9,6 C 93 % 1018,1 hPa 0,0 l/m 19,0 km/h (3 Bft) SW 232 0 min 0,000 mm 0,0 UV-I 11 W/m 8,5 C 3,1 C 27,4 km/h (4 Bft) 100,00 %
20.05.2016 06:20 9,6 C 93 % 1018,1 hPa 0,0 l/m 18,7 km/h (3 Bft) W-SW 242 0 min 0,000 mm 0,0 UV-I 11 W/m 8,5 C 3,2 C 24,1 km/h (4 Bft) 100,00 %
20.05.2016 06:21 9,6 C 93 % 1018,1 hPa 0,0 l/m 16,4 km/h (3 Bft) W-SW 238 0 min 0,000 mm 0,0 UV-I 12 W/m 8,5 C 4,1 C 24,1 km/h (4 Bft) 100,00 %
20.05.2016 06:22 9,6 C 92 % 1018,2 hPa 0,0 l/m 17,1 km/h (3 Bft) W-SW 257 0 min 0,000 mm 0,0 UV-I 12 W/m 8,4 C 3,8 C 20,9 km/h (4 Bft) 96,88 %
20.05.2016 06:23 9,6 C 92 % 1018,2 hPa 0,0 l/m 16,6 km/h (3 Bft) SW 225 0 min 0,000 mm 0,0 UV-I 12 W/m 8,4 C 4,0 C 19,3 km/h (3 Bft) 100,00 %
20.05.2016 06:24 9,6 C 92 % 1018,2 hPa 0,0 l/m 19,2 km/h (3 Bft) W 262 0 min 0,000 mm 0,0 UV-I 12 W/m 8,4 C 3,0 C 22,5 km/h (4 Bft) 100,00 %
20.05.2016 06:25 9,6 C 92 % 1018,2 hPa 0,0 l/m 20,9 km/h (4 Bft) SW 221 0 min 0,000 mm 0,0 UV-I 12 W/m 8,4 C 2,5 C 25,7 km/h (4 Bft) 98,63 %
20.05.2016 06:26 9,6 C 92 % 1018,2 hPa 0,0 l/m 15,1 km/h (3 Bft) SW 220 0 min 0,000 mm 0,0 UV-I 12 W/m 8,4 C 4,6 C 20,9 km/h (4 Bft) 100,00 %
20.05.2016 06:27 9,6 C 92 % 1018,2 hPa 0,0 l/m 13,3 km/h (3 Bft) W-SW 244 0 min 0,000 mm 0,0 UV-I 12 W/m 8,4 C 5,4 C 19,3 km/h (3 Bft) 100,00 %
20.05.2016 06:28 9,6 C 92 % 1018,2 hPa 0,0 l/m 12,6 km/h (3 Bft) W-SW 247 0 min 0,000 mm 0,0 UV-I 12 W/m 8,4 C 5,8 C 20,9 km/h (4 Bft) 96,30 %
20.05.2016 06:29 9,6 C 92 % 1018,2 hPa 0,0 l/m 16,1 km/h (3 Bft) W-SW 240 0 min 0,000 mm 0,0 UV-I 13 W/m 8,4 C 4,2 C 22,5 km/h (4 Bft) 100,00 %
20.05.2016 06:30 9,6 C 92 % 1018,2 hPa 0,0 l/m 14,2 km/h (3 Bft) W 266 0 min 0,000 mm 0,0 UV-I 14 W/m 8,4 C 5,0 C 17,7 km/h (3 Bft) 100,00 %
20.05.2016 06:31 9,6 C 92 % 1018,2 hPa 0,0 l/m 18,0 km/h (3 Bft) S-SW 205 0 min 0,000 mm 0,0 UV-I 14 W/m 8,4 C 3,5 C 27,4 km/h (4 Bft) 100,00 %
20.05.2016 06:32 9,6 C 93 % 1018,2 hPa 0,0 l/m 17,7 km/h (3 Bft) W 262 0 min 0,000 mm 0,0 UV-I 16 W/m 8,5 C 3,6 C 22,5 km/h (4 Bft) 100,00 %
20.05.2016 06:33 9,6 C 93 % 1018,2 hPa 0,0 l/m 17,1 km/h (3 Bft) W 275 0 min 0,000 mm 0,0 UV-I 16 W/m 8,5 C 3,8 C 22,5 km/h (4 Bft) 100,00 %
20.05.2016 06:34 9,6 C 93 % 1018,2 hPa 0,0 l/m 16,9 km/h (3 Bft) W-SW 240 0 min 0,000 mm 0,0 UV-I 18 W/m 8,5 C 3,9 C 24,1 km/h (4 Bft) 100,00 %
20.05.2016 06:35 9,6 C 93 % 1018,2 hPa 0,0 l/m 14,4 km/h (3 Bft) SW 233 0 min 0,000 mm 0,0 UV-I 18 W/m 8,5 C 4,9 C 19,3 km/h (3 Bft) 95,65 %
20.05.2016 06:36 9,6 C 93 % 1018,2 hPa 0,0 l/m 13,4 km/h (3 Bft) SW 233 0 min 0,000 mm 0,0 UV-I 19 W/m 8,5 C 5,4 C 20,9 km/h (4 Bft) 100,00 %
20.05.2016 06:37 9,6 C 93 % 1018,2 hPa 0,0 l/m 12,4 km/h (3 Bft) SW 227 0 min 0,000 mm 0,0 UV-I 19 W/m 8,5 C 5,9 C 17,7 km/h (3 Bft) 100,00 %
20.05.2016 06:38 9,6 C 93 % 1018,2 hPa 0,0 l/m 13,9 km/h (3 Bft) W-SW 240 0 min 0,000 mm 0,0 UV-I 20 W/m 8,5 C 5,1 C 17,7 km/h (3 Bft) 100,00 %
20.05.2016 06:39 9,6 C 93 % 1018,3 hPa 0,0 l/m 13,5 km/h (3 Bft) W-SW 247 0 min 0,000 mm 0,0 UV-I 21 W/m 8,5 C 5,3 C 19,3 km/h (3 Bft) 95,65 %
20.05.2016 06:40 9,6 C 93 % 1018,2 hPa 0,0 l/m 13,8 km/h (3 Bft) W-SW 258 0 min 0,000 mm 0,0 UV-I 21 W/m 8,5 C 5,2 C 24,1 km/h (4 Bft) 100,00 %
20.05.2016 06:41 9,6 C 93 % 1018,2 hPa 0,0 l/m 18,5 km/h (3 Bft) SW 221 0 min 0,000 mm 0,0 UV-I 21 W/m 8,5 C 3,3 C 22,5 km/h (4 Bft) 100,00 %
20.05.2016 06:42 9,6 C 93 % 1018,2 hPa 0,0 l/m 13,3 km/h (3 Bft) SW 223 0 min 0,000 mm 0,0 UV-I 22 W/m 8,5 C 5,4 C 17,7 km/h (3 Bft) 100,00 %
20.05.2016 06:43 9,7 C 93 % 1018,3 hPa 0,0 l/m 13,6 km/h (3 Bft) W-SW 248 0 min 0,000 mm 0,0 UV-I 23 W/m 8,6 C 5,4 C 17,7 km/h (3 Bft) 100,00 %
20.05.2016 06:44 9,7 C 93 % 1018,3 hPa 0,0 l/m 19,5 km/h (3 Bft) S-SO 165 0 min 0,000 mm 0,0 UV-I 23 W/m 8,6 C 3,1 C 29,0 km/h (5 Bft) 100,00 %
20.05.2016 06:45 9,6 C 92 % 1018,3 hPa 0,0 l/m 14,7 km/h (3 Bft) SW 234 0 min 0,000 mm 0,0 UV-I 23 W/m 8,4 C 4,8 C 19,3 km/h (3 Bft) 100,00 %
20.05.2016 06:46 9,6 C 92 % 1018,3 hPa 0,0 l/m 15,9 km/h (3 Bft) W-SW 246 0 min 0,000 mm 0,0 UV-I 23 W/m 8,4 C 4,3 C 20,9 km/h (4 Bft) 100,00 %
20.05.2016 06:47 9,7 C 92 % 1018,3 hPa 0,0 l/m 15,9 km/h (3 Bft) SW 216 0 min 0,000 mm 0,0 UV-I 25 W/m 8,5 C 4,4 C 22,5 km/h (4 Bft) 100,00 %
20.05.2016 06:48 9,7 C 92 % 1018,3 hPa 0,0 l/m 19,8 km/h (3 Bft) SW 221 0 min 0,000 mm 0,0 UV-I 26 W/m 8,5 C 3,0 C 27,4 km/h (4 Bft) 100,00 %
20.05.2016 06:49 9,7 C 92 % 1018,3 hPa 0,0 l/m 12,1 km/h (2 Bft) S 184 0 min 0,000 mm 0,0 UV-I 27 W/m 8,5 C 6,1 C 19,3 km/h (3 Bft) 100,00 %
20.05.2016 06:50 9,7 C 92 % 1018,3 hPa 0,0 l/m 16,3 km/h (3 Bft) SW 221 0 min 0,000 mm 0,0 UV-I 30 W/m 8,5 C 4,2 C 24,1 km/h (4 Bft) 100,00 %
20.05.2016 06:51 9,7 C 92 % 1018,3 hPa 0,0 l/m 12,4 km/h (3 Bft) W 259 0 min 0,000 mm 0,0 UV-I 32 W/m 8,5 C 6,0 C 17,7 km/h (3 Bft) 96,30 %
20.05.2016 06:52 9,7 C 92 % 1018,3 hPa 0,0 l/m 17,7 km/h (3 Bft) W-SW 257 0 min 0,000 mm 0,0 UV-I 33 W/m 8,5 C 3,7 C 25,7 km/h (4 Bft) 100,00 %
20.05.2016 06:53 9,7 C 92 % 1018,4 hPa 0,0 l/m 21,4 km/h (4 Bft) SW 225 0 min 0,000 mm 0,0 UV-I 33 W/m 8,5 C 2,5 C 30,6 km/h (5 Bft) 100,00 %
20.05.2016 06:54 9,7 C 92 % 1018,4 hPa 0,0 l/m 12,4 km/h (3 Bft) SW 223 0 min 0,000 mm 0,0 UV-I 33 W/m 8,5 C 6,0 C 19,3 km/h (3 Bft) 100,00 %
20.05.2016 06:55 9,7 C 92 % 1018,4 hPa 0,0 l/m 15,3 km/h (3 Bft) S-SW 208 0 min 0,000 mm 0,0 UV-I 34 W/m 8,5 C 4,6 C 22,5 km/h (4 Bft) 100,00 %
20.05.2016 06:56 9,7 C 92 % 1018,4 hPa 0,0 l/m 17,1 km/h (3 Bft) W-SW 244 0 min 0,000 mm 0,0 UV-I 35 W/m 8,5 C 3,9 C 25,7 km/h (4 Bft) 100,00 %
20.05.2016 06:57 9,7 C 92 % 1018,4 hPa 0,0 l/m 13,7 km/h (3 Bft) SW 225 0 min 0,000 mm 0,0 UV-I 37 W/m 8,5 C 5,3 C 17,7 km/h (3 Bft) 93,33 %
20.05.2016 06:58 9,7 C 92 % 1018,5 hPa 0,0 l/m 13,1 km/h (3 Bft) SW 217 0 min 0,000 mm 0,0 UV-I 39 W/m 8,5 C 5,6 C 19,3 km/h (3 Bft) 96,15 %
20.05.2016 06:59 9,7 C 92 % 1018,4 hPa 0,0 l/m 13,4 km/h (3 Bft) S-SW 209 0 min 0,000 mm 0,0 UV-I 41 W/m 8,5 C 5,5 C 20,9 km/h (4 Bft) 100,00 %
20.05.2016 07:00 9,7 C 92 % 1018,4 hPa 0,0 l/m 20,9 km/h (4 Bft) S-SW 209 0 min 0,000 mm 0,0 UV-I 44 W/m 8,5 C 2,6 C 30,6 km/h (5 Bft) 93,33 %
20.05.2016 07:01 9,7 C 92 % 1018,4 hPa 0,0 l/m 17,3 km/h (3 Bft) W 264 0 min 0,026 mm 0,0 UV-I 49 W/m 8,5 C 3,9 C 22,5 km/h (4 Bft) 100,00 %
20.05.2016 07:02 9,8 C 92 % 1018,4 hPa 0,2 l/m 16,0 km/h (3 Bft) SW 225 0 min 0,000 mm 0,0 UV-I 53 W/m 8,6 C 4,5 C 25,7 km/h (4 Bft) 100,00 %
20.05.2016 07:03 9,8 C 92 % 1018,3 hPa 0,0 l/m 19,4 km/h (3 Bft) SW 216 0 min 0,000 mm 0,0 UV-I 56 W/m 8,6 C 3,2 C 25,7 km/h (4 Bft) 100,00 %
20.05.2016 07:04 9,8 C 92 % 1018,3 hPa 0,0 l/m 15,4 km/h (3 Bft) SW 227 0 min 0,000 mm 0,0 UV-I 56 W/m 8,6 C 4,7 C 22,5 km/h (4 Bft) 100,00 %
20.05.2016 07:05 9,8 C 92 % 1018,4 hPa 0,0 l/m 14,6 km/h (3 Bft) W-SW 238 0 min 0,000 mm 0,0 UV-I 55 W/m 8,6 C 5,1 C 19,3 km/h (3 Bft) 95,65 %
20.05.2016 07:06 9,8 C 92 % 1018,4 hPa 0,0 l/m 14,5 km/h (3 Bft) W 263 0 min 0,000 mm 0,0 UV-I 52 W/m 8,6 C 5,1 C 24,1 km/h (4 Bft) 100,00 %
20.05.2016 07:07 9,8 C 92 % 1018,4 hPa 0,0 l/m 15,8 km/h (3 Bft) W-SW 252 0 min 0,000 mm 0,0 UV-I 48 W/m 8,6 C 4,6 C 24,1 km/h (4 Bft) 100,00 %
20.05.2016 07:08 9,8 C 92 % 1018,4 hPa 0,0 l/m 17,7 km/h (3 Bft) W-SW 240 0 min 0,000 mm 0,0 UV-I 46 W/m 8,6 C 3,8 C 25,7 km/h (4 Bft) 100,00 %
20.05.2016 07:09 9,8 C 92 % 1018,4 hPa 0,0 l/m 16,9 km/h (3 Bft) W-SW 237 0 min 0,000 mm 0,0 UV-I 44 W/m 8,6 C 4,1 C 22,5 km/h (4 Bft) 92,86 %
20.05.2016 07:10 9,8 C 92 % 1018,5 hPa 0,0 l/m 14,4 km/h (3 Bft) W-SW 255 0 min 0,000 mm 0,0 UV-I 44 W/m 8,6 C 5,2 C 20,9 km/h (4 Bft) 100,00 %
20.05.2016 07:11 9,8 C 92 % 1018,4 hPa 0,0 l/m 10,4 km/h (2 Bft) SW 227 0 min 0,000 mm 0,0 UV-I 44 W/m 8,6 C 7,1 C 12,9 km/h (3 Bft) 100,00 %
20.05.2016 07:12 9,8 C 92 % 1018,5 hPa 0,0 l/m 18,4 km/h (3 Bft) W 266 0 min 0,000 mm 0,0 UV-I 45 W/m 8,6 C 3,6 C 25,7 km/h (4 Bft) 100,00 %
20.05.2016 07:13 9,8 C 92 % 1018,5 hPa 0,0 l/m 18,0 km/h (3 Bft) S-SW 210 0 min 0,000 mm 0,0 UV-I 47 W/m 8,6 C 3,7 C 22,5 km/h (4 Bft) 96,43 %
20.05.2016 07:14 9,8 C 92 % 1018,5 hPa 0,0 l/m 14,5 km/h (3 Bft) S-SW 213 0 min 0,000 mm 0,0 UV-I 48 W/m 8,6 C 5,1 C 19,3 km/h (3 Bft) 100,00 %
20.05.2016 07:15 9,8 C 92 % 1018,5 hPa 0,0 l/m 17,5 km/h (3 Bft) W-SW 239 0 min 0,000 mm 0,0 UV-I 49 W/m 8,6 C 3,9 C 22,5 km/h (4 Bft) 100,00 %
20.05.2016 07:16 9,8 C 92 % 1018,5 hPa 0,0 l/m 18,1 km/h (3 Bft) W-SW 244 0 min 0,000 mm 0,0 UV-I 47 W/m 8,6 C 3,7 C 25,7 km/h (4 Bft) 100,00 %
20.05.2016 07:17 9,8 C 92 % 1018,5 hPa 0,0 l/m 15,2 km/h (3 Bft) S-SW 195 0 min 0,000 mm 0,0 UV-I 47 W/m 8,6 C 4,8 C 22,5 km/h (4 Bft) 100,00 %
20.05.2016 07:18 9,8 C 92 % 1018,5 hPa 0,0 l/m 17,0 km/h (3 Bft) W-SW 251 0 min 0,000 mm 0,0 UV-I 47 W/m 8,6 C 4,1 C 22,5 km/h (4 Bft) 95,83 %
20.05.2016 07:19 9,8 C 92 % 1018,5 hPa 0,0 l/m 11,6 km/h (2 Bft) SW 234 0 min 0,000 mm 0,0 UV-I 45 W/m 8,6 C 6,5 C 20,9 km/h (4 Bft) 100,00 %
20.05.2016 07:20 9,8 C 92 % 1018,5 hPa 0,0 l/m 19,1 km/h (3 Bft) W-SW 240 0 min 0,000 mm 0,0 UV-I 42 W/m 8,6 C 3,3 C 27,4 km/h (4 Bft) 100,00 %
20.05.2016 07:21 9,8 C 92 % 1018,5 hPa 0,0 l/m 15,5 km/h (3 Bft) SW 229 0 min 0,000 mm 0,0 UV-I 42 W/m 8,6 C 4,7 C 20,9 km/h (4 Bft) 100,00 %
20.05.2016 07:22 9,9 C 92 % 1018,5 hPa 0,0 l/m 14,6 km/h (3 Bft) W-SW 257 0 min 0,000 mm 0,0 UV-I 41 W/m 8,7 C 5,2 C 20,9 km/h (4 Bft) 100,00 %
20.05.2016 07:23 9,9 C 92 % 1018,5 hPa 0,0 l/m 15,4 km/h (3 Bft) S 181 0 min 0,000 mm 0,0 UV-I 42 W/m 8,7 C 4,8 C 27,4 km/h (4 Bft) 100,00 %
20.05.2016 07:24 9,9 C 92 % 1018,5 hPa 0,0 l/m 18,8 km/h (3 Bft) SW 230 0 min 0,000 mm 0,0 UV-I 42 W/m 8,7 C 3,6 C 22,5 km/h (4 Bft) 100,00 %
20.05.2016 07:25 9,9 C 92 % 1018,5 hPa 0,0 l/m 19,9 km/h (4 Bft) S-SW 205 0 min 0,000 mm 0,0 UV-I 42 W/m 8,7 C 3,2 C 27,4 km/h (4 Bft) 97,62 %
20.05.2016 07:26 9,9 C 92 % 1018,5 hPa 0,0 l/m 17,1 km/h (3 Bft) SW 217 0 min 0,000 mm 0,0 UV-I 42 W/m 8,7 C 4,2 C 22,5 km/h (4 Bft) 100,00 %
20.05.2016 07:27 9,9 C 92 % 1018,5 hPa 0,0 l/m 14,0 km/h (3 Bft) SW 236 0 min 0,000 mm 0,0 UV-I 40 W/m 8,7 C 5,4 C 20,9 km/h (4 Bft) 98,80 %
20.05.2016 07:28 9,9 C 92 % 1018,5 hPa 0,0 l/m 13,6 km/h (3 Bft) SW 227 0 min 0,000 mm 0,0 UV-I 39 W/m 8,7 C 5,6 C 20,9 km/h (4 Bft) 95,45 %
20.05.2016 07:29 9,9 C 92 % 1018,6 hPa 0,0 l/m 17,4 km/h (3 Bft) SW 229 0 min 0,000 mm 0,0 UV-I 37 W/m 8,7 C 4,1 C 29,0 km/h (5 Bft) 100,00 %
20.05.2016 07:30 9,9 C 92 % 1018,6 hPa 0,0 l/m 22,4 km/h (4 Bft) S-SW 213 0 min 0,000 mm 0,0 UV-I 34 W/m 8,7 C 2,4 C 32,2 km/h (5 Bft) 92,86 %
20.05.2016 07:31 9,9 C 92 % 1018,6 hPa 0,0 l/m 21,9 km/h (4 Bft) SW 218 0 min 0,000 mm 0,0 UV-I 31 W/m 8,7 C 2,6 C 29,0 km/h (5 Bft) 96,30 %
20.05.2016 07:32 9,9 C 92 % 1018,5 hPa 0,0 l/m 19,1 km/h (3 Bft) W-SW 246 0 min 0,000 mm 0,0 UV-I 28 W/m 8,7 C 3,5 C 25,7 km/h (4 Bft) 96,15 %
20.05.2016 07:33 9,9 C 91 % 1018,6 hPa 0,0 l/m 16,0 km/h (3 Bft) SW 232 0 min 0,000 mm 0,0 UV-I 26 W/m 8,5 C 4,6 C 24,1 km/h (4 Bft) 95,83 %
20.05.2016 07:34 9,9 C 91 % 1018,6 hPa 0,0 l/m 14,6 km/h (3 Bft) SW 214 0 min 0,000 mm 0,0 UV-I 24 W/m 8,5 C 5,2 C 19,3 km/h (3 Bft) 96,15 %
20.05.2016 07:35 9,9 C 92 % 1018,6 hPa 0,0 l/m 12,5 km/h (3 Bft) W-SW 240 0 min 0,000 mm 0,0 UV-I 23 W/m 8,7 C 6,1 C 19,3 km/h (3 Bft) 100,00 %
20.05.2016 07:36 9,9 C 92 % 1018,6 hPa 0,0 l/m 16,0 km/h (3 Bft) W-SW 239 0 min 0,000 mm 0,0 UV-I 23 W/m 8,7 C 4,6 C 22,5 km/h (4 Bft) 95,65 %
20.05.2016 07:37 9,9 C 91 % 1018,6 hPa 0,0 l/m 18,2 km/h (3 Bft) SW 216 0 min 0,000 mm 0,0 UV-I 24 W/m 8,5 C 3,8 C 24,1 km/h (4 Bft) 100,00 %
20.05.2016 07:38 9,9 C 92 % 1018,6 hPa 0,0 l/m 20,4 km/h (4 Bft) W-SW 243 0 min 0,000 mm 0,0 UV-I 25 W/m 8,7 C 3,0 C 25,7 km/h (4 Bft) 95,83 %
20.05.2016 07:39 9,9 C 92 % 1018,6 hPa 0,0 l/m 13,1 km/h (3 Bft) SW 219 0 min 0,000 mm 0,0 UV-I 27 W/m 8,7 C 5,9 C 19,3 km/h (3 Bft) 92,31 %
20.05.2016 07:40 9,9 C 92 % 1018,6 hPa 0,0 l/m 15,5 km/h (3 Bft) SW 220 0 min 0,000 mm 0,0 UV-I 30 W/m 8,7 C 4,8 C 22,5 km/h (4 Bft) 100,00 %
20.05.2016 07:41 9,9 C 92 % 1018,6 hPa 0,0 l/m 13,5 km/h (3 Bft) W-SW 240 0 min 0,000 mm 0,0 UV-I 32 W/m 8,7 C 5,7 C 20,9 km/h (4 Bft) 91,67 %
20.05.2016 07:42 9,9 C 92 % 1018,7 hPa 0,0 l/m 17,2 km/h (3 Bft) S 182 0 min 0,000 mm 0,0 UV-I 34 W/m 8,7 C 4,1 C 19,3 km/h (3 Bft) 100,00 %
20.05.2016 07:43 9,9 C 92 % 1018,6 hPa 0,0 l/m 13,1 km/h (3 Bft) S-SW 208 0 min 0,000 mm 0,0 UV-I 36 W/m 8,7 C 5,9 C 19,3 km/h (3 Bft) 95,65 %
20.05.2016 07:44 9,9 C 92 % 1018,7 hPa 0,0 l/m 12,9 km/h (3 Bft) SW 222 0 min 0,000 mm 0,0 UV-I 39 W/m 8,7 C 6,0 C 20,9 km/h (4 Bft) 100,00 %
20.05.2016 07:45 9,9 C 92 % 1018,7 hPa 0,0 l/m 13,6 km/h (3 Bft) SW 223 0 min 0,000 mm 0,0 UV-I 39 W/m 8,7 C 5,6 C 17,7 km/h (3 Bft) 91,30 %
20.05.2016 07:46 9,9 C 92 % 1018,7 hPa 0,0 l/m 17,8 km/h (3 Bft) W-SW 239 0 min 0,000 mm 0,0 UV-I 40 W/m 8,7 C 3,9 C 30,6 km/h (5 Bft) 96,30 %
20.05.2016 07:47 9,9 C 92 % 1018,7 hPa 0,0 l/m 21,9 km/h (4 Bft) SW 235 0 min 0,000 mm 0,0 UV-I 43 W/m 8,7 C 2,6 C 30,6 km/h (5 Bft) 100,00 %
20.05.2016 07:48 9,9 C 91 % 1018,7 hPa 0,0 l/m 23,5 km/h (4 Bft) SW 219 0 min 0,000 mm 0,0 UV-I 47 W/m 8,5 C 2,1 C 30,6 km/h (5 Bft) 100,00 %
20.05.2016 07:49 9,9 C 91 % 1018,6 hPa 0,0 l/m 19,3 km/h (3 Bft) W 268 0 min 0,000 mm 0,0 UV-I 47 W/m 8,5 C 3,4 C 27,4 km/h (4 Bft) 92,31 %
20.05.2016 07:50 9,9 C 91 % 1018,6 hPa 0,0 l/m 18,5 km/h (3 Bft) S-SW 205 0 min 0,000 mm 0,0 UV-I 54 W/m 8,5 C 3,7 C 27,4 km/h (4 Bft) 96,30 %
20.05.2016 07:51 9,9 C 91 % 1018,6 hPa 0,0 l/m 22,0 km/h (4 Bft) W-SW 250 0 min 0,000 mm 0,0 UV-I 56 W/m 8,5 C 2,5 C 25,7 km/h (4 Bft) 100,00 %
20.05.2016 07:52 9,9 C 91 % 1018,7 hPa 0,0 l/m 17,4 km/h (3 Bft) SW 232 0 min 0,000 mm 0,0 UV-I 58 W/m 8,5 C 4,1 C 22,5 km/h (4 Bft) 91,67 %
20.05.2016 07:53 9,9 C 91 % 1018,7 hPa 0,0 l/m 20,6 km/h (4 Bft) W-SW 243 0 min 0,000 mm 0,0 UV-I 59 W/m 8,5 C 3,0 C 25,7 km/h (4 Bft) 100,00 %
20.05.2016 07:54 9,9 C 91 % 1018,7 hPa 0,0 l/m 18,7 km/h (3 Bft) S-SW 209 0 min 0,000 mm 0,0 UV-I 59 W/m 8,5 C 3,6 C 24,1 km/h (4 Bft) 93,33 %
20.05.2016 07:55 9,9 C 91 % 1018,7 hPa 0,0 l/m 16,2 km/h (3 Bft) SW 232 0 min 0,000 mm 0,0 UV-I 58 W/m 8,5 C 4,5 C 24,1 km/h (4 Bft) 100,00 %
20.05.2016 07:56 9,9 C 91 % 1018,7 hPa 0,0 l/m 20,4 km/h (4 Bft) W-SW 247 0 min 0,000 mm 0,0 UV-I 56 W/m 8,5 C 3,0 C 29,0 km/h (5 Bft) 96,15 %
20.05.2016 07:57 9,9 C 91 % 1018,7 hPa 0,0 l/m 17,6 km/h (3 Bft) W-SW 247 0 min 0,000 mm 0,0 UV-I 56 W/m 8,5 C 4,0 C 25,7 km/h (4 Bft) 96,15 %
20.05.2016 07:58 9,9 C 91 % 1018,8 hPa 0,0 l/m 18,0 km/h (3 Bft) W-SW 239 0 min 0,000 mm 0,0 UV-I 57 W/m 8,5 C 3,8 C 27,4 km/h (4 Bft) 100,00 %
20.05.2016 07:59 10,0 C 91 % 1018,7 hPa 0,0 l/m 21,1 km/h (4 Bft) W-SW 258 0 min 0,000 mm 0,0 UV-I 59 W/m 8,6 C 2,9 C 25,7 km/h (4 Bft) 93,33 %
20.05.2016 08:00 10,0 C 91 % 1018,7 hPa 0,0 l/m 14,6 km/h (3 Bft) W-SW 240 0 min 0,025 mm 0,0 UV-I 60 W/m 8,6 C 5,3 C 20,9 km/h (4 Bft) 100,00 %
20.05.2016 08:02 10,0 C 91 % 1018,7 hPa 0,0 l/m 14,5 km/h (3 Bft) SW 222 0 min 0,000 mm 0,0 UV-I 59 W/m 8,6 C 5,3 C 20,9 km/h (4 Bft) 100,00 %
20.05.2016 08:03 10,0 C 91 % 1018,8 hPa 0,0 l/m 17,5 km/h (3 Bft) W-SW 257 0 min 0,000 mm 0,0 UV-I 58 W/m 8,6 C 4,2 C 22,5 km/h (4 Bft) 96,15 %
20.05.2016 08:04 10,0 C 91 % 1018,7 hPa 0,0 l/m 20,1 km/h (4 Bft) S-SW 213 0 min 0,000 mm 0,0 UV-I 58 W/m 8,6 C 3,3 C 29,0 km/h (5 Bft) 100,00 %
20.05.2016 08:05 10,1 C 91 % 1018,7 hPa 0,0 l/m 16,7 km/h (3 Bft) SW 230 0 min 0,000 mm 0,0 UV-I 58 W/m 8,7 C 4,6 C 24,1 km/h (4 Bft) 100,00 %
20.05.2016 08:06 10,1 C 91 % 1018,7 hPa 0,0 l/m 20,4 km/h (4 Bft) W-NW 282 0 min 0,000 mm 0,0 UV-I 57 W/m 8,7 C 3,3 C 29,0 km/h (5 Bft) 95,65 %
20.05.2016 08:07 10,1 C 91 % 1018,7 hPa 0,0 l/m 19,0 km/h (3 Bft) SW 227 0 min 0,000 mm 0,0 UV-I 54 W/m 8,7 C 3,7 C 25,7 km/h (4 Bft) 100,00 %
20.05.2016 08:08 10,1 C 91 % 1018,8 hPa 0,0 l/m 15,4 km/h (3 Bft) SW 221 0 min 0,000 mm 0,0 UV-I 52 W/m 8,7 C 5,1 C 20,9 km/h (4 Bft) 95,65 %
20.05.2016 08:09 10,1 C 91 % 1018,8 hPa 0,0 l/m 16,8 km/h (3 Bft) SW 229 0 min 0,000 mm 0,0 UV-I 49 W/m 8,7 C 4,5 C 24,1 km/h (4 Bft) 100,00 %
20.05.2016 08:10 10,1 C 91 % 1018,8 hPa 0,0 l/m 16,1 km/h (3 Bft) S-SW 205 0 min 0,000 mm 0,0 UV-I 49 W/m 8,7 C 4,8 C 20,9 km/h (4 Bft) 100,00 %
20.05.2016 08:11 10,1 C 91 % 1018,9 hPa 0,0 l/m 13,6 km/h (3 Bft) W-SW 251 0 min 0,000 mm 0,0 UV-I 50 W/m 8,7 C 5,9 C 19,3 km/h (3 Bft) 100,00 %
20.05.2016 08:12 10,1 C 91 % 1018,9 hPa 0,0 l/m 16,1 km/h (3 Bft) S-SW 211 0 min 0,000 mm 0,0 UV-I 53 W/m 8,7 C 4,8 C 22,5 km/h (4 Bft) 100,00 %
20.05.2016 08:13 10,1 C 91 % 1018,9 hPa 0,0 l/m 18,4 km/h (3 Bft) W-SW 246 0 min 0,000 mm 0,0 UV-I 53 W/m 8,7 C 4,0 C 25,7 km/h (4 Bft) 100,00 %
20.05.2016 08:14 10,1 C 91 % 1018,9 hPa 0,0 l/m 19,2 km/h (3 Bft) SW 231 0 min 0,000 mm 0,0 UV-I 53 W/m 8,7 C 3,7 C 22,5 km/h (4 Bft) 92,86 %
20.05.2016 08:15 10,1 C 91 % 1018,9 hPa 0,0 l/m 15,9 km/h (3 Bft) W-SW 247 0 min 0,000 mm 0,0 UV-I 53 W/m 8,7 C 4,9 C 20,9 km/h (4 Bft) 100,00 %
20.05.2016 08:16 10,1 C 91 % 1018,9 hPa 0,0 l/m 18,2 km/h (3 Bft) SW 218 0 min 0,000 mm 0,0 UV-I 53 W/m 8,7 C 4,0 C 27,4 km/h (4 Bft) 100,00 %
20.05.2016 08:17 10,1 C 91 % 1018,9 hPa 0,0 l/m 18,6 km/h (3 Bft) SW 220 0 min 0,000 mm 0,0 UV-I 52 W/m 8,7 C 3,9 C 27,4 km/h (4 Bft) 100,00 %
20.05.2016 08:18 10,1 C 91 % 1018,9 hPa 0,0 l/m 15,3 km/h (3 Bft) W-SW 246 0 min 0,000 mm 0,0 UV-I 50 W/m 8,7 C 5,1 C 22,5 km/h (4 Bft) 100,00 %
20.05.2016 08:19 10,1 C 91 % 1018,9 hPa 0,0 l/m 15,8 km/h (3 Bft) SW 230 0 min 0,000 mm 0,0 UV-I 47 W/m 8,7 C 4,9 C 20,9 km/h (4 Bft) 100,00 %
20.05.2016 08:20 10,1 C 91 % 1018,9 hPa 0,0 l/m 17,7 km/h (3 Bft) W 261 0 min 0,000 mm 0,0 UV-I 46 W/m 8,7 C 4,2 C 25,7 km/h (4 Bft) 100,00 %
20.05.2016 08:21 10,1 C 91 % 1019,0 hPa 0,0 l/m 13,1 km/h (3 Bft) S-SW 200 0 min 0,000 mm 0,0 UV-I 46 W/m 8,7 C 6,1 C 17,7 km/h (3 Bft) 96,67 %
20.05.2016 08:22 10,1 C 91 % 1019,0 hPa 0,0 l/m 13,2 km/h (3 Bft) W-SW 238 0 min 0,000 mm 0,0 UV-I 47 W/m 8,7 C 6,0 C 17,7 km/h (3 Bft) 100,00 %
20.05.2016 08:23 10,1 C 91 % 1019,0 hPa 0,0 l/m 16,3 km/h (3 Bft) SW 231 0 min 0,000 mm 0,0 UV-I 47 W/m 8,7 C 4,7 C 20,9 km/h (4 Bft) 100,00 %
20.05.2016 08:24 10,1 C 91 % 1019,0 hPa 0,0 l/m 20,6 km/h (4 Bft) W-SW 245 0 min 0,000 mm 0,0 UV-I 48 W/m 8,7 C 3,2 C 27,4 km/h (4 Bft) 100,00 %
20.05.2016 08:25 10,1 C 91 % 1019,0 hPa 0,0 l/m 19,7 km/h (3 Bft) S-SW 193 0 min 0,000 mm 0,0 UV-I 51 W/m 8,7 C 3,5 C 25,7 km/h (4 Bft) 100,00 %
20.05.2016 08:26 10,1 C 91 % 1019,0 hPa 0,0 l/m 15,7 km/h (3 Bft) SW 221 0 min 0,000 mm 0,0 UV-I 52 W/m 8,7 C 5,0 C 24,1 km/h (4 Bft) 100,00 %
20.05.2016 08:27 10,1 C 91 % 1019,0 hPa 0,0 l/m 12,3 km/h (3 Bft) S-SW 193 0 min 0,000 mm 0,0 UV-I 54 W/m 8,7 C 6,5 C 19,3 km/h (3 Bft) 96,15 %
20.05.2016 08:28 10,1 C 91 % 1019,0 hPa 0,0 l/m 11,5 km/h (2 Bft) S-SW 195 0 min 0,000 mm 0,0 UV-I 57 W/m 8,7 C 6,9 C 16,1 km/h (3 Bft) 100,00 %
20.05.2016 08:29 10,1 C 91 % 1019,0 hPa 0,0 l/m 17,3 km/h (3 Bft) SW 232 0 min 0,000 mm 0,0 UV-I 61 W/m 8,7 C 4,4 C 25,7 km/h (4 Bft) 100,00 %
20.05.2016 08:30 10,1 C 91 % 1019,0 hPa 0,0 l/m 17,3 km/h (3 Bft) W-SW 247 0 min 0,000 mm 0,0 UV-I 63 W/m 8,7 C 4,4 C 22,5 km/h (4 Bft) 100,00 %
20.05.2016 08:31 10,2 C 91 % 1019,0 hPa 0,0 l/m 21,9 km/h (4 Bft) W-SW 248 0 min 0,000 mm 0,0 UV-I 65 W/m 8,8 C 3,0 C 25,7 km/h (4 Bft) 100,00 %
20.05.2016 08:32 10,1 C 91 % 1019,0 hPa 0,0 l/m 14,2 km/h (3 Bft) S 190 0 min 0,000 mm 0,0 UV-I 65 W/m 8,7 C 5,6 C 19,3 km/h (3 Bft) 100,00 %
20.05.2016 08:33 10,2 C 90 % 1019,0 hPa 0,0 l/m 11,2 km/h (2 Bft) SW 231 0 min 0,000 mm 0,0 UV-I 64 W/m 8,6 C 7,2 C 20,9 km/h (4 Bft) 100,00 %
20.05.2016 08:34 10,2 C 91 % 1019,0 hPa 0,0 l/m 17,2 km/h (3 Bft) SW 219 0 min 0,000 mm 0,0 UV-I 62 W/m 8,8 C 4,5 C 24,1 km/h (4 Bft) 95,83 %
20.05.2016 08:35 10,2 C 91 % 1019,1 hPa 0,0 l/m 17,2 km/h (3 Bft) SW 230 0 min 0,000 mm 0,0 UV-I 61 W/m 8,8 C 4,5 C 24,1 km/h (4 Bft) 100,00 %
20.05.2016 08:36 10,2 C 91 % 1019,1 hPa 0,0 l/m 13,3 km/h (3 Bft) W-SW 245 0 min 0,000 mm 0,0 UV-I 59 W/m 8,8 C 6,1 C 16,1 km/h (3 Bft) 100,00 %
20.05.2016 08:37 10,2 C 91 % 1019,1 hPa 0,0 l/m 12,9 km/h (3 Bft) SW 233 0 min 0,000 mm 0,0 UV-I 56 W/m 8,8 C 6,3 C 17,7 km/h (3 Bft) 100,00 %
20.05.2016 08:38 10,2 C 91 % 1019,1 hPa 0,0 l/m 13,4 km/h (3 Bft) S 182 0 min 0,000 mm 0,0 UV-I 54 W/m 8,8 C 6,1 C 16,1 km/h (3 Bft) 100,00 %
20.05.2016 08:39 10,2 C 91 % 1019,1 hPa 0,0 l/m 12,9 km/h (3 Bft) SW 221 0 min 0,000 mm 0,0 UV-I 54 W/m 8,8 C 6,3 C 19,3 km/h (3 Bft) 95,65 %
20.05.2016 08:40 10,2 C 91 % 1019,1 hPa 0,0 l/m 14,8 km/h (3 Bft) SW 227 0 min 0,000 mm 0,0 UV-I 54 W/m 8,8 C 5,5 C 22,5 km/h (4 Bft) 100,00 %
20.05.2016 08:41 10,2 C 91 % 1019,2 hPa 0,0 l/m 15,7 km/h (3 Bft) W-SW 244 0 min 0,000 mm 0,0 UV-I 56 W/m 8,8 C 5,1 C 19,3 km/h (3 Bft) 100,00 %
20.05.2016 08:42 10,2 C 91 % 1019,2 hPa 0,0 l/m 17,2 km/h (3 Bft) S-SW 213 0 min 0,000 mm 0,0 UV-I 59 W/m 8,8 C 4,5 C 24,1 km/h (4 Bft) 100,00 %
20.05.2016 08:43 10,2 C 91 % 1019,2 hPa 0,0 l/m 9,6 km/h (2 Bft) W-SW 240 0 min 0,000 mm 0,0 UV-I 62 W/m 8,8 C 8,0 C 14,5 km/h (3 Bft) 100,00 %
20.05.2016 08:44 10,2 C 91 % 1019,2 hPa 0,0 l/m 16,8 km/h (3 Bft) S-SW 211 0 min 0,000 mm 0,0 UV-I 64 W/m 8,8 C 4,7 C 20,9 km/h (4 Bft) 100,00 %
20.05.2016 08:45 10,2 C 91 % 1019,2 hPa 0,0 l/m 15,4 km/h (3 Bft) W-SW 246 0 min 0,000 mm 0,0 UV-I 68 W/m 8,8 C 5,2 C 19,3 km/h (3 Bft) 100,00 %
20.05.2016 08:46 10,2 C 91 % 1019,2 hPa 0,0 l/m 13,1 km/h (3 Bft) SW 220 0 min 0,000 mm 0,0 UV-I 70 W/m 8,8 C 6,2 C 20,9 km/h (4 Bft) 96,15 %
20.05.2016 08:47 10,2 C 91 % 1019,2 hPa 0,0 l/m 14,6 km/h (3 Bft) SW 225 0 min 0,000 mm 0,0 UV-I 73 W/m 8,8 C 5,5 C 20,9 km/h (4 Bft) 100,00 %
20.05.2016 08:48 10,2 C 91 % 1019,2 hPa 0,0 l/m 16,8 km/h (3 Bft) SW 215 0 min 0,000 mm 0,0 UV-I 78 W/m 8,8 C 4,7 C 20,9 km/h (4 Bft) 100,00 %
20.05.2016 08:49 10,2 C 91 % 1019,2 hPa 0,0 l/m 19,8 km/h (3 Bft) W-SW 240 0 min 0,000 mm 0,0 UV-I 83 W/m 8,8 C 3,6 C 29,0 km/h (5 Bft) 100,00 %
20.05.2016 08:50 10,2 C 91 % 1019,2 hPa 0,0 l/m 17,4 km/h (3 Bft) S-SW 212 0 min 0,000 mm 0,0 UV-I 85 W/m 8,8 C 4,4 C 25,7 km/h (4 Bft) 100,00 %
20.05.2016 08:51 10,2 C 91 % 1019,2 hPa 0,0 l/m 17,4 km/h (3 Bft) W-SW 238 0 min 0,000 mm 0,0 UV-I 89 W/m 8,8 C 4,4 C 24,1 km/h (4 Bft) 100,00 %
20.05.2016 08:52 10,2 C 90 % 1019,2 hPa 0,0 l/m 12,5 km/h (3 Bft) SW 226 0 min 0,000 mm 0,0 UV-I 92 W/m 8,6 C 6,5 C 16,1 km/h (3 Bft) 100,00 %
20.05.2016 08:53 10,3 C 91 % 1019,2 hPa 0,0 l/m 13,8 km/h (3 Bft) SW 236 0 min 0,000 mm 0,0 UV-I 93 W/m 8,9 C 6,0 C 19,3 km/h (3 Bft) 100,00 %
20.05.2016 08:54 10,3 C 91 % 1019,2 hPa 0,0 l/m 10,8 km/h (2 Bft) W-SW 251 0 min 0,000 mm 0,0 UV-I 91 W/m 8,9 C 7,5 C 16,1 km/h (3 Bft) 100,00 %
20.05.2016 08:55 10,3 C 91 % 1019,3 hPa 0,0 l/m 18,8 km/h (3 Bft) W-SW 256 0 min 0,000 mm 0,0 UV-I 90 W/m 8,9 C 4,1 C 27,4 km/h (4 Bft) 100,00 %
20.05.2016 08:56 10,3 C 91 % 1019,2 hPa 0,0 l/m 18,5 km/h (3 Bft) SW 229 0 min 0,000 mm 0,0 UV-I 87 W/m 8,9 C 4,2 C 25,7 km/h (4 Bft) 100,00 %
20.05.2016 08:57 10,3 C 91 % 1019,3 hPa 0,0 l/m 17,2 km/h (3 Bft) SW 234 0 min 0,000 mm 0,0 UV-I 88 W/m 8,9 C 4,6 C 22,5 km/h (4 Bft) 100,00 %
20.05.2016 08:58 10,3 C 91 % 1019,3 hPa 0,0 l/m 12,4 km/h (3 Bft) W-SW 240 0 min 0,000 mm 0,0 UV-I 92 W/m 8,9 C 6,7 C 17,7 km/h (3 Bft) 100,00 %
20.05.2016 08:59 10,3 C 91 % 1019,3 hPa 0,0 l/m 16,3 km/h (3 Bft) SW 227 0 min 0,000 mm 0,0 UV-I 96 W/m 8,9 C 5,0 C 24,1 km/h (4 Bft) 100,00 %
20.05.2016 09:00 10,3 C 91 % 1019,3 hPa 0,0 l/m 21,9 km/h (4 Bft) SW 233 0 min 0,051 mm 0,0 UV-I 98 W/m 8,9 C 3,1 C 25,7 km/h (4 Bft) 100,00 %
20.05.2016 09:01 10,3 C 91 % 1019,3 hPa 0,0 l/m 15,7 km/h (3 Bft) SW 223 0 min 0,000 mm 0,0 UV-I 99 W/m 8,9 C 5,2 C 19,3 km/h (3 Bft) 95,83 %
20.05.2016 09:03 10,3 C 91 % 1019,3 hPa 0,0 l/m 15,0 km/h (3 Bft) SW 224 0 min 0,000 mm 0,0 UV-I 106 W/m 8,9 C 5,5 C 20,9 km/h (4 Bft) 95,45 %
20.05.2016 09:04 10,3 C 91 % 1019,3 hPa 0,0 l/m 15,0 km/h (3 Bft) SW 217 0 min 0,000 mm 0,0 UV-I 106 W/m 8,9 C 5,5 C 24,1 km/h (4 Bft) 100,00 %
20.05.2016 09:05 10,4 C 91 % 1019,4 hPa 0,0 l/m 17,8 km/h (3 Bft) W-SW 245 0 min 0,000 mm 0,0 UV-I 104 W/m 9,0 C 4,5 C 27,4 km/h (4 Bft) 100,00 %
20.05.2016 09:06 10,4 C 90 % 1019,4 hPa 0,0 l/m 13,8 km/h (3 Bft) W-SW 247 0 min 0,000 mm 0,0 UV-I 100 W/m 8,8 C 6,1 C 17,7 km/h (3 Bft) 100,00 %
20.05.2016 09:07 10,4 C 91 % 1019,4 hPa 0,0 l/m 15,2 km/h (3 Bft) SW 226 0 min 0,000 mm 0,0 UV-I 97 W/m 9,0 C 5,5 C 25,7 km/h (4 Bft) 95,65 %
20.05.2016 09:08 10,4 C 91 % 1019,3 hPa 0,0 l/m 14,2 km/h (3 Bft) SW 221 0 min 0,000 mm 0,0 UV-I 94 W/m 9,0 C 6,0 C 17,7 km/h (3 Bft) 100,00 %
20.05.2016 09:09 10,4 C 91 % 1019,3 hPa 0,0 l/m 15,6 km/h (3 Bft) SW 227 0 min 0,000 mm 0,0 UV-I 93 W/m 9,0 C 5,4 C 22,5 km/h (4 Bft) 100,00 %
20.05.2016 09:10 10,4 C 91 % 1019,4 hPa 0,0 l/m 17,0 km/h (3 Bft) SW 218 0 min 0,000 mm 0,0 UV-I 91 W/m 9,0 C 4,8 C 27,4 km/h (4 Bft) 100,00 %
20.05.2016 09:11 10,4 C 90 % 1019,3 hPa 0,0 l/m 17,3 km/h (3 Bft) S-SW 211 0 min 0,000 mm 0,0 UV-I 90 W/m 8,8 C 4,7 C 25,7 km/h (4 Bft) 96,15 %
20.05.2016 09:12 10,4 C 90 % 1019,4 hPa 0,0 l/m 18,7 km/h (3 Bft) SW 215 0 min 0,000 mm 0,0 UV-I 90 W/m 8,8 C 4,2 C 24,1 km/h (4 Bft) 100,00 %
20.05.2016 09:13 10,4 C 90 % 1019,4 hPa 0,0 l/m 14,6 km/h (3 Bft) SW 222 0 min 0,000 mm 0,0 UV-I 90 W/m 8,8 C 5,8 C 19,3 km/h (3 Bft) 100,00 %
20.05.2016 09:14 10,4 C 90 % 1019,4 hPa 0,0 l/m 18,0 km/h (3 Bft) SW 224 0 min 0,000 mm 0,0 UV-I 93 W/m 8,8 C 4,5 C 25,7 km/h (4 Bft) 100,00 %
20.05.2016 09:15 10,4 C 90 % 1019,4 hPa 0,0 l/m 12,6 km/h (3 Bft) W-SW 241 0 min 0,000 mm 0,0 UV-I 96 W/m 8,8 C 6,7 C 17,7 km/h (3 Bft) 100,00 %
20.05.2016 09:16 10,4 C 91 % 1019,4 hPa 0,0 l/m 14,7 km/h (3 Bft) S-SW 213 0 min 0,000 mm 0,0 UV-I 99 W/m 9,0 C 5,7 C 20,9 km/h (4 Bft) 100,00 %
20.05.2016 09:17 10,5 C 90 % 1019,4 hPa 0,0 l/m 9,9 km/h (2 Bft) S-SW 211 0 min 0,000 mm 0,0 UV-I 98 W/m 8,9 C 8,2 C 14,5 km/h (3 Bft) 100,00 %
20.05.2016 09:18 10,5 C 91 % 1019,5 hPa 0,0 l/m 12,9 km/h (3 Bft) W-SW 243 0 min 0,000 mm 0,0 UV-I 95 W/m 9,1 C 6,7 C 17,7 km/h (3 Bft) 100,00 %
20.05.2016 09:19 10,5 C 90 % 1019,5 hPa 0,0 l/m 16,0 km/h (3 Bft) W-SW 238 0 min 0,000 mm 0,0 UV-I 92 W/m 8,9 C 5,3 C 22,5 km/h (4 Bft) 100,00 %
20.05.2016 09:20 10,5 C 90 % 1019,4 hPa 0,0 l/m 13,8 km/h (3 Bft) S-SW 205 0 min 0,000 mm 0,0 UV-I 91 W/m 8,9 C 6,3 C 22,5 km/h (4 Bft) 100,00 %
20.05.2016 09:21 10,5 C 90 % 1019,5 hPa 0,0 l/m 17,4 km/h (3 Bft) SW 221 0 min 0,000 mm 0,0 UV-I 89 W/m 8,9 C 4,8 C 24,1 km/h (4 Bft) 100,00 %
20.05.2016 09:22 10,5 C 90 % 1019,5 hPa 0,0 l/m 15,8 km/h (3 Bft) SW 235 0 min 0,000 mm 0,0 UV-I 86 W/m 8,9 C 5,4 C 20,9 km/h (4 Bft) 100,00 %
20.05.2016 09:23 10,5 C 90 % 1019,5 hPa 0,0 l/m 18,9 km/h (3 Bft) SW 231 0 min 0,000 mm 0,0 UV-I 83 W/m 8,9 C 4,3 C 25,7 km/h (4 Bft) 100,00 %
20.05.2016 09:24 10,5 C 90 % 1019,6 hPa 0,0 l/m 11,6 km/h (2 Bft) SW 236 0 min 0,000 mm 0,0 UV-I 81 W/m 8,9 C 7,3 C 14,5 km/h (3 Bft) 94,12 %
20.05.2016 09:25 10,5 C 90 % 1019,6 hPa 0,0 l/m 15,0 km/h (3 Bft) SW 236 0 min 0,000 mm 0,0 UV-I 80 W/m 8,9 C 5,7 C 24,1 km/h (4 Bft) 96,67 %
20.05.2016 09:26 10,5 C 90 % 1019,6 hPa 0,0 l/m 13,0 km/h (3 Bft) W-NW 292 0 min 0,000 mm 0,0 UV-I 80 W/m 8,9 C 6,6 C 16,1 km/h (3 Bft) 100,00 %
20.05.2016 09:27 10,5 C 90 % 1019,6 hPa 0,0 l/m 16,3 km/h (3 Bft) SW 223 0 min 0,000 mm 0,0 UV-I 82 W/m 8,9 C 5,2 C 22,5 km/h (4 Bft) 100,00 %
20.05.2016 09:28 10,5 C 90 % 1019,6 hPa 0,0 l/m 16,1 km/h (3 Bft) SW 227 0 min 0,000 mm 0,0 UV-I 86 W/m 8,9 C 5,3 C 20,9 km/h (4 Bft) 96,55 %
20.05.2016 09:29 10,6 C 90 % 1019,7 hPa 0,0 l/m 21,7 km/h (4 Bft) SW 222 0 min 0,000 mm 0,0 UV-I 90 W/m 9,0 C 3,5 C 25,7 km/h (4 Bft) 95,83 %
20.05.2016 09:30 10,5 C 90 % 1019,6 hPa 0,0 l/m 11,7 km/h (2 Bft) W-SW 246 0 min 0,000 mm 0,0 UV-I 91 W/m 8,9 C 7,2 C 14,5 km/h (3 Bft) 96,15 %
20.05.2016 09:31 10,5 C 90 % 1019,6 hPa 0,0 l/m 13,0 km/h (3 Bft) SW 236 0 min 0,000 mm 0,0 UV-I 89 W/m 8,9 C 6,6 C 16,1 km/h (3 Bft) 100,00 %
20.05.2016 09:32 10,6 C 90 % 1019,7 hPa 0,0 l/m 10,5 km/h (2 Bft) W-SW 241 0 min 0,000 mm 0,0 UV-I 85 W/m 9,0 C 8,0 C 19,3 km/h (3 Bft) 100,00 %
20.05.2016 09:33 10,6 C 90 % 1019,7 hPa 0,0 l/m 12,2 km/h (2 Bft) W-SW 248 0 min 0,000 mm 0,0 UV-I 83 W/m 9,0 C 7,1 C 16,1 km/h (3 Bft) 92,31 %
20.05.2016 09:34 10,6 C 90 % 1019,7 hPa 0,0 l/m 10,0 km/h (2 Bft) SW 233 0 min 0,000 mm 0,0 UV-I 84 W/m 9,0 C 8,3 C 12,9 km/h (3 Bft) 96,15 %
20.05.2016 09:35 10,6 C 90 % 1019,7 hPa 0,0 l/m 10,8 km/h (2 Bft) SW 223 0 min 0,000 mm 0,0 UV-I 87 W/m 9,0 C 7,8 C 17,7 km/h (3 Bft) 100,00 %
20.05.2016 09:36 10,6 C 90 % 1019,7 hPa 0,0 l/m 11,0 km/h (2 Bft) W-SW 237 0 min 0,000 mm 0,0 UV-I 91 W/m 9,0 C 7,7 C 14,5 km/h (3 Bft) 96,15 %
20.05.2016 09:37 10,6 C 90 % 1019,7 hPa 0,0 l/m 13,1 km/h (3 Bft) SW 230 0 min 0,000 mm 0,0 UV-I 98 W/m 9,0 C 6,7 C 20,9 km/h (4 Bft) 92,59 %
20.05.2016 09:38 10,6 C 90 % 1019,7 hPa 0,0 l/m 17,3 km/h (3 Bft) SW 233 0 min 0,000 mm 0,2 UV-I 104 W/m 9,0 C 5,0 C 25,7 km/h (4 Bft) 100,00 %
20.05.2016 09:39 10,6 C 90 % 1019,7 hPa 0,0 l/m 15,0 km/h (3 Bft) SW 222 0 min 0,000 mm 0,5 UV-I 106 W/m 9,0 C 5,9 C 22,5 km/h (4 Bft) 96,15 %
20.05.2016 09:40 10,6 C 90 % 1019,7 hPa 0,0 l/m 18,4 km/h (3 Bft) SW 223 0 min 0,000 mm 0,5 UV-I 109 W/m 9,0 C 4,6 C 24,1 km/h (4 Bft) 100,00 %
20.05.2016 09:41 10,6 C 90 % 1019,7 hPa 0,0 l/m 22,4 km/h (4 Bft) S-SW 201 0 min 0,000 mm 0,5 UV-I 114 W/m 9,0 C 3,3 C 25,7 km/h (4 Bft) 96,15 %
20.05.2016 09:42 10,6 C 90 % 1019,7 hPa 0,0 l/m 16,5 km/h (3 Bft) W-SW 238 0 min 0,000 mm 0,5 UV-I 121 W/m 9,0 C 5,3 C 22,5 km/h (4 Bft) 100,00 %
20.05.2016 09:43 10,6 C 89 % 1019,7 hPa 0,0 l/m 15,3 km/h (3 Bft) W-SW 238 0 min 0,000 mm 0,6 UV-I 132 W/m 8,9 C 5,7 C 20,9 km/h (4 Bft) 96,15 %
20.05.2016 09:44 10,7 C 89 % 1019,7 hPa 0,0 l/m 18,0 km/h (3 Bft) SW 234 0 min 0,000 mm 0,6 UV-I 139 W/m 9,0 C 4,9 C 24,1 km/h (4 Bft) 100,00 %
20.05.2016 09:45 10,7 C 89 % 1019,7 hPa 0,0 l/m 17,1 km/h (3 Bft) SW 229 0 min 0,000 mm 0,6 UV-I 140 W/m 9,0 C 5,2 C 22,5 km/h (4 Bft) 95,65 %
20.05.2016 09:46 10,7 C 90 % 1019,7 hPa 0,0 l/m 17,3 km/h (3 Bft) W-SW 250 0 min 0,000 mm 0,6 UV-I 135 W/m 9,1 C 5,1 C 25,7 km/h (4 Bft) 100,00 %
20.05.2016 09:47 10,7 C 90 % 1019,7 hPa 0,0 l/m 13,5 km/h (3 Bft) SW 220 0 min 0,000 mm 0,6 UV-I 127 W/m 9,1 C 6,6 C 19,3 km/h (3 Bft) 91,30 %
20.05.2016 09:48 10,7 C 90 % 1019,7 hPa 0,0 l/m 16,0 km/h (3 Bft) W-SW 243 0 min 0,000 mm 0,5 UV-I 119 W/m 9,1 C 5,6 C 27,4 km/h (4 Bft) 95,83 %
20.05.2016 09:49 10,7 C 90 % 1019,7 hPa 0,0 l/m 17,2 km/h (3 Bft) SW 215 0 min 0,000 mm 0,5 UV-I 112 W/m 9,1 C 5,1 C 20,9 km/h (4 Bft) 100,00 %
20.05.2016 09:50 10,8 C 90 % 1019,7 hPa 0,0 l/m 15,9 km/h (3 Bft) SW 219 0 min 0,000 mm 0,5 UV-I 110 W/m 9,2 C 5,7 C 20,9 km/h (4 Bft) 96,30 %
20.05.2016 09:51 10,8 C 89 % 1019,6 hPa 0,0 l/m 22,0 km/h (4 Bft) SW 224 0 min 0,000 mm 0,5 UV-I 113 W/m 9,1 C 3,7 C 29,0 km/h (5 Bft) 100,00 %
20.05.2016 09:52 10,8 C 89 % 1019,7 hPa 0,0 l/m 22,9 km/h (4 Bft) W-SW 244 0 min 0,000 mm 0,6 UV-I 118 W/m 9,1 C 3,5 C 27,4 km/h (4 Bft) 96,67 %
20.05.2016 09:53 10,8 C 89 % 1019,7 hPa 0,0 l/m 18,0 km/h (3 Bft) W-SW 256 0 min 0,000 mm 0,6 UV-I 123 W/m 9,1 C 5,0 C 24,1 km/h (4 Bft) 90,91 %
20.05.2016 09:54 10,8 C 89 % 1019,6 hPa 0,0 l/m 12,8 km/h (3 Bft) SW 227 0 min 0,000 mm 0,6 UV-I 129 W/m 9,1 C 7,1 C 17,7 km/h (3 Bft) 96,30 %
20.05.2016 09:55 10,8 C 90 % 1019,6 hPa 0,0 l/m 13,3 km/h (3 Bft) SW 236 0 min 0,000 mm 0,7 UV-I 133 W/m 9,2 C 6,8 C 20,9 km/h (4 Bft) 96,55 %
20.05.2016 09:56 10,8 C 90 % 1019,7 hPa 0,0 l/m 11,3 km/h (2 Bft) W-SW 249 0 min 0,000 mm 0,7 UV-I 135 W/m 9,2 C 7,8 C 16,1 km/h (3 Bft) 100,00 %
20.05.2016 09:57 10,8 C 89 % 1019,6 hPa 0,0 l/m 10,9 km/h (2 Bft) SW 230 0 min 0,000 mm 0,7 UV-I 134 W/m 9,1 C 8,0 C 14,5 km/h (3 Bft) 100,00 %
20.05.2016 09:58 10,8 C 89 % 1019,7 hPa 0,0 l/m 13,2 km/h (3 Bft) W-SW 241 0 min 0,000 mm 0,7 UV-I 132 W/m 9,1 C 6,9 C 19,3 km/h (3 Bft) 96,15 %
20.05.2016 09:59 10,8 C 90 % 1019,7 hPa 0,0 l/m 21,3 km/h (4 Bft) W-SW 254 0 min 0,000 mm 0,7 UV-I 130 W/m 9,2 C 3,9 C 29,0 km/h (5 Bft) 91,67 %
20.05.2016 10:00 10,8 C 89 % 1019,6 hPa 0,0 l/m 17,4 km/h (3 Bft) SW 233 0 min 0,076 mm 0,6 UV-I 128 W/m 9,1 C 5,2 C 22,5 km/h (4 Bft) 95,65 %
20.05.2016 10:01 10,8 C 89 % 1019,7 hPa 0,0 l/m 12,6 km/h (3 Bft) SW 220 0 min 0,000 mm 0,7 UV-I 132 W/m 9,1 C 7,1 C 16,1 km/h (3 Bft) 100,00 %
20.05.2016 10:02 10,8 C 89 % 1019,6 hPa 0,0 l/m 11,4 km/h (2 Bft) S-SW 202 0 min 0,000 mm 0,7 UV-I 141 W/m 9,1 C 7,7 C 20,9 km/h (4 Bft) 100,00 %
20.05.2016 10:03 10,8 C 89 % 1019,6 hPa 0,0 l/m 15,9 km/h (3 Bft) W-SW 256 0 min 0,000 mm 0,8 UV-I 152 W/m 9,1 C 5,7 C 25,7 km/h (4 Bft) 98,55 %
20.05.2016 10:04 10,8 C 89 % 1019,7 hPa 0,0 l/m 18,0 km/h (3 Bft) S-SW 206 0 min 0,000 mm 0,8 UV-I 161 W/m 9,1 C 5,0 C 24,1 km/h (4 Bft) 97,56 %
20.05.2016 10:05 10,9 C 89 % 1019,7 hPa 0,0 l/m 21,8 km/h (4 Bft) SW 223 0 min 0,000 mm 0,8 UV-I 162 W/m 9,2 C 3,9 C 29,0 km/h (5 Bft) 100,00 %
20.05.2016 10:06 10,9 C 89 % 1019,7 hPa 0,0 l/m 16,7 km/h (3 Bft) SW 232 0 min 0,000 mm 0,8 UV-I 155 W/m 9,2 C 5,6 C 22,5 km/h (4 Bft) 100,00 %
20.05.2016 10:07 10,9 C 89 % 1019,7 hPa 0,0 l/m 20,9 km/h (4 Bft) SW 227 0 min 0,000 mm 0,8 UV-I 146 W/m 9,2 C 4,2 C 30,6 km/h (5 Bft) 100,00 %
20.05.2016 10:08 10,9 C 89 % 1019,7 hPa 0,0 l/m 15,9 km/h (3 Bft) S-SW 210 0 min 0,000 mm 0,7 UV-I 139 W/m 9,2 C 5,9 C 22,5 km/h (4 Bft) 100,00 %
20.05.2016 10:09 10,9 C 89 % 1019,7 hPa 0,0 l/m 15,2 km/h (3 Bft) W-SW 241 0 min 0,000 mm 0,7 UV-I 135 W/m 9,2 C 6,1 C 20,9 km/h (4 Bft) 100,00 %
20.05.2016 10:10 10,9 C 89 % 1019,7 hPa 0,0 l/m 19,0 km/h (3 Bft) SW 223 0 min 0,000 mm 0,7 UV-I 135 W/m 9,2 C 4,8 C 24,1 km/h (4 Bft) 100,00 %
20.05.2016 10:11 10,9 C 89 % 1019,7 hPa 0,0 l/m 12,9 km/h (3 Bft) W-SW 237 0 min 0,000 mm 0,7 UV-I 137 W/m 9,2 C 7,1 C 19,3 km/h (3 Bft) 96,67 %
20.05.2016 10:12 11,0 C 89 % 1019,7 hPa 0,0 l/m 19,2 km/h (3 Bft) W-SW 237 0 min 0,000 mm 0,7 UV-I 140 W/m 9,3 C 4,8 C 25,7 km/h (4 Bft) 92,86 %
20.05.2016 10:13 11,0 C 89 % 1019,7 hPa 0,0 l/m 19,2 km/h (3 Bft) W-SW 237 0 min 0,000 mm 0,7 UV-I 140 W/m 9,3 C 4,8 C 29,0 km/h (5 Bft) 100,00 %
20.05.2016 10:14 11,0 C 89 % 1019,8 hPa 0,0 l/m 16,0 km/h (3 Bft) W-SW 238 0 min 0,000 mm 0,7 UV-I 139 W/m 9,3 C 6,0 C 19,3 km/h (3 Bft) 96,15 %
20.05.2016 10:15 11,0 C 89 % 1019,8 hPa 0,0 l/m 17,4 km/h (3 Bft) W-SW 246 0 min 0,000 mm 0,8 UV-I 142 W/m 9,3 C 5,4 C 24,1 km/h (4 Bft) 100,00 %
20.05.2016 10:16 11,0 C 89 % 1019,7 hPa 0,0 l/m 20,1 km/h (4 Bft) SW 236 0 min 0,000 mm 0,8 UV-I 149 W/m 9,3 C 4,5 C 30,6 km/h (5 Bft) 96,15 %
20.05.2016 10:17 11,0 C 88 % 1019,8 hPa 0,0 l/m 15,1 km/h (3 Bft) S-SW 205 0 min 0,000 mm 0,8 UV-I 153 W/m 9,1 C 6,3 C 19,3 km/h (3 Bft) 91,67 %
20.05.2016 10:18 11,0 C 89 % 1019,8 hPa 0,0 l/m 15,2 km/h (3 Bft) S-SW 207 0 min 0,000 mm 0,8 UV-I 155 W/m 9,3 C 6,3 C 24,1 km/h (4 Bft) 100,00 %
20.05.2016 10:19 11,1 C 88 % 1019,8 hPa 0,0 l/m 13,5 km/h (3 Bft) W-SW 248 0 min 0,000 mm 0,9 UV-I 157 W/m 9,2 C 7,1 C 19,3 km/h (3 Bft) 92,31 %
20.05.2016 10:20 11,1 C 88 % 1019,8 hPa 0,0 l/m 21,6 km/h (4 Bft) SW 235 0 min 0,000 mm 0,9 UV-I 158 W/m 9,2 C 4,2 C 29,0 km/h (5 Bft) 100,00 %
20.05.2016 10:21 11,1 C 88 % 1019,8 hPa 0,0 l/m 19,4 km/h (3 Bft) W-SW 240 0 min 0,000 mm 0,9 UV-I 159 W/m 9,2 C 4,9 C 25,7 km/h (4 Bft) 100,00 %
20.05.2016 10:22 11,1 C 88 % 1019,9 hPa 0,0 l/m 18,3 km/h (3 Bft) S-SO 155 0 min 0,000 mm 0,9 UV-I 162 W/m 9,2 C 5,3 C 22,5 km/h (4 Bft) 100,00 %
20.05.2016 10:23 11,1 C 88 % 1019,9 hPa 0,0 l/m 17,3 km/h (3 Bft) S 182 0 min 0,000 mm 0,9 UV-I 163 W/m 9,2 C 5,6 C 25,7 km/h (4 Bft) 100,00 %
20.05.2016 10:24 11,1 C 88 % 1019,8 hPa 0,0 l/m 17,1 km/h (3 Bft) W-SW 241 0 min 0,000 mm 0,9 UV-I 162 W/m 9,2 C 5,7 C 25,7 km/h (4 Bft) 100,00 %
20.05.2016 10:25 11,1 C 88 % 1019,9 hPa 0,0 l/m 13,3 km/h (3 Bft) SW 236 0 min 0,000 mm 0,9 UV-I 161 W/m 9,2 C 7,2 C 17,7 km/h (3 Bft) 90,91 %
20.05.2016 10:26 11,1 C 88 % 1019,8 hPa 0,0 l/m 20,2 km/h (4 Bft) SW 223 0 min 0,000 mm 0,9 UV-I 162 W/m 9,2 C 4,6 C 27,4 km/h (4 Bft) 100,00 %
20.05.2016 10:27 11,1 C 88 % 1019,9 hPa 0,0 l/m 21,8 km/h (4 Bft) SW 220 0 min 0,000 mm 0,9 UV-I 161 W/m 9,2 C 4,2 C 27,4 km/h (4 Bft) 100,00 %
20.05.2016 10:28 11,1 C 88 % 1019,9 hPa 0,0 l/m 18,5 km/h (3 Bft) SW 234 0 min 0,000 mm 0,9 UV-I 155 W/m 9,2 C 5,2 C 27,4 km/h (4 Bft) 95,83 %
20.05.2016 10:29 11,1 C 88 % 1019,9 hPa 0,0 l/m 18,6 km/h (3 Bft) W-SW 240 0 min 0,000 mm 0,8 UV-I 147 W/m 9,2 C 5,2 C 22,5 km/h (4 Bft) 100,00 %
20.05.2016 10:30 11,2 C 87 % 1019,9 hPa 0,0 l/m 14,6 km/h (3 Bft) S-SW 207 0 min 0,000 mm 0,8 UV-I 139 W/m 9,1 C 6,7 C 20,9 km/h (4 Bft) 93,33 %
20.05.2016 10:31 11,2 C 88 % 1019,9 hPa 0,0 l/m 17,1 km/h (3 Bft) SW 224 0 min 0,000 mm 0,8 UV-I 133 W/m 9,3 C 5,8 C 22,5 km/h (4 Bft) 97,37 %
20.05.2016 10:32 11,2 C 88 % 1019,9 hPa 0,0 l/m 12,4 km/h (3 Bft) SW 231 0 min 0,000 mm 0,7 UV-I 129 W/m 9,3 C 7,7 C 17,7 km/h (3 Bft) 100,00 %
20.05.2016 10:33 11,2 C 88 % 1019,9 hPa 0,0 l/m 14,0 km/h (3 Bft) W 269 0 min 0,000 mm 0,7 UV-I 124 W/m 9,3 C 7,0 C 19,3 km/h (3 Bft) 100,00 %
20.05.2016 10:34 11,2 C 88 % 1019,9 hPa 0,0 l/m 17,8 km/h (3 Bft) W 264 0 min 0,000 mm 0,7 UV-I 123 W/m 9,3 C 5,6 C 27,4 km/h (4 Bft) 100,00 %
20.05.2016 10:35 11,2 C 88 % 1019,9 hPa 0,0 l/m 13,9 km/h (3 Bft) W-SW 240 0 min 0,000 mm 0,7 UV-I 122 W/m 9,3 C 7,0 C 17,7 km/h (3 Bft) 100,00 %
20.05.2016 10:36 11,2 C 88 % 1019,9 hPa 0,0 l/m 12,6 km/h (3 Bft) SW 228 0 min 0,000 mm 0,7 UV-I 122 W/m 9,3 C 7,6 C 19,3 km/h (3 Bft) 100,00 %
20.05.2016 10:37 11,2 C 88 % 1020,0 hPa 0,0 l/m 11,9 km/h (2 Bft) SW 216 0 min 0,000 mm 0,7 UV-I 119 W/m 9,3 C 7,9 C 22,5 km/h (4 Bft) 96,15 %
20.05.2016 10:38 11,2 C 88 % 1020,0 hPa 0,0 l/m 10,6 km/h (2 Bft) SW 234 0 min 0,000 mm 0,7 UV-I 117 W/m 9,3 C 8,6 C 17,7 km/h (3 Bft) 100,00 %
20.05.2016 10:39 11,2 C 88 % 1020,0 hPa 0,0 l/m 16,5 km/h (3 Bft) SW 215 0 min 0,000 mm 0,7 UV-I 116 W/m 9,3 C 6,0 C 20,9 km/h (4 Bft) 100,00 %
20.05.2016 10:40 11,2 C 88 % 1020,0 hPa 0,0 l/m 17,2 km/h (3 Bft) W-SW 252 0 min 0,000 mm 0,7 UV-I 116 W/m 9,3 C 5,8 C 27,4 km/h (4 Bft) 100,00 %
20.05.2016 10:41 11,2 C 88 % 1020,0 hPa 0,0 l/m 20,1 km/h (4 Bft) S 184 0 min 0,000 mm 0,7 UV-I 122 W/m 9,3 C 4,8 C 25,7 km/h (4 Bft) 100,00 %
20.05.2016 10:42 11,2 C 88 % 1020,0 hPa 0,0 l/m 14,6 km/h (3 Bft) SW 215 0 min 0,000 mm 0,8 UV-I 126 W/m 9,3 C 6,7 C 20,9 km/h (4 Bft) 100,00 %
20.05.2016 10:43 11,2 C 88 % 1020,0 hPa 0,0 l/m 15,4 km/h (3 Bft) S-SW 209 0 min 0,000 mm 0,8 UV-I 128 W/m 9,3 C 6,4 C 25,7 km/h (4 Bft) 100,00 %
20.05.2016 10:44 11,2 C 88 % 1020,0 hPa 0,0 l/m 15,4 km/h (3 Bft) SW 227 0 min 0,000 mm 0,7 UV-I 127 W/m 9,3 C 6,4 C 20,9 km/h (4 Bft) 96,15 %
20.05.2016 10:45 11,2 C 88 % 1020,0 hPa 0,0 l/m 15,0 km/h (3 Bft) W 276 0 min 0,000 mm 0,7 UV-I 125 W/m 9,3 C 6,6 C 20,9 km/h (4 Bft) 96,30 %
20.05.2016 10:46 11,2 C 88 % 1020,0 hPa 0,0 l/m 17,7 km/h (3 Bft) W-SW 243 0 min 0,000 mm 0,7 UV-I 121 W/m 9,3 C 5,6 C 24,1 km/h (4 Bft) 100,00 %
20.05.2016 10:47 11,2 C 88 % 1020,0 hPa 0,0 l/m 17,1 km/h (3 Bft) SW 234 0 min 0,000 mm 0,7 UV-I 122 W/m 9,3 C 5,8 C 27,4 km/h (4 Bft) 100,00 %
20.05.2016 10:48 11,2 C 88 % 1020,0 hPa 0,0 l/m 17,0 km/h (3 Bft) W-SW 257 0 min 0,000 mm 0,8 UV-I 131 W/m 9,3 C 5,8 C 20,9 km/h (4 Bft) 100,00 %
20.05.2016 10:49 11,2 C 88 % 1020,0 hPa 0,0 l/m 11,8 km/h (2 Bft) SW 223 0 min 0,000 mm 0,8 UV-I 139 W/m 9,3 C 8,0 C 14,5 km/h (3 Bft) 100,00 %
20.05.2016 10:50 11,2 C 88 % 1020,0 hPa 0,0 l/m 15,6 km/h (3 Bft) SW 215 0 min 0,000 mm 0,9 UV-I 146 W/m 9,3 C 6,4 C 20,9 km/h (4 Bft) 100,00 %
20.05.2016 10:51 11,3 C 88 % 1020,0 hPa 0,0 l/m 18,7 km/h (3 Bft) SW 235 0 min 0,000 mm 0,9 UV-I 149 W/m 9,4 C 5,4 C 27,4 km/h (4 Bft) 100,00 %
20.05.2016 10:52 11,3 C 88 % 1020,0 hPa 0,0 l/m 15,7 km/h (3 Bft) SW 216 0 min 0,000 mm 0,9 UV-I 151 W/m 9,4 C 6,4 C 20,9 km/h (4 Bft) 100,00 %
20.05.2016 10:53 11,3 C 88 % 1020,0 hPa 0,0 l/m 15,6 km/h (3 Bft) S-SW 208 0 min 0,000 mm 0,8 UV-I 144 W/m 9,4 C 6,5 C 20,9 km/h (4 Bft) 100,00 %
20.05.2016 10:54 11,3 C 88 % 1020,0 hPa 0,0 l/m 20,0 km/h (4 Bft) W-SW 239 0 min 0,000 mm 0,8 UV-I 131 W/m 9,4 C 5,0 C 25,7 km/h (4 Bft) 100,00 %
20.05.2016 10:55 11,3 C 87 % 1020,0 hPa 0,0 l/m 13,8 km/h (3 Bft) SW 229 0 min 0,000 mm 0,7 UV-I 124 W/m 9,2 C 7,2 C 24,1 km/h (4 Bft) 100,00 %
20.05.2016 10:56 11,3 C 87 % 1020,0 hPa 0,0 l/m 19,4 km/h (3 Bft) S-SW 205 0 min 0,000 mm 0,7 UV-I 127 W/m 9,2 C 5,2 C 25,7 km/h (4 Bft) 100,00 %
20.05.2016 10:57 11,3 C 88 % 1020,0 hPa 0,0 l/m 16,3 km/h (3 Bft) SW 229 0 min 0,000 mm 0,8 UV-I 134 W/m 9,4 C 6,2 C 19,3 km/h (3 Bft) 96,15 %
20.05.2016 10:58 11,3 C 88 % 1020,0 hPa 0,0 l/m 17,2 km/h (3 Bft) SW 230 0 min 0,000 mm 0,8 UV-I 141 W/m 9,4 C 5,9 C 25,7 km/h (4 Bft) 95,83 %
20.05.2016 10:59 11,3 C 88 % 1020,0 hPa 0,0 l/m 18,6 km/h (3 Bft) W-SW 240 0 min 0,000 mm 0,8 UV-I 145 W/m 9,4 C 5,4 C 29,0 km/h (5 Bft) 100,00 %
20.05.2016 11:00 11,3 C 87 % 1020,0 hPa 0,0 l/m 11,5 km/h (2 Bft) SW 234 0 min 0,076 mm 0,8 UV-I 149 W/m 9,2 C 8,3 C 17,7 km/h (3 Bft) 100,00 %
20.05.2016 11:01 11,3 C 88 % 1020,1 hPa 0,0 l/m 14,1 km/h (3 Bft) SW 236 0 min 0,000 mm 0,9 UV-I 154 W/m 9,4 C 7,1 C 22,5 km/h (4 Bft) 95,65 %
20.05.2016 11:02 11,3 C 87 % 1020,0 hPa 0,0 l/m 13,1 km/h (3 Bft) W-SW 258 0 min 0,000 mm 0,9 UV-I 152 W/m 9,2 C 7,5 C 17,7 km/h (3 Bft) 100,00 %
20.05.2016 11:03 11,3 C 87 % 1020,1 hPa 0,0 l/m 15,4 km/h (3 Bft) SW 234 0 min 0,000 mm 0,8 UV-I 146 W/m 9,2 C 6,6 C 19,3 km/h (3 Bft) 100,00 %
20.05.2016 11:04 11,3 C 87 % 1020,0 hPa 0,0 l/m 13,5 km/h (3 Bft) SW 224 0 min 0,000 mm 0,8 UV-I 142 W/m 9,2 C 7,3 C 19,3 km/h (3 Bft) 100,00 %
20.05.2016 11:05 11,3 C 88 % 1020,1 hPa 0,0 l/m 6,5 km/h (2 Bft) SW 217 0 min 0,000 mm 0,9 UV-I 145 W/m 9,4 C 11,3 C 9,7 km/h (2 Bft) 94,12 %
20.05.2016 11:06 11,4 C 88 % 1020,1 hPa 0,0 l/m 14,6 km/h (3 Bft) W-SW 250 0 min 0,000 mm 0,9 UV-I 150 W/m 9,5 C 7,0 C 24,1 km/h (4 Bft) 96,30 %
20.05.2016 11:07 11,4 C 87 % 1020,0 hPa 0,0 l/m 16,8 km/h (3 Bft) SW 230 0 min 0,000 mm 0,9 UV-I 152 W/m 9,3 C 6,2 C 20,9 km/h (4 Bft) 92,00 %
20.05.2016 11:08 11,4 C 87 % 1020,1 hPa 0,0 l/m 22,1 km/h (4 Bft) W-SW 237 0 min 0,000 mm 0,9 UV-I 155 W/m 9,3 C 4,5 C 27,4 km/h (4 Bft) 100,00 %
20.05.2016 11:09 11,4 C 87 % 1020,0 hPa 0,0 l/m 16,4 km/h (3 Bft) W 280 0 min 0,000 mm 0,9 UV-I 155 W/m 9,3 C 6,3 C 22,5 km/h (4 Bft) 100,00 %
20.05.2016 11:10 11,4 C 87 % 1020,0 hPa 0,0 l/m 15,0 km/h (3 Bft) SW 236 0 min 0,000 mm 0,9 UV-I 154 W/m 9,3 C 6,8 C 19,3 km/h (3 Bft) 100,00 %
20.05.2016 11:11 11,4 C 87 % 1020,0 hPa 0,0 l/m 14,5 km/h (3 Bft) S-SW 197 0 min 0,000 mm 0,9 UV-I 157 W/m 9,3 C 7,0 C 22,5 km/h (4 Bft) 100,00 %
20.05.2016 11:12 11,4 C 87 % 1020,0 hPa 0,0 l/m 17,0 km/h (3 Bft) W 264 0 min 0,000 mm 1,0 UV-I 161 W/m 9,3 C 6,1 C 22,5 km/h (4 Bft) 100,00 %
20.05.2016 11:13 11,4 C 87 % 1020,0 hPa 0,0 l/m 14,9 km/h (3 Bft) SW 215 0 min 0,000 mm 1,0 UV-I 163 W/m 9,3 C 6,9 C 22,5 km/h (4 Bft) 95,65 %
20.05.2016 11:14 11,4 C 87 % 1020,0 hPa 0,0 l/m 11,5 km/h (2 Bft) SW 221 0 min 0,000 mm 1,0 UV-I 166 W/m 9,3 C 8,4 C 17,7 km/h (3 Bft) 100,00 %
20.05.2016 11:15 11,4 C 87 % 1020,0 hPa 0,0 l/m 14,0 km/h (3 Bft) SW 226 0 min 0,000 mm 1,0 UV-I 174 W/m 9,3 C 7,2 C 22,5 km/h (4 Bft) 100,00 %
20.05.2016 11:16 11,4 C 87 % 1020,0 hPa 0,0 l/m 14,4 km/h (3 Bft) S-SW 202 0 min 0,000 mm 1,1 UV-I 180 W/m 9,3 C 7,1 C 25,7 km/h (4 Bft) 96,55 %
20.05.2016 11:17 11,4 C 87 % 1020,0 hPa 0,0 l/m 16,3 km/h (3 Bft) S-SW 194 0 min 0,000 mm 1,1 UV-I 181 W/m 9,3 C 6,3 C 24,1 km/h (4 Bft) 100,00 %
20.05.2016 11:18 11,5 C 87 % 1020,0 hPa 0,0 l/m 16,5 km/h (3 Bft) S-SW 212 0 min 0,000 mm 1,1 UV-I 182 W/m 9,4 C 6,4 C 24,1 km/h (4 Bft) 100,00 %
20.05.2016 11:19 11,5 C 87 % 1020,0 hPa 0,0 l/m 13,8 km/h (3 Bft) W-SW 241 0 min 0,000 mm 1,1 UV-I 183 W/m 9,4 C 7,4 C 22,5 km/h (4 Bft) 100,00 %
20.05.2016 11:20 11,5 C 87 % 1020,0 hPa 0,0 l/m 18,0 km/h (3 Bft) S-SW 212 0 min 0,000 mm 1,1 UV-I 180 W/m 9,4 C 5,9 C 27,4 km/h (4 Bft) 100,00 %
20.05.2016 11:21 11,5 C 87 % 1020,1 hPa 0,0 l/m 14,2 km/h (3 Bft) W-SW 238 0 min 0,000 mm 1,1 UV-I 178 W/m 9,4 C 7,3 C 19,3 km/h (3 Bft) 100,00 %
20.05.2016 11:22 11,5 C 87 % 1020,1 hPa 0,0 l/m 18,3 km/h (3 Bft) W-SW 238 0 min 0,000 mm 1,1 UV-I 178 W/m 9,4 C 5,8 C 25,7 km/h (4 Bft) 100,00 %
20.05.2016 11:23 11,5 C 87 % 1020,1 hPa 0,0 l/m 15,4 km/h (3 Bft) W-SW 251 0 min 0,000 mm 1,1 UV-I 178 W/m 9,4 C 6,8 C 20,9 km/h (4 Bft) 100,00 %
20.05.2016 11:24 11,5 C 87 % 1020,1 hPa 0,0 l/m 14,4 km/h (3 Bft) W-SW 252 0 min 0,000 mm 1,1 UV-I 178 W/m 9,4 C 7,2 C 20,9 km/h (4 Bft) 100,00 %
20.05.2016 11:25 11,6 C 87 % 1020,1 hPa 0,0 l/m 12,0 km/h (2 Bft) W-SW 244 0 min 0,000 mm 1,1 UV-I 172 W/m 9,5 C 8,4 C 17,7 km/h (3 Bft) 100,00 %
20.05.2016 11:26 11,6 C 87 % 1020,1 hPa 0,0 l/m 20,5 km/h (4 Bft) SW 223 0 min 0,000 mm 1,0 UV-I 166 W/m 9,5 C 5,2 C 25,7 km/h (4 Bft) 100,00 %
20.05.2016 11:27 11,6 C 87 % 1020,1 hPa 0,0 l/m 18,0 km/h (3 Bft) W-SW 243 0 min 0,000 mm 1,0 UV-I 163 W/m 9,5 C 6,0 C 24,1 km/h (4 Bft) 95,83 %
20.05.2016 11:28 11,6 C 87 % 1020,1 hPa 0,0 l/m 17,4 km/h (3 Bft) SW 226 0 min 0,000 mm 1,0 UV-I 159 W/m 9,5 C 6,2 C 24,1 km/h (4 Bft) 100,00 %
20.05.2016 11:29 11,6 C 87 % 1020,1 hPa 0,0 l/m 13,6 km/h (3 Bft) S-SW 212 0 min 0,000 mm 1,0 UV-I 157 W/m 9,5 C 7,6 C 19,3 km/h (3 Bft) 95,83 %
20.05.2016 11:30 11,6 C 87 % 1020,1 hPa 0,0 l/m 19,3 km/h (3 Bft) SW 220 0 min 0,000 mm 0,9 UV-I 158 W/m 9,5 C 5,6 C 24,1 km/h (4 Bft) 100,00 %
20.05.2016 11:31 11,6 C 87 % 1020,1 hPa 0,0 l/m 23,2 km/h (4 Bft) W-SW 247 0 min 0,000 mm 1,0 UV-I 161 W/m 9,5 C 4,5 C 29,0 km/h (5 Bft) 95,83 %
20.05.2016 11:32 11,6 C 87 % 1020,1 hPa 0,0 l/m 17,1 km/h (3 Bft) W-SW 247 0 min 0,000 mm 1,0 UV-I 165 W/m 9,5 C 6,3 C 25,7 km/h (4 Bft) 93,75 %
20.05.2016 11:33 11,6 C 87 % 1020,2 hPa 0,0 l/m 15,9 km/h (3 Bft) W-SW 258 0 min 0,000 mm 1,0 UV-I 169 W/m 9,5 C 6,7 C 22,5 km/h (4 Bft) 100,00 %
20.05.2016 11:34 11,6 C 87 % 1020,2 hPa 0,0 l/m 13,3 km/h (3 Bft) S 188 0 min 0,000 mm 1,0 UV-I 173 W/m 9,5 C 7,8 C 20,9 km/h (4 Bft) 93,10 %
20.05.2016 11:35 11,6 C 87 % 1020,2 hPa 0,0 l/m 18,7 km/h (3 Bft) SW 214 0 min 0,000 mm 1,1 UV-I 180 W/m 9,5 C 5,8 C 27,4 km/h (4 Bft) 100,00 %
20.05.2016 11:36 11,6 C 87 % 1020,2 hPa 0,0 l/m 16,1 km/h (3 Bft) SW 234 0 min 0,000 mm 1,1 UV-I 185 W/m 9,5 C 6,7 C 22,5 km/h (4 Bft) 96,15 %
20.05.2016 11:37 11,6 C 87 % 1020,2 hPa 0,0 l/m 16,7 km/h (3 Bft) SW 220 0 min 0,000 mm 1,1 UV-I 186 W/m 9,5 C 6,4 C 27,4 km/h (4 Bft) 100,00 %
20.05.2016 11:38 11,6 C 87 % 1020,2 hPa 0,0 l/m 17,5 km/h (3 Bft) W-SW 252 0 min 0,000 mm 1,1 UV-I 186 W/m 9,5 C 6,2 C 24,1 km/h (4 Bft) 96,30 %
20.05.2016 11:39 11,6 C 87 % 1020,2 hPa 0,0 l/m 13,3 km/h (3 Bft) SW 227 0 min 0,000 mm 1,1 UV-I 188 W/m 9,5 C 7,8 C 19,3 km/h (3 Bft) 96,15 %
20.05.2016 11:40 11,7 C 87 % 1020,2 hPa 0,0 l/m 12,9 km/h (3 Bft) SW 225 0 min 0,000 mm 1,1 UV-I 190 W/m 9,6 C 8,1 C 17,7 km/h (3 Bft) 100,00 %
20.05.2016 11:41 11,7 C 87 % 1020,1 hPa 0,0 l/m 13,7 km/h (3 Bft) W 269 0 min 0,000 mm 1,1 UV-I 190 W/m 9,6 C 7,7 C 20,9 km/h (4 Bft) 96,30 %
20.05.2016 11:42 11,7 C 87 % 1020,2 hPa 0,0 l/m 12,3 km/h (3 Bft) SW 227 0 min 0,000 mm 1,2 UV-I 199 W/m 9,6 C 8,3 C 20,9 km/h (4 Bft) 100,00 %
20.05.2016 11:43 11,7 C 87 % 1020,2 hPa 0,0 l/m 11,5 km/h (2 Bft) SW 217 0 min 0,000 mm 1,3 UV-I 216 W/m 9,6 C 8,7 C 19,3 km/h (3 Bft) 95,65 %
20.05.2016 11:44 11,7 C 87 % 1020,1 hPa 0,0 l/m 14,2 km/h (3 Bft) SW 220 0 min 0,000 mm 1,4 UV-I 234 W/m 9,6 C 7,5 C 24,1 km/h (4 Bft) 100,00 %
20.05.2016 11:45 11,7 C 86 % 1020,1 hPa 0,0 l/m 17,3 km/h (3 Bft) S 186 0 min 0,000 mm 1,4 UV-I 249 W/m 9,4 C 6,4 C 27,4 km/h (4 Bft) 95,65 %
20.05.2016 11:46 11,7 C 86 % 1020,1 hPa 0,0 l/m 18,6 km/h (3 Bft) SW 224 0 min 0,000 mm 1,5 UV-I 254 W/m 9,4 C 5,9 C 24,1 km/h (4 Bft) 100,00 %
20.05.2016 11:47 11,8 C 86 % 1020,1 hPa 0,0 l/m 13,4 km/h (3 Bft) SW 221 0 min 0,000 mm 1,5 UV-I 253 W/m 9,5 C 8,0 C 19,3 km/h (3 Bft) 92,86 %
20.05.2016 11:48 11,8 C 86 % 1020,1 hPa 0,0 l/m 18,2 km/h (3 Bft) SW 214 0 min 0,000 mm 1,5 UV-I 251 W/m 9,5 C 6,2 C 27,4 km/h (4 Bft) 100,00 %
20.05.2016 11:49 11,8 C 87 % 1020,1 hPa 0,0 l/m 18,5 km/h (3 Bft) W-SW 248 0 min 0,000 mm 1,6 UV-I 260 W/m 9,7 C 6,1 C 22,5 km/h (4 Bft) 95,65 %
20.05.2016 11:50 11,8 C 87 % 1020,1 hPa 0,0 l/m 11,8 km/h (2 Bft) SW 231 0 min 0,000 mm 1,7 UV-I 279 W/m 9,7 C 8,7 C 16,1 km/h (3 Bft) 96,30 %
20.05.2016 11:51 11,9 C 87 % 1020,1 hPa 0,0 l/m 11,1 km/h (2 Bft) W-SW 250 0 min 0,000 mm 1,8 UV-I 302 W/m 9,8 C 9,1 C 16,1 km/h (3 Bft) 100,00 %
20.05.2016 11:52 11,9 C 87 % 1020,1 hPa 0,0 l/m 20,0 km/h (4 Bft) SW 235 0 min 0,000 mm 2,0 UV-I 331 W/m 9,8 C 5,7 C 25,7 km/h (4 Bft) 93,33 %
20.05.2016 11:53 12,0 C 87 % 1020,1 hPa 0,0 l/m 19,3 km/h (3 Bft) W 275 0 min 0,000 mm 2,0 UV-I 350 W/m 9,9 C 6,1 C 29,0 km/h (5 Bft) 100,00 %
20.05.2016 11:54 12,1 C 86 % 1020,1 hPa 0,0 l/m 15,3 km/h (3 Bft) W-SW 242 0 min 0,000 mm 1,9 UV-I 344 W/m 9,8 C 7,6 C 19,3 km/h (3 Bft) 93,33 %
20.05.2016 11:55 12,1 C 86 % 1020,1 hPa 0,0 l/m 14,8 km/h (3 Bft) W-SW 251 0 min 0,000 mm 1,7 UV-I 312 W/m 9,8 C 7,8 C 20,9 km/h (4 Bft) 97,37 %
20.05.2016 11:56 12,1 C 86 % 1020,1 hPa 0,0 l/m 11,8 km/h (2 Bft) W-SW 242 0 min 0,000 mm 1,6 UV-I 287 W/m 9,8 C 9,0 C 16,1 km/h (3 Bft) 100,00 %
20.05.2016 11:57 12,2 C 86 % 1020,1 hPa 0,0 l/m 18,7 km/h (3 Bft) SW 227 0 min 0,000 mm 1,6 UV-I 284 W/m 9,9 C 6,5 C 30,6 km/h (5 Bft) 91,30 %
20.05.2016 11:58 12,2 C 86 % 1020,1 hPa 0,0 l/m 15,4 km/h (3 Bft) SW 221 0 min 0,000 mm 1,6 UV-I 277 W/m 9,9 C 7,6 C 19,3 km/h (3 Bft) 100,00 %
20.05.2016 11:59 12,2 C 86 % 1020,1 hPa 0,0 l/m 15,8 km/h (3 Bft) SW 227 0 min 0,000 mm 1,5 UV-I 265 W/m 9,9 C 7,5 C 24,1 km/h (4 Bft) 96,30 %
20.05.2016 12:00 12,2 C 85 % 1020,1 hPa 0,0 l/m 18,0 km/h (3 Bft) SW 220 0 min 0,000 mm 1,5 UV-I 257 W/m 9,8 C 6,7 C 25,7 km/h (4 Bft) 100,00 %
20.05.2016 12:02 12,1 C 85 % 1020,1 hPa 0,0 l/m 15,3 km/h (3 Bft) SW 227 0 min 0,127 mm 1,5 UV-I 254 W/m 9,7 C 7,6 C 22,5 km/h (4 Bft) 100,00 %
20.05.2016 12:03 12,1 C 86 % 1020,2 hPa 0,0 l/m 12,8 km/h (3 Bft) SW 225 0 min 0,000 mm 1,6 UV-I 257 W/m 9,8 C 8,6 C 17,7 km/h (3 Bft) 100,00 %
20.05.2016 12:04 12,1 C 86 % 1020,2 hPa 0,0 l/m 18,9 km/h (3 Bft) SW 216 0 min 0,000 mm 1,5 UV-I 246 W/m 9,8 C 6,3 C 24,1 km/h (4 Bft) 100,00 %
20.05.2016 12:05 12,1 C 85 % 1020,2 hPa 0,0 l/m 17,9 km/h (3 Bft) W-SW 237 0 min 0,000 mm 1,5 UV-I 232 W/m 9,7 C 6,7 C 24,1 km/h (4 Bft) 96,30 %
20.05.2016 12:06 12,1 C 85 % 1020,1 hPa 0,0 l/m 21,1 km/h (4 Bft) S-SW 209 0 min 0,000 mm 1,3 UV-I 218 W/m 9,7 C 5,7 C 27,4 km/h (4 Bft) 100,00 %
20.05.2016 12:07 12,1 C 85 % 1020,1 hPa 0,0 l/m 20,0 km/h (4 Bft) SW 225 0 min 0,000 mm 1,3 UV-I 206 W/m 9,7 C 6,0 C 27,4 km/h (4 Bft) 96,30 %
20.05.2016 12:08 12,1 C 86 % 1020,2 hPa 0,0 l/m 12,3 km/h (3 Bft) W-SW 238 0 min 0,000 mm 1,3 UV-I 197 W/m 9,8 C 8,8 C 20,9 km/h (4 Bft) 88,00 %
20.05.2016 12:09 12,1 C 86 % 1020,2 hPa 0,0 l/m 14,4 km/h (3 Bft) S-SW 205 0 min 0,000 mm 1,3 UV-I 195 W/m 9,8 C 7,9 C 22,5 km/h (4 Bft) 100,00 %
20.05.2016 12:10 12,1 C 86 % 1020,2 hPa 0,0 l/m 11,6 km/h (2 Bft) W-SW 238 0 min 0,000 mm 1,2 UV-I 194 W/m 9,8 C 9,1 C 17,7 km/h (3 Bft) 100,00 %
20.05.2016 12:11 12,2 C 86 % 1020,3 hPa 0,0 l/m 20,7 km/h (4 Bft) SW 232 0 min 0,000 mm 1,2 UV-I 190 W/m 9,9 C 5,9 C 25,7 km/h (4 Bft) 95,83 %
20.05.2016 12:12 12,2 C 86 % 1020,2 hPa 0,0 l/m 12,7 km/h (3 Bft) W-SW 238 0 min 0,000 mm 1,2 UV-I 189 W/m 9,9 C 8,7 C 19,3 km/h (3 Bft) 100,00 %
20.05.2016 12:13 12,2 C 86 % 1020,2 hPa 0,0 l/m 9,1 km/h (2 Bft) SW 229 0 min 0,000 mm 1,3 UV-I 190 W/m 9,9 C 10,5 C 16,1 km/h (3 Bft) 96,30 %
20.05.2016 12:14 12,2 C 86 % 1020,2 hPa 0,0 l/m 8,7 km/h (2 Bft) W-SW 246 0 min 0,000 mm 1,3 UV-I 207 W/m 9,9 C 10,7 C 14,5 km/h (3 Bft) 98,47 %
20.05.2016 12:15 12,2 C 86 % 1020,2 hPa 0,0 l/m 14,5 km/h (3 Bft) SW 216 0 min 0,000 mm 1,3 UV-I 212 W/m 9,9 C 8,0 C 19,3 km/h (3 Bft) 97,73 %
20.05.2016 12:16 12,2 C 86 % 1020,3 hPa 0,0 l/m 19,9 km/h (4 Bft) W-SW 238 0 min 0,000 mm 1,3 UV-I 209 W/m 9,9 C 6,2 C 25,7 km/h (4 Bft) 100,00 %
20.05.2016 12:17 12,2 C 86 % 1020,3 hPa 0,0 l/m 16,6 km/h (3 Bft) SW 233 0 min 0,000 mm 1,3 UV-I 202 W/m 9,9 C 7,2 C 24,1 km/h (4 Bft) 100,00 %
20.05.2016 12:18 12,2 C 85 % 1020,2 hPa 0,0 l/m 14,0 km/h (3 Bft) W 259 0 min 0,000 mm 1,2 UV-I 194 W/m 9,8 C 8,2 C 22,5 km/h (4 Bft) 100,00 %
20.05.2016 12:19 12,2 C 85 % 1020,2 hPa 0,0 l/m 16,2 km/h (3 Bft) W-SW 239 0 min 0,000 mm 1,2 UV-I 186 W/m 9,8 C 7,4 C 24,1 km/h (4 Bft) 100,00 %
20.05.2016 12:20 12,2 C 85 % 1020,2 hPa 0,0 l/m 14,6 km/h (3 Bft) W-SW 240 0 min 0,000 mm 1,2 UV-I 185 W/m 9,8 C 8,0 C 22,5 km/h (4 Bft) 100,00 %
20.05.2016 12:21 12,2 C 85 % 1020,3 hPa 0,0 l/m 21,3 km/h (4 Bft) SW 229 0 min 0,000 mm 1,2 UV-I 188 W/m 9,8 C 5,8 C 29,0 km/h (5 Bft) 100,00 %
20.05.2016 12:22 12,1 C 85 % 1020,2 hPa 0,0 l/m 13,2 km/h (3 Bft) W-SW 238 0 min 0,000 mm 1,2 UV-I 189 W/m 9,7 C 8,4 C 20,9 km/h (4 Bft) 100,00 %
20.05.2016 12:23 12,1 C 85 % 1020,2 hPa 0,0 l/m 21,6 km/h (4 Bft) W-SW 258 0 min 0,000 mm 1,2 UV-I 190 W/m 9,7 C 5,5 C 25,7 km/h (4 Bft) 100,00 %
20.05.2016 12:24 12,1 C 85 % 1020,3 hPa 0,0 l/m 16,4 km/h (3 Bft) S 184 0 min 0,000 mm 1,2 UV-I 184 W/m 9,7 C 7,2 C 20,9 km/h (4 Bft) 93,33 %
20.05.2016 12:25 12,1 C 85 % 1020,3 hPa 0,0 l/m 17,8 km/h (3 Bft) S-SW 196 0 min 0,000 mm 1,2 UV-I 181 W/m 9,7 C 6,7 C 24,1 km/h (4 Bft) 100,00 %
20.05.2016 12:26 12,1 C 85 % 1020,2 hPa 0,0 l/m 15,5 km/h (3 Bft) SW 230 0 min 0,000 mm 1,2 UV-I 191 W/m 9,7 C 7,5 C 24,1 km/h (4 Bft) 100,00 %
20.05.2016 12:27 12,1 C 85 % 1020,2 hPa 0,0 l/m 17,2 km/h (3 Bft) SW 217 0 min 0,000 mm 1,2 UV-I 191 W/m 9,7 C 6,9 C 25,7 km/h (4 Bft) 95,65 %
20.05.2016 12:28 12,1 C 85 % 1020,3 hPa 0,0 l/m 17,3 km/h (3 Bft) W-SW 246 0 min 0,000 mm 1,2 UV-I 181 W/m 9,7 C 6,9 C 22,5 km/h (4 Bft) 100,00 %
20.05.2016 12:29 12,1 C 85 % 1020,3 hPa 0,0 l/m 12,2 km/h (2 Bft) SW 219 0 min 0,000 mm 1,2 UV-I 167 W/m 9,7 C 8,8 C 16,1 km/h (3 Bft) 100,00 %
20.05.2016 12:30 12,1 C 85 % 1020,3 hPa 0,0 l/m 15,5 km/h (3 Bft) S-SW 208 0 min 0,000 mm 1,0 UV-I 148 W/m 9,7 C 7,5 C 25,7 km/h (4 Bft) 100,00 %
20.05.2016 12:31 12,1 C 86 % 1020,3 hPa 0,0 l/m 10,5 km/h (2 Bft) SW 231 0 min 0,000 mm 1,0 UV-I 136 W/m 9,8 C 9,7 C 12,9 km/h (3 Bft) 100,00 %
20.05.2016 12:32 12,2 C 86 % 1020,3 hPa 0,0 l/m 13,6 km/h (3 Bft) SW 227 0 min 0,000 mm 0,9 UV-I 129 W/m 9,9 C 8,4 C 25,7 km/h (4 Bft) 100,00 %
20.05.2016 12:33 12,1 C 85 % 1020,3 hPa 0,0 l/m 13,3 km/h (3 Bft) W 273 0 min 0,000 mm 0,9 UV-I 127 W/m 9,7 C 8,4 C 24,1 km/h (4 Bft) 100,00 %
20.05.2016 12:34 12,2 C 85 % 1020,3 hPa 0,0 l/m 14,3 km/h (3 Bft) W-SW 246 0 min 0,000 mm 0,9 UV-I 134 W/m 9,8 C 8,1 C 24,1 km/h (4 Bft) 90,91 %
20.05.2016 12:35 12,2 C 85 % 1020,3 hPa 0,0 l/m 17,5 km/h (3 Bft) SW 234 0 min 0,000 mm 1,0 UV-I 150 W/m 9,8 C 6,9 C 22,5 km/h (4 Bft) 100,00 %
20.05.2016 12:36 12,1 C 84 % 1020,3 hPa 0,0 l/m 19,1 km/h (3 Bft) SW 223 0 min 0,000 mm 1,1 UV-I 160 W/m 9,5 C 6,3 C 24,1 km/h (4 Bft) 100,00 %
20.05.2016 12:37 12,1 C 84 % 1020,3 hPa 0,0 l/m 16,5 km/h (3 Bft) SW 231 0 min 0,000 mm 1,1 UV-I 171 W/m 9,5 C 7,1 C 24,1 km/h (4 Bft) 100,00 %
20.05.2016 12:38 12,1 C 85 % 1020,4 hPa 0,0 l/m 13,0 km/h (3 Bft) W 259 0 min 0,000 mm 1,2 UV-I 188 W/m 9,7 C 8,5 C 17,7 km/h (3 Bft) 100,00 %
20.05.2016 12:39 12,1 C 84 % 1020,3 hPa 0,0 l/m 14,8 km/h (3 Bft) W-SW 252 0 min 0,000 mm 1,2 UV-I 200 W/m 9,5 C 7,8 C 19,3 km/h (3 Bft) 100,00 %
20.05.2016 12:40 12,1 C 85 % 1020,4 hPa 0,0 l/m 18,9 km/h (3 Bft) SW 215 0 min 0,000 mm 1,2 UV-I 204 W/m 9,7 C 6,3 C 25,7 km/h (4 Bft) 100,00 %
20.05.2016 12:41 12,1 C 85 % 1020,3 hPa 0,0 l/m 14,4 km/h (3 Bft) W-SW 241 0 min 0,000 mm 1,3 UV-I 209 W/m 9,7 C 7,9 C 19,3 km/h (3 Bft) 100,00 %
20.05.2016 12:42 12,1 C 84 % 1020,3 hPa 0,0 l/m 14,0 km/h (3 Bft) S-SW 198 0 min 0,000 mm 1,3 UV-I 202 W/m 9,5 C 8,1 C 20,9 km/h (4 Bft) 100,00 %
20.05.2016 12:43 12,2 C 85 % 1020,4 hPa 0,0 l/m 10,1 km/h (2 Bft) W-SW 248 0 min 0,000 mm 1,3 UV-I 199 W/m 9,8 C 10,0 C 12,9 km/h (3 Bft) 100,00 %
20.05.2016 12:44 12,2 C 85 % 1020,3 hPa 0,0 l/m 11,4 km/h (2 Bft) W-SW 257 0 min 0,000 mm 1,3 UV-I 202 W/m 9,8 C 9,3 C 17,7 km/h (3 Bft) 95,65 %
20.05.2016 12:45 12,2 C 85 % 1020,3 hPa 0,0 l/m 12,0 km/h (2 Bft) W 263 0 min 0,000 mm 1,3 UV-I 208 W/m 9,8 C 9,0 C 16,1 km/h (3 Bft) 100,00 %
20.05.2016 12:46 12,2 C 85 % 1020,3 hPa 0,0 l/m 18,7 km/h (3 Bft) S-SW 205 0 min 0,000 mm 1,3 UV-I 211 W/m 9,8 C 6,5 C 25,7 km/h (4 Bft) 100,00 %
20.05.2016 12:47 12,3 C 85 % 1020,3 hPa 0,0 l/m 14,3 km/h (3 Bft) SW 222 0 min 0,000 mm 1,3 UV-I 207 W/m 9,9 C 8,2 C 19,3 km/h (3 Bft) 100,00 %
20.05.2016 12:48 12,3 C 85 % 1020,4 hPa 0,0 l/m 15,3 km/h (3 Bft) SW 234 0 min 0,000 mm 1,2 UV-I 196 W/m 9,9 C 7,8 C 20,9 km/h (4 Bft) 100,00 %
20.05.2016 12:49 12,3 C 85 % 1020,3 hPa 0,0 l/m 15,1 km/h (3 Bft) SW 232 0 min 0,000 mm 1,2 UV-I 186 W/m 9,9 C 7,9 C 19,3 km/h (3 Bft) 100,00 %
20.05.2016 12:50 12,3 C 84 % 1020,3 hPa 0,0 l/m 10,9 km/h (2 Bft) SW 229 0 min 0,000 mm 1,2 UV-I 182 W/m 9,7 C 9,7 C 14,5 km/h (3 Bft) 96,15 %
20.05.2016 12:51 12,3 C 85 % 1020,4 hPa 0,0 l/m 12,0 km/h (2 Bft) W-SW 257 0 min 0,000 mm 1,2 UV-I 187 W/m 9,9 C 9,2 C 17,7 km/h (3 Bft) 100,00 %
20.05.2016 12:52 12,3 C 85 % 1020,4 hPa 0,0 l/m 12,0 km/h (2 Bft) SW 236 0 min 0,000 mm 1,2 UV-I 196 W/m 9,9 C 9,2 C 22,5 km/h (4 Bft) 100,00 %
20.05.2016 12:53 12,3 C 85 % 1020,4 hPa 0,0 l/m 15,6 km/h (3 Bft) W 265 0 min 0,000 mm 1,2 UV-I 196 W/m 9,9 C 7,7 C 20,9 km/h (4 Bft) 100,00 %
20.05.2016 12:54 12,3 C 84 % 1020,4 hPa 0,0 l/m 10,0 km/h (2 Bft) SW 231 0 min 0,000 mm 1,2 UV-I 185 W/m 9,7 C 10,1 C 12,9 km/h (3 Bft) 100,00 %
20.05.2016 12:55 12,3 C 84 % 1020,4 hPa 0,0 l/m 12,1 km/h (2 Bft) W-SW 254 0 min 0,000 mm 1,1 UV-I 166 W/m 9,7 C 9,1 C 16,1 km/h (3 Bft) 100,00 %
20.05.2016 12:56 12,3 C 84 % 1020,4 hPa 0,0 l/m 16,7 km/h (3 Bft) W-SW 246 0 min 0,000 mm 1,0 UV-I 152 W/m 9,7 C 7,3 C 25,7 km/h (4 Bft) 100,00 %
20.05.2016 12:57 12,3 C 85 % 1020,4 hPa 0,0 l/m 20,3 km/h (4 Bft) S-SW 212 0 min 0,000 mm 1,0 UV-I 144 W/m 9,9 C 6,2 C 25,7 km/h (4 Bft) 92,31 %
20.05.2016 12:58 12,3 C 84 % 1020,5 hPa 0,0 l/m 20,2 km/h (4 Bft) W 264 0 min 0,000 mm 1,0 UV-I 148 W/m 9,7 C 6,2 C 27,4 km/h (4 Bft) 100,00 %
20.05.2016 12:59 12,3 C 84 % 1020,4 hPa 0,0 l/m 13,1 km/h (3 Bft) W-SW 249 0 min 0,000 mm 1,0 UV-I 160 W/m 9,7 C 8,7 C 22,5 km/h (4 Bft) 100,00 %
20.05.2016 13:00 12,3 C 84 % 1020,4 hPa 0,0 l/m 21,0 km/h (4 Bft) W-SW 253 0 min 0,127 mm 1,1 UV-I 170 W/m 9,7 C 6,0 C 30,6 km/h (5 Bft) 100,00 %
20.05.2016 13:02 12,3 C 84 % 1020,4 hPa 0,0 l/m 13,3 km/h (3 Bft) S 186 0 min 0,000 mm 1,1 UV-I 168 W/m 9,7 C 8,6 C 22,5 km/h (4 Bft) 100,00 %
20.05.2016 13:03 12,3 C 84 % 1020,4 hPa 0,0 l/m 11,3 km/h (2 Bft) S-SW 208 0 min 0,000 mm 1,1 UV-I 167 W/m 9,7 C 9,5 C 19,3 km/h (3 Bft) 100,00 %
20.05.2016 13:04 12,2 C 84 % 1020,4 hPa 0,0 l/m 18,0 km/h (3 Bft) W-SW 240 0 min 0,000 mm 1,1 UV-I 169 W/m 9,6 C 6,7 C 22,5 km/h (4 Bft) 100,00 %
20.05.2016 13:05 12,2 C 83 % 1020,4 hPa 0,0 l/m 19,3 km/h (3 Bft) SW 232 0 min 0,000 mm 1,2 UV-I 176 W/m 9,4 C 6,3 C 27,4 km/h (4 Bft) 100,00 %
20.05.2016 13:06 12,2 C 84 % 1020,4 hPa 0,0 l/m 18,7 km/h (3 Bft) W-SW 242 0 min 0,000 mm 1,3 UV-I 201 W/m 9,6 C 6,5 C 22,5 km/h (4 Bft) 100,00 %
20.05.2016 13:07 12,2 C 84 % 1020,3 hPa 0,0 l/m 15,5 km/h (3 Bft) SW 228 0 min 0,000 mm 1,5 UV-I 236 W/m 9,6 C 7,6 C 20,9 km/h (4 Bft) 100,00 %
20.05.2016 13:08 12,3 C 85 % 1020,3 hPa 0,0 l/m 17,5 km/h (3 Bft) S-SW 194 0 min 0,000 mm 1,5 UV-I 243 W/m 9,9 C 7,0 C 30,6 km/h (5 Bft) 100,00 %
20.05.2016 13:09 12,3 C 85 % 1020,3 hPa 0,0 l/m 19,8 km/h (3 Bft) SW 226 0 min 0,000 mm 1,5 UV-I 240 W/m 9,9 C 6,3 C 25,7 km/h (4 Bft) 100,00 %
20.05.2016 13:10 12,3 C 84 % 1020,3 hPa 0,0 l/m 21,3 km/h (4 Bft) S-SW 195 0 min 0,000 mm 1,4 UV-I 230 W/m 9,7 C 5,9 C 27,4 km/h (4 Bft) 96,43 %
20.05.2016 13:11 12,3 C 84 % 1020,3 hPa 0,0 l/m 20,4 km/h (4 Bft) SW 230 0 min 0,000 mm 1,4 UV-I 229 W/m 9,7 C 6,1 C 29,0 km/h (5 Bft) 100,00 %
20.05.2016 13:12 12,3 C 84 % 1020,3 hPa 0,0 l/m 22,3 km/h (4 Bft) W-SW 240 0 min 0,000 mm 1,4 UV-I 242 W/m 9,7 C 5,6 C 29,0 km/h (5 Bft) 100,00 %
20.05.2016 13:13 12,3 C 84 % 1020,3 hPa 0,0 l/m 18,2 km/h (3 Bft) W-SW 248 0 min 0,000 mm 1,5 UV-I 260 W/m 9,7 C 6,8 C 27,4 km/h (4 Bft) 100,00 %
20.05.2016 13:14 12,3 C 84 % 1020,3 hPa 0,0 l/m 19,6 km/h (3 Bft) W 259 0 min 0,000 mm 1,6 UV-I 273 W/m 9,7 C 6,4 C 29,0 km/h (5 Bft) 86,67 %
20.05.2016 13:15 12,3 C 83 % 1020,3 hPa 0,0 l/m 20,4 km/h (4 Bft) SW 225 0 min 0,000 mm 1,7 UV-I 281 W/m 9,5 C 6,1 C 32,2 km/h (5 Bft) 100,00 %
20.05.2016 13:16 12,3 C 84 % 1020,3 hPa 0,0 l/m 15,8 km/h (3 Bft) W-SW 250 0 min 0,000 mm 1,7 UV-I 279 W/m 9,7 C 7,6 C 25,7 km/h (4 Bft) 96,15 %
20.05.2016 13:17 12,4 C 83 % 1020,3 hPa 0,0 l/m 19,5 km/h (3 Bft) SW 236 0 min 0,000 mm 1,7 UV-I 281 W/m 9,6 C 6,5 C 25,7 km/h (4 Bft) 100,00 %
20.05.2016 13:18 12,4 C 83 % 1020,3 hPa 0,0 l/m 14,3 km/h (3 Bft) W-SW 253 0 min 0,000 mm 1,8 UV-I 302 W/m 9,6 C 8,3 C 20,9 km/h (4 Bft) 100,00 %
20.05.2016 13:19 12,4 C 84 % 1020,3 hPa 0,0 l/m 17,3 km/h (3 Bft) W-SW 254 0 min 0,000 mm 2,0 UV-I 332 W/m 9,8 C 7,2 C 22,5 km/h (4 Bft) 100,00 %
20.05.2016 13:20 12,5 C 84 % 1020,3 hPa 0,0 l/m 13,8 km/h (3 Bft) W-SW 242 0 min 0,000 mm 2,1 UV-I 354 W/m 9,9 C 8,6 C 20,9 km/h (4 Bft) 100,00 %
20.05.2016 13:21 12,6 C 84 % 1020,3 hPa 0,0 l/m 20,8 km/h (4 Bft) SW 232 0 min 0,000 mm 2,1 UV-I 368 W/m 10,0 C 6,4 C 27,4 km/h (4 Bft) 96,30 %
20.05.2016 13:22 12,6 C 83 % 1020,2 hPa 0,0 l/m 18,0 km/h (3 Bft) W 263 0 min 0,000 mm 2,2 UV-I 386 W/m 9,8 C 7,3 C 30,6 km/h (5 Bft) 100,00 %
20.05.2016 13:23 12,7 C 82 % 1020,2 hPa 0,0 l/m 21,8 km/h (4 Bft) W-SW 248 0 min 0,000 mm 2,4 UV-I 408 W/m 9,7 C 6,3 C 32,2 km/h (5 Bft) 100,00 %
20.05.2016 13:24 12,7 C 82 % 1020,2 hPa 0,0 l/m 16,8 km/h (3 Bft) W-SW 247 0 min 0,000 mm 2,4 UV-I 419 W/m 9,7 C 7,8 C 22,5 km/h (4 Bft) 95,65 %
20.05.2016 13:25 12,7 C 83 % 1020,2 hPa 0,0 l/m 19,6 km/h (3 Bft) W-SW 245 0 min 0,000 mm 2,4 UV-I 409 W/m 9,9 C 6,9 C 33,8 km/h (5 Bft) 95,83 %
20.05.2016 13:26 12,7 C 82 % 1020,2 hPa 0,0 l/m 23,9 km/h (4 Bft) W-SW 258 0 min 0,000 mm 2,3 UV-I 376 W/m 9,7 C 5,7 C 35,4 km/h (5 Bft) 100,00 %
20.05.2016 13:27 12,7 C 82 % 1020,2 hPa 0,0 l/m 18,5 km/h (3 Bft) SW 218 0 min 0,000 mm 2,1 UV-I 343 W/m 9,7 C 7,2 C 29,0 km/h (5 Bft) 96,67 %
20.05.2016 13:28 12,8 C 82 % 1020,3 hPa 0,0 l/m 17,1 km/h (3 Bft) SW 234 0 min 0,000 mm 2,1 UV-I 337 W/m 9,8 C 7,8 C 22,5 km/h (4 Bft) 98,55 %
20.05.2016 13:29 12,8 C 82 % 1020,2 hPa 0,0 l/m 14,8 km/h (3 Bft) W-SW 244 0 min 0,000 mm 2,2 UV-I 347 W/m 9,8 C 8,6 C 19,3 km/h (3 Bft) 97,73 %
20.05.2016 13:30 12,8 C 83 % 1020,3 hPa 0,0 l/m 16,5 km/h (3 Bft) W-SW 238 0 min 0,000 mm 2,3 UV-I 357 W/m 10,0 C 8,0 C 24,1 km/h (4 Bft) 100,00 %
20.05.2016 13:31 12,9 C 82 % 1020,3 hPa 0,0 l/m 20,9 km/h (4 Bft) SW 220 0 min 0,000 mm 2,3 UV-I 357 W/m 9,9 C 6,8 C 29,0 km/h (5 Bft) 97,56 %
20.05.2016 13:32 12,9 C 82 % 1020,3 hPa 0,0 l/m 16,7 km/h (3 Bft) SW 214 0 min 0,000 mm 2,2 UV-I 352 W/m 9,9 C 8,1 C 19,3 km/h (3 Bft) 100,00 %
20.05.2016 13:33 12,9 C 82 % 1020,3 hPa 0,0 l/m 17,3 km/h (3 Bft) W 263 0 min 0,000 mm 2,1 UV-I 331 W/m 9,9 C 7,9 C 24,1 km/h (4 Bft) 92,31 %
20.05.2016 13:34 12,9 C 82 % 1020,3 hPa 0,0 l/m 17,5 km/h (3 Bft) W-SW 240 0 min 0,000 mm 1,8 UV-I 313 W/m 9,9 C 7,8 C 22,5 km/h (4 Bft) 96,55 %
20.05.2016 13:35 12,9 C 81 % 1020,3 hPa 0,0 l/m 18,7 km/h (3 Bft) SW 223 0 min 0,000 mm 1,6 UV-I 313 W/m 9,7 C 7,4 C 29,0 km/h (5 Bft) 100,00 %
20.05.2016 13:36 12,9 C 81 % 1020,5 hPa 0,0 l/m 20,9 km/h (4 Bft) W-SW 252 0 min 0,000 mm 1,5 UV-I 227 W/m 9,7 C 6,8 C 29,0 km/h (5 Bft) 91,67 %
20.05.2016 13:37 12,8 C 81 % 1020,5 hPa 0,0 l/m 23,9 km/h (4 Bft) SW 223 0 min 0,000 mm 1,4 UV-I 209 W/m 9,6 C 5,9 C 25,7 km/h (4 Bft) 100,00 %
20.05.2016 13:38 12,8 C 82 % 1020,5 hPa 0,0 l/m 21,4 km/h (4 Bft) S-SW 207 0 min 0,000 mm 1,3 UV-I 204 W/m 9,8 C 6,5 C 25,7 km/h (4 Bft) 92,31 %
20.05.2016 13:39 12,8 C 82 % 1020,5 hPa 0,0 l/m 21,1 km/h (4 Bft) SW 217 0 min 0,000 mm 1,5 UV-I 219 W/m 9,8 C 6,6 C 27,4 km/h (4 Bft) 100,00 %
20.05.2016 13:40 12,8 C 81 % 1020,4 hPa 0,0 l/m 18,8 km/h (3 Bft) SW 217 0 min 0,000 mm 1,7 UV-I 260 W/m 9,6 C 7,3 C 27,4 km/h (4 Bft) 95,83 %
20.05.2016 13:41 12,8 C 82 % 1020,4 hPa 0,0 l/m 19,4 km/h (3 Bft) W-SW 240 0 min 0,000 mm 1,9 UV-I 300 W/m 9,8 C 7,1 C 29,0 km/h (5 Bft) 96,15 %
20.05.2016 13:42 12,8 C 82 % 1020,4 hPa 0,0 l/m 17,8 km/h (3 Bft) SW 234 0 min 0,000 mm 1,9 UV-I 314 W/m 9,8 C 7,6 C 25,7 km/h (4 Bft) 100,00 %
20.05.2016 13:43 12,8 C 82 % 1020,4 hPa 0,0 l/m 19,0 km/h (3 Bft) W-SW 238 0 min 0,000 mm 1,8 UV-I 299 W/m 9,8 C 7,2 C 30,6 km/h (5 Bft) 95,65 %
20.05.2016 13:44 12,8 C 82 % 1020,4 hPa 0,0 l/m 18,3 km/h (3 Bft) SW 234 0 min 0,000 mm 1,6 UV-I 270 W/m 9,8 C 7,4 C 25,7 km/h (4 Bft) 100,00 %
20.05.2016 13:45 12,8 C 82 % 1020,4 hPa 0,0 l/m 18,8 km/h (3 Bft) SW 215 0 min 0,000 mm 1,5 UV-I 250 W/m 9,8 C 7,3 C 25,7 km/h (4 Bft) 95,65 %
20.05.2016 13:46 12,8 C 82 % 1020,4 hPa 0,0 l/m 19,7 km/h (3 Bft) W-SW 238 0 min 0,000 mm 1,5 UV-I 253 W/m 9,8 C 7,0 C 27,4 km/h (4 Bft) 100,00 %
20.05.2016 13:47 12,9 C 82 % 1020,4 hPa 0,0 l/m 16,4 km/h (3 Bft) SW 223 0 min 0,000 mm 1,6 UV-I 263 W/m 9,9 C 8,2 C 22,5 km/h (4 Bft) 94,12 %
20.05.2016 13:48 12,9 C 82 % 1020,4 hPa 0,0 l/m 16,8 km/h (3 Bft) W-SW 238 0 min 0,000 mm 1,6 UV-I 277 W/m 9,9 C 8,0 C 20,9 km/h (4 Bft) 96,67 %
20.05.2016 13:49 12,9 C 82 % 1020,4 hPa 0,0 l/m 16,8 km/h (3 Bft) W-SW 243 0 min 0,000 mm 1,7 UV-I 291 W/m 9,9 C 8,0 C 24,1 km/h (4 Bft) 100,00 %
20.05.2016 13:50 12,9 C 82 % 1020,4 hPa 0,0 l/m 11,3 km/h (2 Bft) SW 223 0 min 0,000 mm 1,8 UV-I 306 W/m 9,9 C 10,2 C 19,3 km/h (3 Bft) 96,30 %
20.05.2016 13:51 13,1 C 82 % 1020,4 hPa 0,0 l/m 21,6 km/h (4 Bft) SW 221 0 min 0,000 mm 1,9 UV-I 323 W/m 10,1 C 6,9 C 33,8 km/h (5 Bft) 100,00 %
20.05.2016 13:52 13,1 C 82 % 1020,3 hPa 0,0 l/m 19,9 km/h (4 Bft) W-SW 258 0 min 0,000 mm 2,0 UV-I 340 W/m 10,1 C 7,3 C 27,4 km/h (4 Bft) 93,33 %
20.05.2016 13:53 13,1 C 82 % 1020,4 hPa 0,0 l/m 16,7 km/h (3 Bft) W-SW 253 0 min 0,000 mm 1,9 UV-I 330 W/m 10,1 C 8,3 C 24,1 km/h (4 Bft) 100,00 %
20.05.2016 13:54 13,1 C 82 % 1020,4 hPa 0,0 l/m 16,2 km/h (3 Bft) S-SW 211 0 min 0,000 mm 1,7 UV-I 273 W/m 10,1 C 8,5 C 27,4 km/h (4 Bft) 96,15 %
20.05.2016 13:55 13,1 C 81 % 1020,4 hPa 0,0 l/m 20,3 km/h (4 Bft) SW 233 0 min 0,000 mm 1,5 UV-I 233 W/m 9,9 C 7,2 C 30,6 km/h (5 Bft) 100,00 %
20.05.2016 13:56 13,1 C 81 % 1020,4 hPa 0,0 l/m 19,5 km/h (3 Bft) SW 216 0 min 0,000 mm 1,4 UV-I 216 W/m 9,9 C 7,4 C 29,0 km/h (5 Bft) 95,65 %
20.05.2016 13:57 13,1 C 81 % 1020,4 hPa 0,0 l/m 16,6 km/h (3 Bft) W 261 0 min 0,000 mm 1,3 UV-I 212 W/m 9,9 C 8,3 C 22,5 km/h (4 Bft) 100,00 %
20.05.2016 13:58 13,1 C 81 % 1020,4 hPa 0,0 l/m 14,1 km/h (3 Bft) SW 227 0 min 0,000 mm 1,4 UV-I 230 W/m 9,9 C 9,2 C 17,7 km/h (3 Bft) 100,00 %
20.05.2016 13:59 13,1 C 82 % 1020,4 hPa 0,0 l/m 17,0 km/h (3 Bft) W-SW 242 0 min 0,000 mm 1,6 UV-I 268 W/m 10,1 C 8,2 C 20,9 km/h (4 Bft) 100,00 %
20.05.2016 14:00 13,1 C 81 % 1020,3 hPa 0,0 l/m 18,1 km/h (3 Bft) SW 215 0 min 0,000 mm 2,0 UV-I 320 W/m 9,9 C 7,9 C 24,1 km/h (4 Bft) 100,00 %
20.05.2016 14:01 13,2 C 82 % 1020,4 hPa 0,0 l/m 12,7 km/h (3 Bft) W-SW 250 0 min 0,178 mm 2,3 UV-I 386 W/m 10,2 C 9,9 C 20,9 km/h (4 Bft) 100,00 %
20.05.2016 14:02 13,2 C 82 % 1020,4 hPa 0,0 l/m 14,0 km/h (3 Bft) SW 225 0 min 0,000 mm 2,7 UV-I 438 W/m 10,2 C 9,4 C 22,5 km/h (4 Bft) 100,00 %
20.05.2016 14:03 13,3 C 82 % 1020,3 hPa 0,0 l/m 13,3 km/h (3 Bft) SW 217 1 min 0,000 mm 2,8 UV-I 468 W/m 10,3 C 9,8 C 19,3 km/h (3 Bft) 100,00 %
20.05.2016 14:04 13,4 C 81 % 1020,3 hPa 0,0 l/m 11,8 km/h (2 Bft) SO 137 0 min 0,000 mm 2,7 UV-I 443 W/m 10,2 C 10,5 C 20,9 km/h (4 Bft) 100,00 %
20.05.2016 14:05 13,4 C 81 % 1020,3 hPa 0,0 l/m 18,3 km/h (3 Bft) W-SW 245 0 min 0,000 mm 2,6 UV-I 419 W/m 10,2 C 8,2 C 29,0 km/h (5 Bft) 93,33 %
20.05.2016 14:06 13,5 C 81 % 1020,3 hPa 0,0 l/m 19,1 km/h (3 Bft) W-SW 246 0 min 0,000 mm 2,4 UV-I 379 W/m 10,3 C 8,1 C 24,1 km/h (4 Bft) 100,00 %
20.05.2016 14:07 13,6 C 81 % 1020,3 hPa 0,0 l/m 15,7 km/h (3 Bft) S-SW 194 0 min 0,000 mm 2,1 UV-I 332 W/m 10,4 C 9,3 C 20,9 km/h (4 Bft) 100,00 %
20.05.2016 14:08 13,6 C 81 % 1020,3 hPa 0,0 l/m 14,1 km/h (3 Bft) SW 220 0 min 0,000 mm 1,9 UV-I 307 W/m 10,4 C 9,8 C 17,7 km/h (3 Bft) 100,00 %
20.05.2016 14:09 13,6 C 80 % 1020,3 hPa 0,0 l/m 18,6 km/h (3 Bft) SW 227 0 min 0,000 mm 2,0 UV-I 325 W/m 10,2 C 8,3 C 24,1 km/h (4 Bft) 100,00 %
20.05.2016 14:10 13,6 C 80 % 1020,3 hPa 0,0 l/m 17,4 km/h (3 Bft) W-SW 246 0 min 0,000 mm 2,0 UV-I 338 W/m 10,2 C 8,7 C 25,7 km/h (4 Bft) 100,00 %
20.05.2016 14:11 13,6 C 80 % 1020,3 hPa 0,0 l/m 17,7 km/h (3 Bft) W-SW 240 0 min 0,000 mm 1,9 UV-I 322 W/m 10,2 C 8,6 C 22,5 km/h (4 Bft) 100,00 %
20.05.2016 14:12 13,6 C 81 % 1020,3 hPa 0,0 l/m 18,5 km/h (3 Bft) W-SW 247 0 min 0,000 mm 1,9 UV-I 322 W/m 10,4 C 8,4 C 27,4 km/h (4 Bft) 100,00 %
20.05.2016 14:13 13,6 C 80 % 1020,3 hPa 0,0 l/m 17,2 km/h (3 Bft) SW 219 0 min 0,000 mm 2,1 UV-I 360 W/m 10,2 C 8,8 C 27,4 km/h (4 Bft) 100,00 %
20.05.2016 14:14 13,6 C 79 % 1020,3 hPa 0,0 l/m 19,3 km/h (3 Bft) W-SW 247 0 min 0,000 mm 2,1 UV-I 355 W/m 10,0 C 8,1 C 29,0 km/h (5 Bft) 96,30 %
20.05.2016 14:15 13,5 C 80 % 1020,3 hPa 0,0 l/m 19,2 km/h (3 Bft) S-SO 150 0 min 0,000 mm 1,9 UV-I 314 W/m 10,1 C 8,0 C 24,1 km/h (4 Bft) 100,00 %
20.05.2016 14:16 13,5 C 80 % 1020,3 hPa 0,0 l/m 15,2 km/h (3 Bft) W-SW 246 0 min 0,000 mm 1,7 UV-I 283 W/m 10,1 C 9,3 C 22,5 km/h (4 Bft) 100,00 %
20.05.2016 14:17 13,5 C 80 % 1020,3 hPa 0,0 l/m 19,3 km/h (3 Bft) S-SW 198 0 min 0,000 mm 1,7 UV-I 286 W/m 10,1 C 8,0 C 24,1 km/h (4 Bft) 100,00 %
20.05.2016 14:18 13,5 C 80 % 1020,3 hPa 0,0 l/m 19,0 km/h (3 Bft) W-SW 242 0 min 0,000 mm 1,7 UV-I 299 W/m 10,1 C 8,1 C 27,4 km/h (4 Bft) 100,00 %
20.05.2016 14:19 13,5 C 80 % 1020,3 hPa 0,0 l/m 17,5 km/h (3 Bft) S-SW 204 0 min 0,000 mm 1,8 UV-I 310 W/m 10,1 C 8,5 C 29,0 km/h (5 Bft) 100,00 %
20.05.2016 14:20 13,6 C 81 % 1020,3 hPa 0,0 l/m 11,7 km/h (2 Bft) W-SW 244 0 min 0,000 mm 1,8 UV-I 312 W/m 10,4 C 10,8 C 22,5 km/h (4 Bft) 100,00 %
20.05.2016 14:21 13,6 C 80 % 1020,3 hPa 0,0 l/m 18,0 km/h (3 Bft) SW 231 0 min 0,000 mm 1,7 UV-I 303 W/m 10,2 C 8,5 C 22,5 km/h (4 Bft) 100,00 %
20.05.2016 14:22 13,6 C 80 % 1020,3 hPa 0,0 l/m 11,6 km/h (2 Bft) SW 234 0 min 0,000 mm 1,6 UV-I 291 W/m 10,2 C 10,8 C 14,5 km/h (3 Bft) 100,00 %
20.05.2016 14:23 13,6 C 80 % 1020,3 hPa 0,0 l/m 12,3 km/h (3 Bft) SW 217 0 min 0,000 mm 1,6 UV-I 284 W/m 10,2 C 10,5 C 19,3 km/h (3 Bft) 100,00 %
20.05.2016 14:24 13,6 C 80 % 1020,3 hPa 0,0 l/m 17,2 km/h (3 Bft) W-SW 248 0 min 0,000 mm 1,5 UV-I 275 W/m 10,2 C 8,8 C 24,1 km/h (4 Bft) 100,00 %
20.05.2016 14:25 13,7 C 80 % 1020,3 hPa 0,0 l/m 16,4 km/h (3 Bft) SW 234 0 min 0,000 mm 1,5 UV-I 267 W/m 10,3 C 9,1 C 22,5 km/h (4 Bft) 100,00 %
20.05.2016 14:26 13,6 C 79 % 1020,3 hPa 0,0 l/m 14,1 km/h (3 Bft) SW 230 0 min 0,000 mm 1,4 UV-I 266 W/m 10,0 C 9,8 C 22,5 km/h (4 Bft) 100,00 %
20.05.2016 14:27 13,6 C 79 % 1020,3 hPa 0,0 l/m 19,5 km/h (3 Bft) S-SW 193 0 min 0,000 mm 1,5 UV-I 260 W/m 10,0 C 8,1 C 25,7 km/h (4 Bft) 100,00 %
20.05.2016 14:28 13,6 C 79 % 1020,3 hPa 0,0 l/m 10,6 km/h (2 Bft) SW 219 0 min 0,000 mm 1,5 UV-I 263 W/m 10,0 C 11,3 C 17,7 km/h (3 Bft) 100,00 %
20.05.2016 14:29 13,6 C 79 % 1020,3 hPa 0,0 l/m 17,9 km/h (3 Bft) W-SW 237 0 min 0,000 mm 1,7 UV-I 281 W/m 10,0 C 8,5 C 30,6 km/h (5 Bft) 96,55 %
20.05.2016 14:30 13,6 C 79 % 1020,3 hPa 0,0 l/m 17,5 km/h (3 Bft) W-SW 250 0 min 0,000 mm 1,8 UV-I 289 W/m 10,0 C 8,7 C 24,1 km/h (4 Bft) 100,00 %
20.05.2016 14:31 13,6 C 78 % 1020,3 hPa 0,0 l/m 20,2 km/h (4 Bft) SW 227 0 min 0,000 mm 1,7 UV-I 281 W/m 9,8 C 7,9 C 27,4 km/h (4 Bft) 100,00 %
20.05.2016 14:32 13,6 C 79 % 1020,3 hPa 0,0 l/m 16,7 km/h (3 Bft) SW 217 0 min 0,000 mm 1,7 UV-I 279 W/m 10,0 C 8,9 C 22,5 km/h (4 Bft) 100,00 %
20.05.2016 14:33 13,6 C 79 % 1020,3 hPa 0,0 l/m 13,2 km/h (3 Bft) SW 228 0 min 0,000 mm 1,7 UV-I 275 W/m 10,0 C 10,2 C 17,7 km/h (3 Bft) 100,00 %
20.05.2016 14:34 13,6 C 79 % 1020,3 hPa 0,0 l/m 19,5 km/h (3 Bft) W-SW 253 0 min 0,000 mm 1,7 UV-I 278 W/m 10,0 C 8,1 C 29,0 km/h (5 Bft) 100,00 %
20.05.2016 14:35 13,6 C 79 % 1020,3 hPa 0,0 l/m 14,2 km/h (3 Bft) W-SW 246 0 min 0,000 mm 1,7 UV-I 304 W/m 10,0 C 9,8 C 22,5 km/h (4 Bft) 95,83 %
20.05.2016 14:36 13,7 C 78 % 1020,3 hPa 0,0 l/m 14,6 km/h (3 Bft) W-SW 254 0 min 0,000 mm 2,0 UV-I 330 W/m 9,9 C 9,8 C 22,5 km/h (4 Bft) 96,15 %
20.05.2016 14:37 13,7 C 80 % 1020,2 hPa 0,0 l/m 13,3 km/h (3 Bft) S-SW 208 0 min 0,000 mm 2,1 UV-I 352 W/m 10,3 C 10,2 C 24,1 km/h (4 Bft) 100,00 %
20.05.2016 14:38 13,8 C 78 % 1020,2 hPa 0,0 l/m 16,2 km/h (3 Bft) S-SW 208 0 min 0,000 mm 2,2 UV-I 363 W/m 10,0 C 9,3 C 25,7 km/h (4 Bft) 100,00 %
20.05.2016 14:39 13,8 C 78 % 1020,3 hPa 0,0 l/m 15,1 km/h (3 Bft) S-SW 195 0 min 0,000 mm 2,3 UV-I 380 W/m 10,0 C 9,7 C 20,9 km/h (4 Bft) 100,00 %
20.05.2016 14:40 13,8 C 77 % 1020,2 hPa 0,0 l/m 12,1 km/h (2 Bft) S-SW 196 0 min 0,000 mm 2,2 UV-I 369 W/m 9,8 C 10,8 C 17,7 km/h (3 Bft) 100,00 %
20.05.2016 14:41 13,9 C 79 % 1020,2 hPa 0,0 l/m 15,0 km/h (3 Bft) SW 236 0 min 0,000 mm 2,1 UV-I 348 W/m 10,3 C 9,9 C 20,9 km/h (4 Bft) 100,00 %
20.05.2016 14:42 14,0 C 79 % 1020,2 hPa 0,0 l/m 14,1 km/h (3 Bft) W-SW 244 0 min 0,000 mm 2,0 UV-I 335 W/m 10,4 C 10,3 C 20,9 km/h (4 Bft) 100,00 %
20.05.2016 14:43 14,1 C 78 % 1020,2 hPa 0,0 l/m 14,6 km/h (3 Bft) S 184 0 min 0,000 mm 2,0 UV-I 333 W/m 10,3 C 10,2 C 22,5 km/h (4 Bft) 100,00 %
20.05.2016 14:44 14,1 C 78 % 1020,1 hPa 0,0 l/m 15,7 km/h (3 Bft) S-SW 206 0 min 0,000 mm 2,1 UV-I 348 W/m 10,3 C 9,9 C 22,5 km/h (4 Bft) 100,00 %
20.05.2016 14:45 14,1 C 78 % 1020,1 hPa 0,0 l/m 16,4 km/h (3 Bft) SW 224 0 min 0,000 mm 2,3 UV-I 403 W/m 10,3 C 9,6 C 20,9 km/h (4 Bft) 100,00 %
20.05.2016 14:46 14,2 C 78 % 1020,2 hPa 0,0 l/m 12,7 km/h (3 Bft) SW 236 0 min 0,000 mm 2,5 UV-I 441 W/m 10,4 C 11,1 C 19,3 km/h (3 Bft) 98,58 %
20.05.2016 14:47 14,2 C 77 % 1020,2 hPa 0,0 l/m 16,5 km/h (3 Bft) S-SW 205 0 min 0,000 mm 2,4 UV-I 419 W/m 10,2 C 9,7 C 22,5 km/h (4 Bft) 100,00 %
20.05.2016 14:48 14,2 C 76 % 1020,2 hPa 0,0 l/m 16,9 km/h (3 Bft) W-SW 247 1 min 0,000 mm 2,3 UV-I 446 W/m 10,0 C 9,6 C 24,1 km/h (4 Bft) 100,00 %
20.05.2016 14:49 14,2 C 77 % 1020,2 hPa 0,0 l/m 15,4 km/h (3 Bft) S-SW 209 1 min 0,000 mm 2,5 UV-I 498 W/m 10,2 C 10,1 C 20,9 km/h (4 Bft) 96,30 %
20.05.2016 14:50 14,3 C 78 % 1020,2 hPa 0,0 l/m 17,6 km/h (3 Bft) S-SW 207 1 min 0,000 mm 2,6 UV-I 481 W/m 10,5 C 9,5 C 24,1 km/h (4 Bft) 100,00 %
20.05.2016 14:51 14,3 C 77 % 1020,2 hPa 0,0 l/m 14,1 km/h (3 Bft) S 185 1 min 0,000 mm 2,7 UV-I 501 W/m 10,3 C 10,7 C 19,3 km/h (3 Bft) 100,00 %
20.05.2016 14:52 14,4 C 76 % 1020,2 hPa 0,0 l/m 18,4 km/h (3 Bft) SW 236 1 min 0,000 mm 2,8 UV-I 519 W/m 10,2 C 9,4 C 24,1 km/h (4 Bft) 100,00 %
20.05.2016 14:53 14,4 C 77 % 1020,2 hPa 0,0 l/m 14,8 km/h (3 Bft) SW 227 1 min 0,000 mm 2,6 UV-I 481 W/m 10,4 C 10,5 C 19,3 km/h (3 Bft) 100,00 %
20.05.2016 14:54 14,5 C 77 % 1020,2 hPa 0,0 l/m 18,8 km/h (3 Bft) S 185 0 min 0,000 mm 2,5 UV-I 429 W/m 10,5 C 9,4 C 24,1 km/h (4 Bft) 100,00 %
20.05.2016 14:55 14,5 C 76 % 1020,1 hPa 0,0 l/m 13,3 km/h (3 Bft) S-SW 211 0 min 0,000 mm 2,2 UV-I 394 W/m 10,3 C 11,2 C 19,3 km/h (3 Bft) 95,00 %
20.05.2016 14:56 14,5 C 75 % 1020,1 hPa 0,0 l/m 17,2 km/h (3 Bft) SW 226 0 min 0,000 mm 2,2 UV-I 370 W/m 10,1 C 9,9 C 22,5 km/h (4 Bft) 100,00 %
20.05.2016 14:57 14,4 C 76 % 1020,1 hPa 0,0 l/m 11,0 km/h (2 Bft) W-SW 258 0 min 0,000 mm 2,3 UV-I 380 W/m 10,2 C 12,0 C 16,1 km/h (3 Bft) 100,00 %
20.05.2016 14:58 14,4 C 76 % 1020,1 hPa 0,0 l/m 14,5 km/h (3 Bft) W-SW 239 0 min 0,000 mm 2,5 UV-I 431 W/m 10,2 C 10,6 C 17,7 km/h (3 Bft) 100,00 %
20.05.2016 14:59 14,5 C 77 % 1020,1 hPa 0,0 l/m 16,3 km/h (3 Bft) S-SW 202 0 min 0,000 mm 2,8 UV-I 431 W/m 10,5 C 10,2 C 24,1 km/h (4 Bft) 100,00 %
20.05.2016 15:00 14,6 C 77 % 1020,1 hPa 0,0 l/m 17,7 km/h (3 Bft) S-SW 213 1 min 0,000 mm 3,2 UV-I 493 W/m 10,6 C 9,9 C 27,4 km/h (4 Bft) 100,00 %
20.05.2016 15:01 14,7 C 77 % 1020,1 hPa 0,0 l/m 16,3 km/h (3 Bft) W 273 1 min 0,229 mm 3,2 UV-I 670 W/m 10,7 C 10,4 C 24,1 km/h (4 Bft) 100,00 %
20.05.2016 15:03 14,8 C 76 % 1020,2 hPa 0,0 l/m 15,8 km/h (3 Bft) SW 229 2 min 0,000 mm 3,3 UV-I 647 W/m 10,6 C 10,7 C 22,5 km/h (4 Bft) 100,00 %
20.05.2016 15:04 14,9 C 75 % 1020,1 hPa 0,0 l/m 19,7 km/h (3 Bft) SW 219 1 min 0,000 mm 3,2 UV-I 645 W/m 10,5 C 9,7 C 29,0 km/h (5 Bft) 100,00 %
20.05.2016 15:05 15,0 C 75 % 1020,0 hPa 0,0 l/m 14,2 km/h (3 Bft) S 175 1 min 0,000 mm 3,4 UV-I 668 W/m 10,6 C 11,5 C 24,1 km/h (4 Bft) 100,00 %
20.05.2016 15:06 15,1 C 74 % 1020,0 hPa 0,0 l/m 12,5 km/h (3 Bft) W-SW 242 1 min 0,000 mm 3,4 UV-I 728 W/m 10,5 C 12,2 C 19,3 km/h (3 Bft) 100,00 %
20.05.2016 15:07 15,2 C 75 % 1020,0 hPa 0,0 l/m 18,7 km/h (3 Bft) W-SW 243 1 min 0,000 mm 3,3 UV-I 701 W/m 10,8 C 10,3 C 25,7 km/h (4 Bft) 92,86 %
20.05.2016 15:08 15,2 C 74 % 1020,1 hPa 0,0 l/m 14,3 km/h (3 Bft) SW 221 1 min 0,000 mm 3,1 UV-I 605 W/m 10,6 C 11,7 C 25,7 km/h (4 Bft) 100,00 %
20.05.2016 15:09 15,3 C 74 % 1020,1 hPa 0,0 l/m 16,6 km/h (3 Bft) W-SW 255 1 min 0,000 mm 2,9 UV-I 556 W/m 10,7 C 11,1 C 22,5 km/h (4 Bft) 100,00 %
20.05.2016 15:10 15,3 C 75 % 1020,0 hPa 0,0 l/m 14,3 km/h (3 Bft) SW 229 1 min 0,000 mm 2,9 UV-I 567 W/m 10,9 C 11,8 C 24,1 km/h (4 Bft) 100,00 %
20.05.2016 15:11 15,3 C 75 % 1020,1 hPa 0,0 l/m 18,4 km/h (3 Bft) SW 227 1 min 0,000 mm 2,8 UV-I 533 W/m 10,9 C 10,6 C 24,1 km/h (4 Bft) 100,00 %
20.05.2016 15:12 15,3 C 74 % 1020,0 hPa 0,0 l/m 15,2 km/h (3 Bft) S 170 1 min 0,000 mm 2,7 UV-I 526 W/m 10,7 C 11,5 C 24,1 km/h (4 Bft) 100,00 %
20.05.2016 15:13 15,3 C 74 % 1019,9 hPa 0,0 l/m 18,2 km/h (3 Bft) SW 221 1 min 0,000 mm 2,8 UV-I 539 W/m 10,7 C 10,6 C 22,5 km/h (4 Bft) 100,00 %
20.05.2016 15:14 15,3 C 74 % 1019,9 hPa 0,0 l/m 13,7 km/h (3 Bft) SW 232 1 min 0,000 mm 2,9 UV-I 575 W/m 10,7 C 12,0 C 19,3 km/h (3 Bft) 100,00 %
20.05.2016 15:15 15,3 C 74 % 1020,0 hPa 0,0 l/m 15,1 km/h (3 Bft) W-SW 256 1 min 0,000 mm 2,8 UV-I 571 W/m 10,7 C 11,5 C 25,7 km/h (4 Bft) 100,00 %
20.05.2016 15:16 15,3 C 74 % 1019,9 hPa 0,0 l/m 11,3 km/h (2 Bft) SW 233 1 min 0,000 mm 2,7 UV-I 502 W/m 10,7 C 12,9 C 19,3 km/h (3 Bft) 100,00 %
20.05.2016 15:17 15,4 C 75 % 1019,9 hPa 0,0 l/m 17,3 km/h (3 Bft) W 267 1 min 0,000 mm 2,6 UV-I 463 W/m 11,0 C 11,0 C 25,7 km/h (4 Bft) 100,00 %
20.05.2016 15:18 15,3 C 73 % 1019,9 hPa 0,0 l/m 18,0 km/h (3 Bft) W-SW 252 1 min 0,000 mm 2,5 UV-I 450 W/m 10,5 C 10,7 C 19,3 km/h (3 Bft) 96,15 %
20.05.2016 15:19 15,4 C 75 % 1019,9 hPa 0,0 l/m 11,5 km/h (2 Bft) W 266 1 min 0,000 mm 2,5 UV-I 439 W/m 11,0 C 12,9 C 20,9 km/h (4 Bft) 100,00 %
20.05.2016 15:20 15,4 C 74 % 1019,9 hPa 0,0 l/m 11,7 km/h (2 Bft) W-SW 254 1 min 0,000 mm 2,5 UV-I 442 W/m 10,8 C 12,8 C 24,1 km/h (4 Bft) 95,65 %
20.05.2016 15:21 15,4 C 73 % 1019,9 hPa 0,0 l/m 13,9 km/h (3 Bft) W-SW 251 1 min 0,000 mm 2,5 UV-I 455 W/m 10,6 C 12,0 C 20,9 km/h (4 Bft) 100,00 %
20.05.2016 15:22 15,4 C 73 % 1019,8 hPa 0,0 l/m 16,9 km/h (3 Bft) SW 215 1 min 0,000 mm 2,5 UV-I 470 W/m 10,6 C 11,1 C 25,7 km/h (4 Bft) 95,65 %
20.05.2016 15:23 15,3 C 73 % 1019,9 hPa 0,0 l/m 16,2 km/h (3 Bft) S-SW 207 1 min 0,000 mm 2,6 UV-I 477 W/m 10,5 C 11,2 C 24,1 km/h (4 Bft) 100,00 %
20.05.2016 15:24 15,3 C 74 % 1019,8 hPa 0,0 l/m 14,1 km/h (3 Bft) W-SW 250 1 min 0,000 mm 2,6 UV-I 490 W/m 10,7 C 11,9 C 19,3 km/h (3 Bft) 95,65 %
20.05.2016 15:25 15,3 C 73 % 1019,9 hPa 0,0 l/m 17,8 km/h (3 Bft) W 259 1 min 0,000 mm 2,7 UV-I 514 W/m 10,5 C 10,7 C 24,1 km/h (4 Bft) 100,00 %
20.05.2016 15:26 15,3 C 73 % 1019,9 hPa 0,0 l/m 15,2 km/h (3 Bft) W-SW 254 1 min 0,000 mm 2,7 UV-I 522 W/m 10,5 C 11,5 C 20,9 km/h (4 Bft) 96,15 %
20.05.2016 15:27 15,3 C 73 % 1019,9 hPa 0,0 l/m 16,7 km/h (3 Bft) SW 221 1 min 0,000 mm 2,7 UV-I 509 W/m 10,5 C 11,0 C 24,1 km/h (4 Bft) 91,67 %
20.05.2016 15:28 15,3 C 73 % 1019,9 hPa 0,0 l/m 10,8 km/h (2 Bft) SW 215 1 min 0,000 mm 2,7 UV-I 515 W/m 10,5 C 13,1 C 14,5 km/h (3 Bft) 100,00 %
20.05.2016 15:29 15,4 C 75 % 1019,9 hPa 0,0 l/m 17,3 km/h (3 Bft) W-SW 257 1 min 0,000 mm 2,7 UV-I 523 W/m 11,0 C 11,0 C 25,7 km/h (4 Bft) 96,30 %
20.05.2016 15:30 15,4 C 73 % 1019,9 hPa 0,0 l/m 16,7 km/h (3 Bft) SW 233 1 min 0,000 mm 2,5 UV-I 515 W/m 10,6 C 11,2 C 22,5 km/h (4 Bft) 100,00 %
20.05.2016 15:31 15,3 C 72 % 1019,9 hPa 0,0 l/m 19,3 km/h (3 Bft) W-SW 240 1 min 0,000 mm 2,2 UV-I 451 W/m 10,3 C 10,3 C 24,1 km/h (4 Bft) 96,55 %
20.05.2016 15:32 15,3 C 71 % 1019,9 hPa 0,0 l/m 14,6 km/h (3 Bft) SW 229 1 min 0,000 mm 2,5 UV-I 456 W/m 10,1 C 11,7 C 24,1 km/h (4 Bft) 100,00 %
20.05.2016 15:33 15,2 C 72 % 1019,9 hPa 0,0 l/m 15,3 km/h (3 Bft) W-NW 286 1 min 0,000 mm 2,7 UV-I 482 W/m 10,2 C 11,3 C 20,9 km/h (4 Bft) 96,30 %
20.05.2016 15:34 15,2 C 73 % 1019,9 hPa 0,0 l/m 19,5 km/h (3 Bft) S-SW 196 1 min 0,000 mm 3,0 UV-I 519 W/m 10,4 C 10,1 C 24,1 km/h (4 Bft) 100,00 %
20.05.2016 15:35 15,3 C 73 % 1019,9 hPa 0,0 l/m 14,4 km/h (3 Bft) SW 234 1 min 0,000 mm 2,8 UV-I 731 W/m 10,5 C 11,8 C 25,7 km/h (4 Bft) 96,15 %
20.05.2016 15:36 15,3 C 73 % 1019,8 hPa 0,0 l/m 15,4 km/h (3 Bft) W-SW 240 1 min 0,000 mm 2,5 UV-I 731 W/m 10,5 C 11,4 C 20,9 km/h (4 Bft) 95,83 %
20.05.2016 15:37 15,3 C 72 % 1019,9 hPa 0,0 l/m 19,2 km/h (3 Bft) W-SW 253 1 min 0,000 mm 2,2 UV-I 731 W/m 10,3 C 10,3 C 25,7 km/h (4 Bft) 100,00 %
20.05.2016 15:38 15,3 C 71 % 1019,9 hPa 0,0 l/m 13,8 km/h (3 Bft) W 262 0 min 0,000 mm 2,1 UV-I 377 W/m 10,1 C 12,0 C 19,3 km/h (3 Bft) 95,83 %
20.05.2016 15:39 15,3 C 73 % 1019,9 hPa 0,0 l/m 19,3 km/h (3 Bft) SW 224 0 min 0,000 mm 2,1 UV-I 336 W/m 10,5 C 10,3 C 25,7 km/h (4 Bft) 92,86 %
20.05.2016 15:40 15,3 C 73 % 1019,9 hPa 0,0 l/m 18,0 km/h (3 Bft) S-SW 212 0 min 0,000 mm 2,1 UV-I 333 W/m 10,5 C 10,7 C 24,1 km/h (4 Bft) 96,30 %
20.05.2016 15:41 15,2 C 73 % 1019,9 hPa 0,0 l/m 16,3 km/h (3 Bft) S 170 0 min 0,000 mm 1,8 UV-I 327 W/m 10,4 C 11,0 C 20,9 km/h (4 Bft) 100,00 %
20.05.2016 15:42 15,2 C 72 % 1019,9 hPa 0,0 l/m 16,6 km/h (3 Bft) S-SW 212 0 min 0,000 mm 1,8 UV-I 369 W/m 10,2 C 10,9 C 24,1 km/h (4 Bft) 92,59 %
20.05.2016 15:43 15,2 C 72 % 1019,9 hPa 0,0 l/m 20,3 km/h (4 Bft) S-SW 195 1 min 0,000 mm 2,0 UV-I 416 W/m 10,2 C 9,9 C 27,4 km/h (4 Bft) 94,12 %
20.05.2016 15:44 15,2 C 73 % 1019,9 hPa 0,0 l/m 20,0 km/h (4 Bft) W-SW 240 1 min 0,000 mm 2,1 UV-I 438 W/m 10,4 C 10,0 C 27,4 km/h (4 Bft) 100,00 %
20.05.2016 15:45 15,2 C 72 % 1019,9 hPa 0,0 l/m 14,2 km/h (3 Bft) SW 216 1 min 0,000 mm 2,4 UV-I 471 W/m 10,2 C 11,7 C 17,7 km/h (3 Bft) 95,65 %
20.05.2016 15:46 15,3 C 73 % 1019,9 hPa 0,0 l/m 13,6 km/h (3 Bft) W 270 1 min 0,000 mm 2,6 UV-I 542 W/m 10,5 C 12,0 C 20,9 km/h (4 Bft) 100,00 %
20.05.2016 15:47 15,3 C 73 % 1019,9 hPa 0,0 l/m 9,7 km/h (2 Bft) W 265 1 min 0,000 mm 2,8 UV-I 614 W/m 10,5 C 13,6 C 14,5 km/h (3 Bft) 96,15 %
20.05.2016 15:48 15,5 C 74 % 1019,9 hPa 0,0 l/m 15,6 km/h (3 Bft) W 269 1 min 0,000 mm 2,9 UV-I 603 W/m 10,9 C 11,6 C 22,5 km/h (4 Bft) 100,00 %
20.05.2016 15:49 15,7 C 72 % 1020,0 hPa 0,0 l/m 17,2 km/h (3 Bft) W-SW 250 1 min 0,000 mm 2,5 UV-I 603 W/m 10,7 C 11,4 C 22,5 km/h (4 Bft) 100,00 %
20.05.2016 15:50 15,7 C 72 % 1019,9 hPa 0,0 l/m 9,3 km/h (2 Bft) W-SW 246 1 min 0,000 mm 2,6 UV-I 599 W/m 10,7 C 14,2 C 17,7 km/h (3 Bft) 100,00 %
20.05.2016 15:51 15,7 C 72 % 1019,9 hPa 0,0 l/m 15,0 km/h (3 Bft) S-SW 213 1 min 0,000 mm 2,4 UV-I 496 W/m 10,7 C 12,0 C 25,7 km/h (4 Bft) 100,00 %
20.05.2016 15:52 15,8 C 72 % 1019,9 hPa 0,0 l/m 16,5 km/h (3 Bft) SW 234 1 min 0,000 mm 2,6 UV-I 520 W/m 10,8 C 11,7 C 22,5 km/h (4 Bft) 90,91 %
20.05.2016 15:53 15,8 C 72 % 1019,9 hPa 0,0 l/m 14,2 km/h (3 Bft) S-SW 198 1 min 0,000 mm 2,5 UV-I 559 W/m 10,8 C 12,4 C 17,7 km/h (3 Bft) 93,33 %
20.05.2016 15:54 15,8 C 72 % 1019,9 hPa 0,0 l/m 10,6 km/h (2 Bft) W-SW 242 1 min 0,000 mm 2,6 UV-I 559 W/m 10,8 C 13,7 C 14,5 km/h (3 Bft) 100,00 %
20.05.2016 15:55 16,0 C 74 % 1020,0 hPa 0,0 l/m 15,1 km/h (3 Bft) W-SW 257 1 min 0,000 mm 2,7 UV-I 743 W/m 11,4 C 12,4 C 20,9 km/h (4 Bft) 100,00 %
20.05.2016 15:56 16,1 C 73 % 1020,0 hPa 0,0 l/m 15,8 km/h (3 Bft) W 266 1 min 0,000 mm 2,5 UV-I 761 W/m 11,3 C 12,3 C 20,9 km/h (4 Bft) 96,15 %
20.05.2016 15:57 16,2 C 72 % 1020,0 hPa 0,0 l/m 18,7 km/h (3 Bft) W-SW 243 1 min 0,000 mm 2,3 UV-I 420 W/m 11,1 C 11,6 C 24,1 km/h (4 Bft) 100,00 %
20.05.2016 16:00 16,1 C 72 % 1019,9 hPa 0,0 l/m 12,6 km/h (3 Bft) W-SW 254 3 min 0,000 mm 2,3 UV-I 442 W/m 11,0 C 13,3 C 17,7 km/h (3 Bft) 98,65 %
20.05.2016 16:01 16,2 C 71 % 1020,0 hPa 0,0 l/m 15,9 km/h (3 Bft) W-SW 250 1 min 0,330 mm 2,2 UV-I 444 W/m 10,9 C 12,4 C 22,5 km/h (4 Bft) 100,00 %
20.05.2016 16:02 16,1 C 72 % 1019,9 hPa 0,0 l/m 15,4 km/h (3 Bft) S-SW 207 1 min 0,000 mm 2,2 UV-I 405 W/m 11,0 C 12,4 C 19,3 km/h (3 Bft) 96,15 %
20.05.2016 16:03 16,0 C 69 % 1019,9 hPa 0,0 l/m 17,3 km/h (3 Bft) S-SW 202 1 min 0,000 mm 2,2 UV-I 417 W/m 10,3 C 11,7 C 22,5 km/h (4 Bft) 96,30 %
20.05.2016 16:04 15,9 C 71 % 1019,9 hPa 0,0 l/m 12,5 km/h (3 Bft) S 191 0 min 0,000 mm 2,1 UV-I 358 W/m 10,6 C 13,1 C 22,5 km/h (4 Bft) 100,00 %
20.05.2016 16:05 15,7 C 69 % 1019,9 hPa 0,0 l/m 11,7 km/h (2 Bft) W-SW 238 1 min 0,000 mm 2,1 UV-I 402 W/m 10,0 C 13,2 C 17,7 km/h (3 Bft) 100,00 %
20.05.2016 16:06 15,7 C 71 % 1019,9 hPa 0,0 l/m 14,6 km/h (3 Bft) S-SW 197 1 min 0,000 mm 2,1 UV-I 413 W/m 10,5 C 12,2 C 19,3 km/h (3 Bft) 100,00 %
20.05.2016 16:07 15,6 C 72 % 1019,9 hPa 0,0 l/m 12,2 km/h (2 Bft) W 263 1 min 0,000 mm 2,0 UV-I 380 W/m 10,6 C 12,9 C 16,1 km/h (3 Bft) 100,00 %
20.05.2016 16:08 15,6 C 72 % 1019,9 hPa 0,0 l/m 11,5 km/h (2 Bft) SW 229 1 min 0,000 mm 2,1 UV-I 443 W/m 10,6 C 13,2 C 16,1 km/h (3 Bft) 100,00 %
20.05.2016 16:09 15,6 C 72 % 1019,9 hPa 0,0 l/m 11,7 km/h (2 Bft) W-SW 257 1 min 0,000 mm 2,1 UV-I 405 W/m 10,6 C 13,1 C 19,3 km/h (3 Bft) 95,65 %
20.05.2016 16:10 15,7 C 73 % 1019,9 hPa 0,0 l/m 12,3 km/h (3 Bft) W-SW 238 1 min 0,000 mm 2,2 UV-I 409 W/m 10,9 C 13,0 C 19,3 km/h (3 Bft) 100,00 %
20.05.2016 16:11 15,7 C 72 % 1019,9 hPa 0,0 l/m 14,6 km/h (3 Bft) SW 230 1 min 0,000 mm 2,0 UV-I 400 W/m 10,7 C 12,2 C 20,9 km/h (4 Bft) 100,00 %
20.05.2016 16:12 15,7 C 71 % 1019,9 hPa 0,0 l/m 15,0 km/h (3 Bft) SW 218 1 min 0,000 mm 2,1 UV-I 406 W/m 10,5 C 12,0 C 22,5 km/h (4 Bft) 100,00 %
20.05.2016 16:13 15,6 C 71 % 1019,9 hPa 0,0 l/m 15,9 km/h (3 Bft) SW 215 1 min 0,000 mm 2,1 UV-I 437 W/m 10,4 C 11,6 C 22,5 km/h (4 Bft) 100,00 %
20.05.2016 16:14 15,6 C 72 % 1019,9 hPa 0,0 l/m 12,3 km/h (3 Bft) S-SW 209 1 min 0,000 mm 2,1 UV-I 448 W/m 10,6 C 12,8 C 16,1 km/h (3 Bft) 100,00 %
20.05.2016 16:15 15,6 C 72 % 1019,9 hPa 0,0 l/m 8,7 km/h (2 Bft) S 188 1 min 0,000 mm 2,1 UV-I 454 W/m 10,6 C 14,4 C 11,3 km/h (2 Bft) 100,00 %
20.05.2016 16:16 15,7 C 72 % 1019,9 hPa 0,0 l/m 10,4 km/h (2 Bft) S 187 1 min 0,000 mm 2,0 UV-I 446 W/m 10,7 C 13,7 C 17,7 km/h (3 Bft) 100,00 %
20.05.2016 16:17 15,7 C 72 % 1019,9 hPa 0,0 l/m 12,7 km/h (3 Bft) S-SW 198 1 min 0,000 mm 2,0 UV-I 442 W/m 10,7 C 12,8 C 16,1 km/h (3 Bft) 100,00 %
20.05.2016 16:18 15,7 C 72 % 1019,9 hPa 0,0 l/m 10,4 km/h (2 Bft) W-SW 253 1 min 0,000 mm 2,0 UV-I 429 W/m 10,7 C 13,7 C 17,7 km/h (3 Bft) 100,00 %
20.05.2016 16:19 15,8 C 72 % 1019,9 hPa 0,0 l/m 10,3 km/h (2 Bft) S 174 1 min 0,000 mm 2,1 UV-I 425 W/m 10,8 C 13,9 C 16,1 km/h (3 Bft) 100,00 %
20.05.2016 16:20 15,8 C 71 % 1019,9 hPa 0,0 l/m 15,2 km/h (3 Bft) W-SW 253 1 min 0,000 mm 2,0 UV-I 424 W/m 10,6 C 12,1 C 24,1 km/h (4 Bft) 100,00 %
20.05.2016 16:21 15,8 C 70 % 1019,9 hPa 0,0 l/m 12,6 km/h (3 Bft) SW 215 1 min 0,000 mm 2,0 UV-I 403 W/m 10,3 C 13,0 C 20,9 km/h (4 Bft) 100,00 %
20.05.2016 16:22 15,8 C 72 % 1019,8 hPa 0,0 l/m 10,7 km/h (2 Bft) W-SW 238 1 min 0,000 mm 1,8 UV-I 358 W/m 10,8 C 13,7 C 16,1 km/h (3 Bft) 100,00 %
20.05.2016 16:23 15,8 C 70 % 1019,8 hPa 0,0 l/m 11,3 km/h (2 Bft) SW 234 0 min 0,000 mm 1,8 UV-I 352 W/m 10,3 C 13,5 C 14,5 km/h (3 Bft) 100,00 %
20.05.2016 16:24 15,8 C 71 % 1019,8 hPa 0,0 l/m 12,6 km/h (3 Bft) W-SW 250 0 min 0,000 mm 1,8 UV-I 352 W/m 10,6 C 13,0 C 17,7 km/h (3 Bft) 95,83 %
20.05.2016 16:25 15,8 C 72 % 1019,8 hPa 0,0 l/m 8,1 km/h (2 Bft) W 263 1 min 0,000 mm 1,8 UV-I 356 W/m 10,8 C 14,9 C 17,7 km/h (3 Bft) 100,00 %
20.05.2016 16:26 15,9 C 73 % 1019,8 hPa 0,0 l/m 6,8 km/h (2 Bft) W-SW 244 1 min 0,000 mm 1,9 UV-I 396 W/m 11,1 C 15,7 C 12,9 km/h (3 Bft) 100,00 %
20.05.2016 16:27 15,9 C 72 % 1019,8 hPa 0,0 l/m 5,6 km/h (1 Bft) W-SW 254 1 min 0,000 mm 2,0 UV-I 466 W/m 10,9 C 15,9 C 17,7 km/h (3 Bft) 96,15 %
20.05.2016 16:28 16,1 C 72 % 1019,8 hPa 0,0 l/m 13,9 km/h (3 Bft) W-SW 238 1 min 0,000 mm 2,1 UV-I 499 W/m 11,0 C 12,9 C 20,9 km/h (4 Bft) 100,00 %
20.05.2016 16:29 16,2 C 72 % 1019,9 hPa 0,0 l/m 15,9 km/h (3 Bft) W 268 1 min 0,000 mm 2,2 UV-I 658 W/m 11,1 C 12,4 C 20,9 km/h (4 Bft) 100,00 %
20.05.2016 16:30 16,2 C 70 % 1019,8 hPa 0,0 l/m 10,8 km/h (2 Bft) W-SW 248 1 min 0,000 mm 2,2 UV-I 782 W/m 10,7 C 14,1 C 17,7 km/h (3 Bft) 100,00 %
20.05.2016 16:31 16,3 C 71 % 1019,9 hPa 0,0 l/m 9,7 km/h (2 Bft) SW 217 1 min 0,000 mm 2,2 UV-I 782 W/m 11,0 C 14,7 C 16,1 km/h (3 Bft) 100,00 %
20.05.2016 16:32 16,4 C 70 % 1019,8 hPa 0,0 l/m 11,0 km/h (2 Bft) S 171 1 min 0,000 mm 2,2 UV-I 680 W/m 10,9 C 14,3 C 14,5 km/h (3 Bft) 100,00 %
20.05.2016 16:33 16,4 C 69 % 1019,8 hPa 0,0 l/m 13,6 km/h (3 Bft) W-SW 243 1 min 0,000 mm 2,2 UV-I 616 W/m 10,7 C 13,3 C 20,9 km/h (4 Bft) 96,30 %
20.05.2016 16:34 16,4 C 69 % 1019,8 hPa 0,0 l/m 17,3 km/h (3 Bft) SW 228 1 min 0,000 mm 2,2 UV-I 709 W/m 10,7 C 12,2 C 24,1 km/h (4 Bft) 100,00 %
20.05.2016 16:35 16,4 C 69 % 1019,9 hPa 0,0 l/m 18,8 km/h (3 Bft) SW 215 1 min 0,000 mm 2,2 UV-I 741 W/m 10,7 C 11,8 C 25,7 km/h (4 Bft) 100,00 %
20.05.2016 16:36 16,4 C 69 % 1019,9 hPa 0,0 l/m 12,8 km/h (3 Bft) SW 226 1 min 0,000 mm 2,2 UV-I 740 W/m 10,7 C 13,6 C 19,3 km/h (3 Bft) 95,65 %
20.05.2016 16:37 16,4 C 69 % 1019,9 hPa 0,0 l/m 12,6 km/h (3 Bft) W-SW 242 1 min 0,000 mm 2,1 UV-I 417 W/m 10,7 C 13,7 C 14,5 km/h (3 Bft) 100,00 %
20.05.2016 16:38 16,4 C 70 % 1019,9 hPa 0,0 l/m 13,9 km/h (3 Bft) W 267 1 min 0,000 mm 2,2 UV-I 417 W/m 10,9 C 13,2 C 19,3 km/h (3 Bft) 100,00 %
20.05.2016 16:39 16,6 C 70 % 1019,9 hPa 0,0 l/m 14,1 km/h (3 Bft) W 265 1 min 0,000 mm 2,2 UV-I 481 W/m 11,1 C 13,4 C 20,9 km/h (4 Bft) 100,00 %
20.05.2016 16:40 16,7 C 70 % 1019,9 hPa 0,0 l/m 10,4 km/h (2 Bft) SW 219 1 min 0,000 mm 2,2 UV-I 718 W/m 11,2 C 14,8 C 16,1 km/h (3 Bft) 100,00 %
20.05.2016 16:41 16,7 C 70 % 1019,9 hPa 0,0 l/m 8,4 km/h (2 Bft) SW 221 1 min 0,000 mm 1,9 UV-I 673 W/m 11,2 C 15,7 C 12,9 km/h (3 Bft) 100,00 %
20.05.2016 16:42 16,8 C 68 % 1019,9 hPa 0,0 l/m 14,5 km/h (3 Bft) W-SW 245 1 min 0,000 mm 1,7 UV-I 656 W/m 10,9 C 13,5 C 20,9 km/h (4 Bft) 93,33 %
20.05.2016 16:43 16,8 C 69 % 1019,9 hPa 0,0 l/m 13,3 km/h (3 Bft) S-SO 168 1 min 0,000 mm 1,8 UV-I 656 W/m 11,1 C 13,9 C 16,1 km/h (3 Bft) 100,00 %
20.05.2016 16:44 16,7 C 68 % 1019,9 hPa 0,0 l/m 14,3 km/h (3 Bft) SW 218 1 min 0,000 mm 1,6 UV-I 656 W/m 10,8 C 13,5 C 22,5 km/h (4 Bft) 95,65 %
20.05.2016 16:45 16,6 C 68 % 1019,9 hPa 0,0 l/m 11,3 km/h (2 Bft) W-SW 254 1 min 0,000 mm 1,6 UV-I 656 W/m 10,7 C 14,4 C 16,1 km/h (3 Bft) 100,00 %
20.05.2016 16:46 16,5 C 68 % 1019,9 hPa 0,0 l/m 13,4 km/h (3 Bft) SW 227 1 min 0,000 mm 1,8 UV-I 656 W/m 10,6 C 13,5 C 17,7 km/h (3 Bft) 100,00 %
20.05.2016 16:47 16,4 C 69 % 1019,9 hPa 0,0 l/m 12,2 km/h (2 Bft) W-SW 256 1 min 0,000 mm 1,8 UV-I 656 W/m 10,7 C 13,8 C 17,7 km/h (3 Bft) 100,00 %
20.05.2016 16:48 16,4 C 70 % 1019,9 hPa 0,0 l/m 14,7 km/h (3 Bft) SW 217 1 min 0,000 mm 1,6 UV-I 374 W/m 10,9 C 13,0 C 19,3 km/h (3 Bft) 100,00 %
20.05.2016 16:49 16,4 C 67 % 1019,9 hPa 0,0 l/m 11,5 km/h (2 Bft) W 262 0 min 0,000 mm 1,4 UV-I 273 W/m 10,3 C 14,1 C 14,5 km/h (3 Bft) 100,00 %
20.05.2016 16:50 16,3 C 69 % 1019,9 hPa 0,0 l/m 14,6 km/h (3 Bft) S-SW 205 0 min 0,000 mm 1,4 UV-I 258 W/m 10,6 C 12,9 C 16,1 km/h (3 Bft) 92,31 %
20.05.2016 16:51 16,2 C 69 % 1019,9 hPa 0,0 l/m 17,6 km/h (3 Bft) SW 236 0 min 0,000 mm 1,3 UV-I 267 W/m 10,5 C 11,9 C 24,1 km/h (4 Bft) 95,83 %
20.05.2016 16:52 16,2 C 70 % 1019,9 hPa 0,0 l/m 14,5 km/h (3 Bft) W 259 0 min 0,000 mm 1,4 UV-I 298 W/m 10,7 C 12,8 C 20,9 km/h (4 Bft) 100,00 %
20.05.2016 16:53 16,1 C 70 % 1019,9 hPa 0,0 l/m 10,4 km/h (2 Bft) S-SW 192 0 min 0,000 mm 1,6 UV-I 309 W/m 10,6 C 14,2 C 17,7 km/h (3 Bft) 100,00 %
20.05.2016 16:54 16,2 C 68 % 1019,9 hPa 0,0 l/m 9,7 km/h (2 Bft) SW 223 1 min 0,000 mm 1,6 UV-I 541 W/m 10,3 C 14,6 C 17,7 km/h (3 Bft) 100,00 %
20.05.2016 16:55 16,2 C 70 % 1019,9 hPa 0,0 l/m 10,1 km/h (2 Bft) SW 236 1 min 0,000 mm 1,4 UV-I 540 W/m 10,7 C 14,4 C 17,7 km/h (3 Bft) 100,00 %
20.05.2016 16:56 16,2 C 69 % 1019,9 hPa 0,0 l/m 6,9 km/h (2 Bft) SW 225 0 min 0,000 mm 1,4 UV-I 204 W/m 10,5 C 15,9 C 9,7 km/h (2 Bft) 100,00 %
20.05.2016 16:57 16,2 C 70 % 1019,9 hPa 0,0 l/m 7,0 km/h (2 Bft) SW 216 0 min 0,000 mm 1,6 UV-I 204 W/m 10,7 C 15,9 C 11,3 km/h (2 Bft) 100,00 %
20.05.2016 16:58 16,2 C 69 % 1019,8 hPa 0,0 l/m 12,8 km/h (3 Bft) S-SW 198 0 min 0,000 mm 1,6 UV-I 204 W/m 10,5 C 13,4 C 19,3 km/h (3 Bft) 100,00 %
20.05.2016 16:59 16,2 C 70 % 1019,9 hPa 0,0 l/m 14,9 km/h (3 Bft) SW 234 0 min 0,000 mm 1,5 UV-I 204 W/m 10,7 C 12,7 C 19,3 km/h (3 Bft) 100,00 %
20.05.2016 17:00 16,2 C 70 % 1019,9 hPa 0,0 l/m 9,7 km/h (2 Bft) S 181 0 min 0,000 mm 1,6 UV-I 204 W/m 10,7 C 14,6 C 16,1 km/h (3 Bft) 100,00 %
20.05.2016 17:02 16,3 C 72 % 1019,9 hPa 0,0 l/m 12,8 km/h (3 Bft) W-SW 238 2 min 0,305 mm 1,5 UV-I 533 W/m 11,2 C 13,5 C 19,3 km/h (3 Bft) 100,00 %
20.05.2016 17:03 16,3 C 69 % 1019,9 hPa 0,0 l/m 14,3 km/h (3 Bft) S-SW 211 1 min 0,000 mm 1,5 UV-I 370 W/m 10,6 C 13,0 C 20,9 km/h (4 Bft) 98,61 %
20.05.2016 17:04 16,3 C 69 % 1019,9 hPa 0,0 l/m 13,6 km/h (3 Bft) W-SW 243 1 min 0,000 mm 1,4 UV-I 343 W/m 10,6 C 13,2 C 19,3 km/h (3 Bft) 100,00 %
20.05.2016 17:05 16,2 C 69 % 1019,8 hPa 0,0 l/m 10,4 km/h (2 Bft) SW 234 1 min 0,000 mm 1,4 UV-I 406 W/m 10,5 C 14,3 C 16,1 km/h (3 Bft) 100,00 %
20.05.2016 17:06 16,2 C 68 % 1019,9 hPa 0,0 l/m 6,7 km/h (2 Bft) S 182 1 min 0,000 mm 1,3 UV-I 417 W/m 10,3 C 16,1 C 9,7 km/h (2 Bft) 100,00 %
20.05.2016 17:07 16,1 C 68 % 1019,8 hPa 0,0 l/m 7,2 km/h (2 Bft) W-SW 237 0 min 0,000 mm 1,3 UV-I 262 W/m 10,2 C 15,7 C 11,3 km/h (2 Bft) 100,00 %
20.05.2016 17:08 16,1 C 70 % 1019,8 hPa 0,0 l/m 6,0 km/h (2 Bft) SW 224 0 min 0,000 mm 1,3 UV-I 274 W/m 10,6 C 16,1 C 11,3 km/h (2 Bft) 95,65 %
20.05.2016 17:09 16,1 C 70 % 1019,8 hPa 0,0 l/m 6,6 km/h (2 Bft) SW 231 0 min 0,000 mm 1,2 UV-I 264 W/m 10,6 C 16,0 C 9,7 km/h (2 Bft) 100,00 %
20.05.2016 17:10 16,1 C 71 % 1019,8 hPa 0,0 l/m 6,7 km/h (2 Bft) SW 217 0 min 0,000 mm 1,2 UV-I 286 W/m 10,8 C 16,0 C 14,5 km/h (3 Bft) 95,65 %
20.05.2016 17:11 16,2 C 71 % 1019,8 hPa 0,0 l/m 9,3 km/h (2 Bft) W 264 0 min 0,000 mm 1,3 UV-I 295 W/m 10,9 C 14,7 C 12,9 km/h (3 Bft) 100,00 %
20.05.2016 17:12 16,2 C 71 % 1019,8 hPa 0,0 l/m 10,1 km/h (2 Bft) W-SW 244 1 min 0,000 mm 1,4 UV-I 302 W/m 10,9 C 14,4 C 12,9 km/h (3 Bft) 96,55 %
20.05.2016 17:13 16,3 C 71 % 1019,8 hPa 0,0 l/m 10,7 km/h (2 Bft) W-SW 252 1 min 0,000 mm 1,4 UV-I 532 W/m 11,0 C 14,3 C 14,5 km/h (3 Bft) 96,67 %
20.05.2016 17:14 16,4 C 69 % 1019,7 hPa 0,0 l/m 14,2 km/h (3 Bft) S-SW 212 1 min 0,000 mm 1,4 UV-I 518 W/m 10,7 C 13,1 C 19,3 km/h (3 Bft) 100,00 %
20.05.2016 17:15 16,6 C 70 % 1019,8 hPa 0,0 l/m 13,8 km/h (3 Bft) SW 226 1 min 0,000 mm 1,4 UV-I 491 W/m 11,1 C 13,5 C 24,1 km/h (4 Bft) 91,67 %
20.05.2016 17:16 16,6 C 68 % 1019,8 hPa 0,0 l/m 10,5 km/h (2 Bft) W-SW 244 1 min 0,000 mm 1,4 UV-I 491 W/m 10,7 C 14,7 C 16,1 km/h (3 Bft) 100,00 %
20.05.2016 17:17 16,6 C 67 % 1019,8 hPa 0,0 l/m 10,5 km/h (2 Bft) S 191 1 min 0,000 mm 1,4 UV-I 502 W/m 10,4 C 14,7 C 17,7 km/h (3 Bft) 96,30 %
20.05.2016 17:18 16,6 C 68 % 1019,8 hPa 0,0 l/m 11,1 km/h (2 Bft) SW 214 1 min 0,000 mm 1,4 UV-I 490 W/m 10,7 C 14,4 C 14,5 km/h (3 Bft) 94,12 %
20.05.2016 17:19 16,6 C 67 % 1019,8 hPa 0,0 l/m 10,9 km/h (2 Bft) S 171 1 min 0,000 mm 1,4 UV-I 492 W/m 10,4 C 14,5 C 17,7 km/h (3 Bft) 92,59 %
20.05.2016 17:20 16,6 C 67 % 1019,7 hPa 0,0 l/m 14,4 km/h (3 Bft) S-SW 208 1 min 0,000 mm 1,4 UV-I 495 W/m 10,4 C 13,3 C 19,3 km/h (3 Bft) 95,65 %
20.05.2016 17:21 16,5 C 67 % 1019,7 hPa 0,0 l/m 13,4 km/h (3 Bft) S-SW 202 1 min 0,000 mm 1,4 UV-I 477 W/m 10,4 C 13,5 C 17,7 km/h (3 Bft) 100,00 %
20.05.2016 17:22 16,6 C 68 % 1019,7 hPa 0,0 l/m 11,5 km/h (2 Bft) S-SW 208 1 min 0,000 mm 1,3 UV-I 470 W/m 10,7 C 14,3 C 16,1 km/h (3 Bft) 92,86 %
20.05.2016 17:23 16,6 C 70 % 1019,7 hPa 0,0 l/m 13,9 km/h (3 Bft) SW 218 1 min 0,000 mm 1,3 UV-I 447 W/m 11,1 C 13,5 C 19,3 km/h (3 Bft) 100,00 %
20.05.2016 17:24 16,6 C 68 % 1019,7 hPa 0,0 l/m 15,8 km/h (3 Bft) SW 225 1 min 0,000 mm 1,3 UV-I 427 W/m 10,7 C 12,9 C 19,3 km/h (3 Bft) 96,15 %
20.05.2016 17:25 16,7 C 67 % 1019,7 hPa 0,0 l/m 13,0 km/h (3 Bft) W-SW 250 1 min 0,000 mm 1,3 UV-I 443 W/m 10,5 C 13,9 C 22,5 km/h (4 Bft) 96,30 %
20.05.2016 17:26 16,7 C 66 % 1019,7 hPa 0,0 l/m 12,6 km/h (3 Bft) S-SW 204 1 min 0,000 mm 1,3 UV-I 450 W/m 10,3 C 14,0 C 17,7 km/h (3 Bft) 100,00 %
20.05.2016 17:27 16,6 C 66 % 1019,7 hPa 0,0 l/m 12,2 km/h (2 Bft) SW 214 1 min 0,000 mm 1,3 UV-I 455 W/m 10,2 C 14,0 C 16,1 km/h (3 Bft) 93,33 %
20.05.2016 17:28 16,6 C 68 % 1019,7 hPa 0,0 l/m 8,9 km/h (2 Bft) S 186 1 min 0,000 mm 1,3 UV-I 455 W/m 10,7 C 15,4 C 14,5 km/h (3 Bft) 100,00 %
20.05.2016 17:29 16,6 C 68 % 1019,7 hPa 0,0 l/m 11,3 km/h (2 Bft) W-SW 254 1 min 0,000 mm 1,3 UV-I 455 W/m 10,7 C 14,4 C 14,5 km/h (3 Bft) 96,30 %
20.05.2016 17:30 16,7 C 68 % 1019,7 hPa 0,0 l/m 13,9 km/h (3 Bft) SW 218 1 min 0,000 mm 1,2 UV-I 450 W/m 10,8 C 13,6 C 19,3 km/h (3 Bft) 100,00 %
20.05.2016 17:31 16,7 C 68 % 1019,7 hPa 0,0 l/m 11,4 km/h (2 Bft) S-SW 213 1 min 0,000 mm 1,2 UV-I 445 W/m 10,8 C 14,4 C 14,5 km/h (3 Bft) 95,65 %
20.05.2016 17:32 16,7 C 67 % 1019,7 hPa 0,0 l/m 7,8 km/h (2 Bft) SW 215 1 min 0,000 mm 1,2 UV-I 440 W/m 10,5 C 16,0 C 9,7 km/h (2 Bft) 100,00 %
20.05.2016 17:33 16,7 C 66 % 1019,7 hPa 0,0 l/m 12,8 km/h (3 Bft) SW 224 1 min 0,000 mm 1,2 UV-I 436 W/m 10,3 C 14,0 C 16,1 km/h (3 Bft) 95,65 %
20.05.2016 17:34 16,7 C 67 % 1019,7 hPa 0,0 l/m 9,7 km/h (2 Bft) W-SW 240 1 min 0,000 mm 1,2 UV-I 436 W/m 10,5 C 15,1 C 14,5 km/h (3 Bft) 100,00 %
20.05.2016 17:35 16,7 C 67 % 1019,7 hPa 0,0 l/m 11,4 km/h (2 Bft) SW 235 1 min 0,000 mm 1,1 UV-I 426 W/m 10,5 C 14,4 C 17,7 km/h (3 Bft) 96,00 %
20.05.2016 17:36 16,7 C 68 % 1019,7 hPa 0,0 l/m 10,9 km/h (2 Bft) S 185 1 min 0,000 mm 1,1 UV-I 413 W/m 10,8 C 14,6 C 16,1 km/h (3 Bft) 95,83 %
20.05.2016 17:37 16,7 C 68 % 1019,7 hPa 0,0 l/m 7,5 km/h (2 Bft) S 169 1 min 0,000 mm 1,1 UV-I 382 W/m 10,8 C 16,1 C 11,3 km/h (2 Bft) 100,00 %
20.05.2016 17:38 16,7 C 67 % 1019,6 hPa 0,0 l/m 11,3 km/h (2 Bft) W 260 1 min 0,000 mm 1,0 UV-I 434 W/m 10,5 C 14,5 C 17,7 km/h (3 Bft) 100,00 %
20.05.2016 17:39 16,7 C 67 % 1019,7 hPa 0,0 l/m 11,1 km/h (2 Bft) W-SW 253 1 min 0,000 mm 0,9 UV-I 269 W/m 10,5 C 14,6 C 16,1 km/h (3 Bft) 96,55 %
20.05.2016 17:40 16,7 C 68 % 1019,7 hPa 0,0 l/m 10,4 km/h (2 Bft) SW 227 0 min 0,000 mm 1,0 UV-I 141 W/m 10,8 C 14,8 C 14,5 km/h (3 Bft) 96,30 %
20.05.2016 17:41 16,7 C 66 % 1019,7 hPa 0,0 l/m 11,8 km/h (2 Bft) W 260 0 min 0,000 mm 1,1 UV-I 141 W/m 10,3 C 14,3 C 17,7 km/h (3 Bft) 100,00 %
20.05.2016 17:42 16,6 C 65 % 1019,7 hPa 0,0 l/m 13,0 km/h (3 Bft) W-SW 250 1 min 0,000 mm 1,0 UV-I 407 W/m 10,0 C 13,8 C 19,3 km/h (3 Bft) 100,00 %
20.05.2016 17:43 16,6 C 65 % 1019,7 hPa 0,0 l/m 12,7 km/h (3 Bft) W-SW 244 1 min 0,000 mm 1,0 UV-I 418 W/m 10,0 C 13,9 C 17,7 km/h (3 Bft) 96,15 %
20.05.2016 17:44 16,6 C 65 % 1019,7 hPa 0,0 l/m 7,8 km/h (2 Bft) W-SW 257 1 min 0,000 mm 1,0 UV-I 418 W/m 10,0 C 15,9 C 11,3 km/h (2 Bft) 96,30 %
20.05.2016 17:45 16,6 C 67 % 1019,7 hPa 0,0 l/m 10,2 km/h (2 Bft) W 275 1 min 0,000 mm 1,0 UV-I 419 W/m 10,4 C 14,8 C 16,1 km/h (3 Bft) 100,00 %
20.05.2016 17:46 16,7 C 68 % 1019,7 hPa 0,0 l/m 10,1 km/h (2 Bft) W 267 1 min 0,000 mm 1,0 UV-I 403 W/m 10,8 C 15,0 C 14,5 km/h (3 Bft) 100,00 %
20.05.2016 17:47 16,8 C 66 % 1019,6 hPa 0,0 l/m 10,5 km/h (2 Bft) W-SW 245 1 min 0,000 mm 1,0 UV-I 400 W/m 10,4 C 14,9 C 17,7 km/h (3 Bft) 100,00 %
20.05.2016 17:48 16,8 C 67 % 1019,7 hPa 0,0 l/m 13,9 km/h (3 Bft) W 266 1 min 0,000 mm 0,9 UV-I 402 W/m 10,6 C 13,7 C 17,7 km/h (3 Bft) 100,00 %
20.05.2016 17:49 16,9 C 68 % 1019,6 hPa 0,0 l/m 13,1 km/h (3 Bft) SW 228 1 min 0,000 mm 0,9 UV-I 393 W/m 11,0 C 14,1 C 17,7 km/h (3 Bft) 95,83 %
20.05.2016 17:50 16,9 C 66 % 1019,6 hPa 0,0 l/m 14,6 km/h (3 Bft) SW 228 1 min 0,000 mm 0,9 UV-I 411 W/m 10,5 C 13,6 C 20,9 km/h (4 Bft) 100,00 %
20.05.2016 17:51 16,9 C 66 % 1019,6 hPa 0,0 l/m 14,7 km/h (3 Bft) S-SW 202 1 min 0,000 mm 0,9 UV-I 406 W/m 10,5 C 13,6 C 22,5 km/h (4 Bft) 100,00 %
20.05.2016 17:52 16,9 C 66 % 1019,6 hPa 0,0 l/m 11,8 km/h (2 Bft) W-SW 238 1 min 0,000 mm 0,9 UV-I 404 W/m 10,5 C 14,5 C 17,7 km/h (3 Bft) 100,00 %
20.05.2016 17:53 16,9 C 66 % 1019,6 hPa 0,0 l/m 9,6 km/h (2 Bft) SW 232 1 min 0,000 mm 0,9 UV-I 397 W/m 10,5 C 15,4 C 12,9 km/h (3 Bft) 100,00 %
20.05.2016 17:54 16,9 C 65 % 1019,6 hPa 0,0 l/m 8,4 km/h (2 Bft) S-SW 200 1 min 0,000 mm 0,9 UV-I 408 W/m 10,3 C 15,9 C 14,5 km/h (3 Bft) 96,15 %
20.05.2016 17:55 16,8 C 65 % 1019,6 hPa 0,0 l/m 9,8 km/h (2 Bft) W-SW 240 1 min 0,000 mm 0,9 UV-I 398 W/m 10,2 C 15,2 C 14,5 km/h (3 Bft) 96,30 %
20.05.2016 17:56 16,8 C 66 % 1019,6 hPa 0,0 l/m 10,7 km/h (2 Bft) S-SW 213 1 min 0,000 mm 0,9 UV-I 363 W/m 10,4 C 14,8 C 16,1 km/h (3 Bft) 95,65 %
20.05.2016 17:57 16,8 C 65 % 1019,6 hPa 0,0 l/m 9,1 km/h (2 Bft) SW 217 1 min 0,000 mm 0,8 UV-I 336 W/m 10,2 C 15,5 C 12,9 km/h (3 Bft) 100,00 %
20.05.2016 17:58 16,8 C 68 % 1019,6 hPa 0,0 l/m 6,5 km/h (2 Bft) S-SO 163 1 min 0,000 mm 0,8 UV-I 373 W/m 10,9 C 16,8 C 9,7 km/h (2 Bft) 95,65 %
20.05.2016 17:59 16,8 C 67 % 1019,6 hPa 0,0 l/m 8,9 km/h (2 Bft) W 262 1 min 0,000 mm 0,8 UV-I 387 W/m 10,6 C 15,6 C 12,9 km/h (3 Bft) 100,00 %
20.05.2016 18:00 16,8 C 67 % 1019,6 hPa 0,0 l/m 6,7 km/h (2 Bft) S-SW 211 1 min 0,000 mm 0,8 UV-I 380 W/m 10,6 C 16,7 C 9,7 km/h (2 Bft) 100,00 %
20.05.2016 18:01 16,9 C 67 % 1019,6 hPa 0,0 l/m 10,2 km/h (2 Bft) SW 228 1 min 0,254 mm 0,8 UV-I 365 W/m 10,7 C 15,1 C 12,9 km/h (3 Bft) 100,00 %
20.05.2016 18:02 16,9 C 67 % 1019,6 hPa 0,0 l/m 8,0 km/h (2 Bft) S-SW 209 1 min 0,000 mm 0,8 UV-I 357 W/m 10,7 C 16,1 C 12,9 km/h (3 Bft) 96,15 %
20.05.2016 18:03 16,9 C 66 % 1019,6 hPa 0,0 l/m 6,1 km/h (2 Bft) W-SW 257 1 min 0,000 mm 0,8 UV-I 354 W/m 10,5 C 16,9 C 8,0 km/h (2 Bft) 100,00 %
20.05.2016 18:04 16,9 C 67 % 1019,6 hPa 0,0 l/m 8,0 km/h (2 Bft) W-NW 296 1 min 0,000 mm 0,8 UV-I 349 W/m 10,7 C 16,1 C 12,9 km/h (3 Bft) 100,00 %
20.05.2016 18:05 16,9 C 66 % 1019,6 hPa 0,0 l/m 13,9 km/h (3 Bft) W 274 1 min 0,000 mm 0,8 UV-I 340 W/m 10,5 C 13,8 C 17,7 km/h (3 Bft) 100,00 %
20.05.2016 18:06 16,9 C 65 % 1019,5 hPa 0,0 l/m 11,8 km/h (2 Bft) S-SW 212 1 min 0,000 mm 0,7 UV-I 332 W/m 10,3 C 14,5 C 17,7 km/h (3 Bft) 100,00 %
20.05.2016 18:07 16,9 C 65 % 1019,5 hPa 0,0 l/m 10,2 km/h (2 Bft) W-SW 248 1 min 0,000 mm 0,7 UV-I 333 W/m 10,3 C 15,1 C 16,1 km/h (3 Bft) 100,00 %
20.05.2016 18:08 16,9 C 65 % 1019,6 hPa 0,0 l/m 8,6 km/h (2 Bft) SW 232 1 min 0,000 mm 0,7 UV-I 329 W/m 10,3 C 15,8 C 12,9 km/h (3 Bft) 96,30 %
20.05.2016 18:09 16,9 C 68 % 1019,6 hPa 0,0 l/m 11,3 km/h (2 Bft) W-SW 257 1 min 0,000 mm 0,7 UV-I 329 W/m 11,0 C 14,7 C 14,5 km/h (3 Bft) 100,00 %
20.05.2016 18:10 16,9 C 67 % 1019,5 hPa 0,0 l/m 11,9 km/h (2 Bft) SW 217 1 min 0,000 mm 0,7 UV-I 329 W/m 10,7 C 14,5 C 16,1 km/h (3 Bft) 100,00 %
20.05.2016 18:11 16,9 C 66 % 1019,6 hPa 0,0 l/m 12,9 km/h (3 Bft) W-SW 242 1 min 0,000 mm 0,7 UV-I 329 W/m 10,5 C 14,2 C 19,3 km/h (3 Bft) 100,00 %
20.05.2016 18:12 16,8 C 65 % 1019,6 hPa 0,0 l/m 14,2 km/h (3 Bft) W-SW 248 1 min 0,000 mm 0,7 UV-I 324 W/m 10,2 C 13,6 C 22,5 km/h (4 Bft) 100,00 %
20.05.2016 18:13 16,8 C 65 % 1019,6 hPa 0,0 l/m 11,7 km/h (2 Bft) W-SW 252 1 min 0,000 mm 0,7 UV-I 314 W/m 10,2 C 14,5 C 19,3 km/h (3 Bft) 100,00 %
20.05.2016 18:14 16,8 C 64 % 1019,6 hPa 0,0 l/m 10,6 km/h (2 Bft) SW 223 1 min 0,000 mm 0,7 UV-I 309 W/m 10,0 C 14,9 C 14,5 km/h (3 Bft) 100,00 %
20.05.2016 18:15 16,7 C 64 % 1019,6 hPa 0,0 l/m 12,9 km/h (3 Bft) S-SW 212 1 min 0,000 mm 0,7 UV-I 310 W/m 9,9 C 13,9 C 17,7 km/h (3 Bft) 100,00 %
20.05.2016 18:16 16,7 C 65 % 1019,6 hPa 0,0 l/m 15,7 km/h (3 Bft) W-SW 238 1 min 0,000 mm 0,6 UV-I 304 W/m 10,1 C 13,0 C 24,1 km/h (4 Bft) 100,00 %
20.05.2016 18:17 16,7 C 64 % 1019,6 hPa 0,0 l/m 14,8 km/h (3 Bft) W-SW 241 1 min 0,000 mm 0,6 UV-I 289 W/m 9,9 C 13,3 C 17,7 km/h (3 Bft) 100,00 %
20.05.2016 18:18 16,6 C 65 % 1019,6 hPa 0,0 l/m 10,8 km/h (2 Bft) SW 234 1 min 0,000 mm 0,6 UV-I 283 W/m 10,0 C 14,6 C 14,5 km/h (3 Bft) 100,00 %
20.05.2016 18:19 16,7 C 67 % 1019,6 hPa 0,0 l/m 12,1 km/h (2 Bft) W-SW 256 1 min 0,000 mm 0,6 UV-I 244 W/m 10,5 C 14,2 C 16,1 km/h (3 Bft) 98,58 %
20.05.2016 18:20 16,6 C 65 % 1019,6 hPa 0,0 l/m 10,0 km/h (2 Bft) S-SW 213 1 min 0,000 mm 0,6 UV-I 230 W/m 10,0 C 14,9 C 17,7 km/h (3 Bft) 100,00 %
20.05.2016 18:21 16,6 C 66 % 1019,6 hPa 0,0 l/m 12,1 km/h (2 Bft) SW 230 1 min 0,000 mm 0,6 UV-I 230 W/m 10,2 C 14,1 C 16,1 km/h (3 Bft) 100,00 %
20.05.2016 18:22 16,4 C 66 % 1019,6 hPa 0,0 l/m 13,9 km/h (3 Bft) W-SW 239 1 min 0,000 mm 0,5 UV-I 230 W/m 10,0 C 13,2 C 19,3 km/h (3 Bft) 100,00 %
20.05.2016 18:23 16,3 C 66 % 1019,6 hPa 0,0 l/m 13,2 km/h (3 Bft) S-SW 207 0 min 0,000 mm 0,5 UV-I 97 W/m 9,9 C 13,3 C 19,3 km/h (3 Bft) 100,00 %
20.05.2016 18:24 16,3 C 67 % 1019,6 hPa 0,0 l/m 8,7 km/h (2 Bft) W-SW 247 0 min 0,000 mm 0,5 UV-I 144 W/m 10,2 C 15,1 C 12,9 km/h (3 Bft) 100,00 %
20.05.2016 18:25 16,3 C 66 % 1019,6 hPa 0,0 l/m 15,7 km/h (3 Bft) W-SW 245 1 min 0,000 mm 0,5 UV-I 240 W/m 9,9 C 12,6 C 17,7 km/h (3 Bft) 93,33 %
20.05.2016 18:26 16,2 C 67 % 1019,6 hPa 0,0 l/m 9,4 km/h (2 Bft) W-SW 240 1 min 0,000 mm 0,5 UV-I 236 W/m 10,1 C 14,7 C 16,1 km/h (3 Bft) 100,00 %
20.05.2016 18:27 16,2 C 67 % 1019,6 hPa 0,0 l/m 9,5 km/h (2 Bft) SW 220 1 min 0,000 mm 0,5 UV-I 203 W/m 10,1 C 14,7 C 12,9 km/h (3 Bft) 100,00 %
20.05.2016 18:28 16,2 C 68 % 1019,6 hPa 0,0 l/m 10,2 km/h (2 Bft) SW 233 0 min 0,000 mm 0,5 UV-I 146 W/m 10,3 C 14,4 C 14,5 km/h (3 Bft) 100,00 %
20.05.2016 18:29 16,2 C 68 % 1019,6 hPa 0,0 l/m 10,6 km/h (2 Bft) W-SW 242 0 min 0,000 mm 0,5 UV-I 158 W/m 10,3 C 14,2 C 14,5 km/h (3 Bft) 100,00 %
20.05.2016 18:30 16,2 C 68 % 1019,6 hPa 0,0 l/m 11,8 km/h (2 Bft) SW 227 0 min 0,000 mm 0,5 UV-I 111 W/m 10,3 C 13,7 C 14,5 km/h (3 Bft) 100,00 %
20.05.2016 18:31 16,1 C 68 % 1019,6 hPa 0,0 l/m 12,1 km/h (2 Bft) W-SW 245 0 min 0,000 mm 0,5 UV-I 127 W/m 10,2 C 13,5 C 16,1 km/h (3 Bft) 100,00 %
20.05.2016 18:32 16,1 C 68 % 1019,6 hPa 0,0 l/m 8,3 km/h (2 Bft) S 178 0 min 0,000 mm 0,5 UV-I 137 W/m 10,2 C 15,1 C 14,5 km/h (3 Bft) 100,00 %
20.05.2016 18:33 16,0 C 69 % 1019,6 hPa 0,0 l/m 10,2 km/h (2 Bft) S-SO 161 1 min 0,000 mm 0,5 UV-I 210 W/m 10,3 C 14,1 C 14,5 km/h (3 Bft) 95,83 %
20.05.2016 18:34 16,0 C 68 % 1019,6 hPa 0,0 l/m 10,8 km/h (2 Bft) W-SW 242 1 min 0,000 mm 0,1 UV-I 231 W/m 10,1 C 13,9 C 16,1 km/h (3 Bft) 100,00 %
20.05.2016 18:35 16,0 C 69 % 1019,7 hPa 0,0 l/m 11,3 km/h (2 Bft) SW 221 1 min 0,000 mm 0,0 UV-I 185 W/m 10,3 C 13,7 C 17,7 km/h (3 Bft) 100,00 %
20.05.2016 18:36 16,0 C 70 % 1019,6 hPa 0,0 l/m 11,6 km/h (2 Bft) W-SW 254 1 min 0,000 mm 0,0 UV-I 216 W/m 10,5 C 13,6 C 16,1 km/h (3 Bft) 96,15 %
20.05.2016 18:37 16,0 C 70 % 1019,6 hPa 0,0 l/m 9,3 km/h (2 Bft) S 190 1 min 0,000 mm 0,0 UV-I 199 W/m 10,5 C 14,5 C 14,5 km/h (3 Bft) 95,83 %
20.05.2016 18:38 16,0 C 68 % 1019,6 hPa 0,0 l/m 8,2 km/h (2 Bft) S 180 1 min 0,000 mm 0,0 UV-I 244 W/m 10,1 C 15,1 C 14,5 km/h (3 Bft) 100,00 %
20.05.2016 18:39 16,1 C 68 % 1019,6 hPa 0,0 l/m 5,9 km/h (2 Bft) SW 219 1 min 0,000 mm 0,0 UV-I 175 W/m 10,2 C 16,1 C 14,5 km/h (3 Bft) 100,00 %
20.05.2016 18:40 16,0 C 67 % 1019,6 hPa 0,0 l/m 11,7 km/h (2 Bft) SW 219 0 min 0,000 mm 0,0 UV-I 97 W/m 9,9 C 13,5 C 17,7 km/h (3 Bft) 100,00 %
20.05.2016 18:41 15,9 C 68 % 1019,6 hPa 0,0 l/m 11,6 km/h (2 Bft) SW 217 0 min 0,000 mm 0,0 UV-I 101 W/m 10,0 C 13,5 C 16,1 km/h (3 Bft) 100,00 %
20.05.2016 18:42 15,9 C 68 % 1019,6 hPa 0,0 l/m 7,0 km/h (2 Bft) SW 221 0 min 0,000 mm 0,0 UV-I 100 W/m 10,0 C 15,6 C 14,5 km/h (3 Bft) 100,00 %
20.05.2016 18:43 15,9 C 68 % 1019,6 hPa 0,0 l/m 6,8 km/h (2 Bft) S-SW 197 0 min 0,000 mm 0,0 UV-I 83 W/m 10,0 C 15,7 C 12,9 km/h (3 Bft) 100,00 %
20.05.2016 18:44 15,8 C 69 % 1019,6 hPa 0,0 l/m 8,1 km/h (2 Bft) S 173 0 min 0,000 mm 0,0 UV-I 83 W/m 10,1 C 14,9 C 11,3 km/h (2 Bft) 100,00 %
20.05.2016 18:45 15,8 C 69 % 1019,6 hPa 0,0 l/m 7,9 km/h (2 Bft) S-SW 200 0 min 0,000 mm 0,0 UV-I 85 W/m 10,1 C 15,0 C 11,3 km/h (2 Bft) 100,00 %
20.05.2016 18:46 15,8 C 69 % 1019,6 hPa 0,0 l/m 7,2 km/h (2 Bft) W-SW 238 0 min 0,000 mm 0,0 UV-I 94 W/m 10,1 C 15,4 C 14,5 km/h (3 Bft) 100,00 %
20.05.2016 18:47 15,7 C 69 % 1019,6 hPa 0,0 l/m 9,7 km/h (2 Bft) S-SO 150 1 min 0,000 mm 0,0 UV-I 188 W/m 10,0 C 14,0 C 16,1 km/h (3 Bft) 100,00 %
20.05.2016 18:48 15,7 C 70 % 1019,6 hPa 0,0 l/m 8,0 km/h (2 Bft) S 170 1 min 0,000 mm 0,0 UV-I 236 W/m 10,2 C 14,8 C 11,3 km/h (2 Bft) 100,00 %
20.05.2016 18:49 15,7 C 69 % 1019,6 hPa 0,0 l/m 7,4 km/h (2 Bft) SW 225 1 min 0,000 mm 0,0 UV-I 236 W/m 10,0 C 15,2 C 9,7 km/h (2 Bft) 100,00 %
20.05.2016 18:50 15,8 C 70 % 1019,7 hPa 0,0 l/m 7,2 km/h (2 Bft) SW 216 1 min 0,000 mm 0,0 UV-I 227 W/m 10,3 C 15,4 C 9,7 km/h (2 Bft) 100,00 %
20.05.2016 18:51 15,8 C 69 % 1019,6 hPa 0,0 l/m 9,0 km/h (2 Bft) W-SW 244 1 min 0,000 mm 0,0 UV-I 212 W/m 10,1 C 14,5 C 14,5 km/h (3 Bft) 100,00 %
20.05.2016 18:55 15,9 C 68 % 1019,6 hPa 0,0 l/m 11,3 km/h (2 Bft) S-SW 202 4 min 0,000 mm 0,0 UV-I 203 W/m 10,0 C 13,6 C 20,9 km/h (4 Bft) 99,12 %
20.05.2016 19:00 16,0 C 69 % 1019,6 hPa 0,0 l/m 8,0 km/h (2 Bft) W-SW 247 5 min 0,152 mm 0,0 UV-I 193 W/m 10,3 C 15,2 C 14,5 km/h (3 Bft) 100,00 %
20.05.2016 19:02 16,1 C 68 % 1019,6 hPa 0,0 l/m 13,0 km/h (3 Bft) S-SW 207 2 min 0,000 mm 0,0 UV-I 186 W/m 10,2 C 13,2 C 17,7 km/h (3 Bft) 100,00 %
20.05.2016 19:03 16,0 C 68 % 1019,6 hPa 0,0 l/m 13,6 km/h (3 Bft) W 263 1 min 0,000 mm 0,0 UV-I 164 W/m 10,1 C 12,9 C 19,3 km/h (3 Bft) 95,83 %
20.05.2016 19:04 16,0 C 68 % 1019,6 hPa 0,0 l/m 13,4 km/h (3 Bft) SW 225 1 min 0,000 mm 0,0 UV-I 142 W/m 10,1 C 12,9 C 19,3 km/h (3 Bft) 100,00 %
20.05.2016 19:05 15,9 C 68 % 1019,6 hPa 0,0 l/m 10,1 km/h (2 Bft) W 265 1 min 0,000 mm 0,0 UV-I 145 W/m 10,0 C 14,1 C 17,7 km/h (3 Bft) 100,00 %
20.05.2016 19:06 15,9 C 68 % 1019,6 hPa 0,0 l/m 10,5 km/h (2 Bft) S-SW 203 1 min 0,000 mm 0,0 UV-I 152 W/m 10,0 C 13,9 C 16,1 km/h (3 Bft) 95,65 %
20.05.2016 19:07 15,9 C 69 % 1019,6 hPa 0,0 l/m 12,9 km/h (3 Bft) W-SW 242 1 min 0,000 mm 0,0 UV-I 155 W/m 10,2 C 13,0 C 16,1 km/h (3 Bft) 100,00 %
20.05.2016 19:08 15,9 C 69 % 1019,6 hPa 0,0 l/m 14,4 km/h (3 Bft) SW 232 1 min 0,000 mm 0,0 UV-I 155 W/m 10,2 C 12,5 C 20,9 km/h (4 Bft) 96,15 %
20.05.2016 19:10 15,8 C 68 % 1019,7 hPa 0,0 l/m 9,7 km/h (2 Bft) W-SW 244 2 min 0,000 mm 0,0 UV-I 155 W/m 9,9 C 14,1 C 11,3 km/h (2 Bft) 95,56 %
20.05.2016 19:11 15,8 C 69 % 1019,7 hPa 0,0 l/m 11,0 km/h (2 Bft) SW 236 1 min 0,000 mm 0,0 UV-I 153 W/m 10,1 C 13,6 C 19,3 km/h (3 Bft) 96,15 %
20.05.2016 19:12 15,8 C 69 % 1019,7 hPa 0,0 l/m 10,5 km/h (2 Bft) SW 224 1 min 0,000 mm 0,0 UV-I 148 W/m 10,1 C 13,8 C 16,1 km/h (3 Bft) 100,00 %
20.05.2016 19:13 15,8 C 68 % 1019,7 hPa 0,0 l/m 8,8 km/h (2 Bft) SW 229 1 min 0,000 mm 0,0 UV-I 146 W/m 9,9 C 14,5 C 12,9 km/h (3 Bft) 91,67 %
20.05.2016 19:14 15,8 C 69 % 1019,7 hPa 0,0 l/m 10,3 km/h (2 Bft) S-SW 208 1 min 0,000 mm 0,0 UV-I 137 W/m 10,1 C 13,9 C 12,9 km/h (3 Bft) 100,00 %
20.05.2016 19:15 15,8 C 69 % 1019,7 hPa 0,0 l/m 8,1 km/h (2 Bft) SW 234 1 min 0,000 mm 0,0 UV-I 123 W/m 10,1 C 14,9 C 16,1 km/h (3 Bft) 93,10 %
20.05.2016 19:16 15,8 C 69 % 1019,7 hPa 0,0 l/m 9,8 km/h (2 Bft) SW 217 1 min 0,000 mm 0,0 UV-I 128 W/m 10,1 C 14,1 C 14,5 km/h (3 Bft) 100,00 %
20.05.2016 19:17 15,7 C 69 % 1019,7 hPa 0,0 l/m 9,4 km/h (2 Bft) SW 219 1 min 0,000 mm 0,0 UV-I 128 W/m 10,0 C 14,2 C 14,5 km/h (3 Bft) 96,30 %
20.05.2016 19:18 15,7 C 69 % 1019,7 hPa 0,0 l/m 10,5 km/h (2 Bft) W-SW 245 1 min 0,000 mm 0,0 UV-I 124 W/m 10,0 C 13,7 C 16,1 km/h (3 Bft) 92,31 %
20.05.2016 19:19 15,7 C 69 % 1019,7 hPa 0,0 l/m 8,0 km/h (2 Bft) W-SW 242 1 min 0,000 mm 0,0 UV-I 115 W/m 10,0 C 14,8 C 9,7 km/h (2 Bft) 100,00 %
20.05.2016 19:20 15,6 C 69 % 1019,8 hPa 0,0 l/m 11,0 km/h (2 Bft) W-SW 249 1 min 0,000 mm 0,0 UV-I 111 W/m 9,9 C 13,4 C 16,1 km/h (3 Bft) 94,12 %
20.05.2016 19:21 15,6 C 70 % 1019,7 hPa 0,0 l/m 11,7 km/h (2 Bft) SW 216 1 min 0,000 mm 0,0 UV-I 111 W/m 10,1 C 13,1 C 16,1 km/h (3 Bft) 100,00 %
20.05.2016 19:22 15,6 C 71 % 1019,7 hPa 0,0 l/m 9,8 km/h (2 Bft) W-SW 238 1 min 0,000 mm 0,0 UV-I 111 W/m 10,4 C 13,9 C 14,5 km/h (3 Bft) 96,15 %
20.05.2016 19:23 15,6 C 70 % 1019,7 hPa 0,0 l/m 11,6 km/h (2 Bft) SW 229 1 min 0,000 mm 0,0 UV-I 107 W/m 10,1 C 13,1 C 14,5 km/h (3 Bft) 100,00 %
20.05.2016 19:24 15,5 C 71 % 1019,7 hPa 0,0 l/m 11,8 km/h (2 Bft) SW 225 1 min 0,000 mm 0,0 UV-I 106 W/m 10,3 C 12,9 C 19,3 km/h (3 Bft) 96,15 %
20.05.2016 19:25 15,5 C 71 % 1019,7 hPa 0,0 l/m 9,7 km/h (2 Bft) W-SW 243 1 min 0,000 mm 0,0 UV-I 109 W/m 10,3 C 13,8 C 12,9 km/h (3 Bft) 100,00 %
20.05.2016 19:26 15,4 C 71 % 1019,7 hPa 0,0 l/m 8,9 km/h (2 Bft) W-SW 243 0 min 0,000 mm 0,0 UV-I 99 W/m 10,2 C 14,1 C 12,9 km/h (3 Bft) 92,31 %
20.05.2016 19:27 15,4 C 71 % 1019,7 hPa 0,0 l/m 7,6 km/h (2 Bft) SW 223 0 min 0,000 mm 0,0 UV-I 91 W/m 10,2 C 14,7 C 12,9 km/h (3 Bft) 100,00 %
20.05.2016 19:28 15,4 C 71 % 1019,7 hPa 0,0 l/m 9,3 km/h (2 Bft) SW 232 0 min 0,000 mm 0,0 UV-I 92 W/m 10,2 C 13,9 C 11,3 km/h (2 Bft) 92,31 %
20.05.2016 19:29 15,3 C 71 % 1019,6 hPa 0,0 l/m 9,5 km/h (2 Bft) S-SW 203 0 min 0,000 mm 0,0 UV-I 89 W/m 10,1 C 13,7 C 12,9 km/h (3 Bft) 96,30 %
20.05.2016 19:30 15,3 C 71 % 1019,7 hPa 0,0 l/m 9,7 km/h (2 Bft) SW 223 0 min 0,000 mm 0,0 UV-I 93 W/m 10,1 C 13,6 C 14,5 km/h (3 Bft) 100,00 %
20.05.2016 19:31 15,3 C 71 % 1019,6 hPa 0,0 l/m 8,2 km/h (2 Bft) SW 233 1 min 0,000 mm 0,0 UV-I 95 W/m 10,1 C 14,3 C 11,3 km/h (2 Bft) 94,44 %
20.05.2016 19:32 15,3 C 71 % 1019,6 hPa 0,0 l/m 6,6 km/h (2 Bft) W-SW 254 0 min 0,000 mm 0,0 UV-I 91 W/m 10,1 C 15,2 C 8,0 km/h (2 Bft) 100,00 %
20.05.2016 19:33 15,2 C 71 % 1019,6 hPa 0,0 l/m 6,8 km/h (2 Bft) S-SW 213 0 min 0,000 mm 0,0 UV-I 90 W/m 10,0 C 15,0 C 11,3 km/h (2 Bft) 95,65 %
20.05.2016 19:34 15,2 C 71 % 1019,7 hPa 0,0 l/m 7,9 km/h (2 Bft) W-SW 237 1 min 0,000 mm 0,0 UV-I 90 W/m 10,0 C 14,4 C 12,9 km/h (3 Bft) 100,00 %
20.05.2016 19:35 15,2 C 72 % 1019,6 hPa 0,0 l/m 5,9 km/h (2 Bft) SW 222 0 min 0,000 mm 0,0 UV-I 86 W/m 10,2 C 15,2 C 8,0 km/h (2 Bft) 93,10 %
20.05.2016 19:36 15,2 C 71 % 1019,7 hPa 0,0 l/m 8,9 km/h (2 Bft) SW 232 0 min 0,000 mm 0,0 UV-I 80 W/m 10,0 C 13,9 C 11,3 km/h (2 Bft) 100,00 %
20.05.2016 19:37 15,2 C 71 % 1019,6 hPa 0,0 l/m 6,7 km/h (2 Bft) W-SW 238 0 min 0,000 mm 0,0 UV-I 78 W/m 10,0 C 15,0 C 9,7 km/h (2 Bft) 96,15 %
20.05.2016 19:38 15,2 C 72 % 1019,7 hPa 0,0 l/m 9,2 km/h (2 Bft) S-SW 211 0 min 0,000 mm 0,0 UV-I 79 W/m 10,2 C 13,7 C 12,9 km/h (3 Bft) 96,67 %
20.05.2016 19:39 15,2 C 71 % 1019,7 hPa 0,0 l/m 8,9 km/h (2 Bft) SW 233 0 min 0,000 mm 0,0 UV-I 79 W/m 10,0 C 13,9 C 11,3 km/h (2 Bft) 100,00 %
20.05.2016 19:40 15,2 C 72 % 1019,7 hPa 0,0 l/m 8,9 km/h (2 Bft) SW 230 0 min 0,000 mm 0,0 UV-I 76 W/m 10,2 C 13,9 C 14,5 km/h (3 Bft) 100,00 %
20.05.2016 19:41 15,2 C 72 % 1019,7 hPa 0,0 l/m 5,0 km/h (1 Bft) S-SW 195 0 min 0,000 mm 0,0 UV-I 72 W/m 10,2 C 15,2 C 8,0 km/h (2 Bft) 100,00 %
20.05.2016 19:42 15,2 C 72 % 1019,7 hPa 0,0 l/m 7,1 km/h (2 Bft) SW 230 0 min 0,000 mm 0,0 UV-I 68 W/m 10,2 C 14,8 C 11,3 km/h (2 Bft) 100,00 %
20.05.2016 19:43 15,2 C 72 % 1019,7 hPa 0,0 l/m 6,0 km/h (2 Bft) SW 226 0 min 0,000 mm 0,0 UV-I 64 W/m 10,2 C 15,2 C 8,0 km/h (2 Bft) 100,00 %
20.05.2016 19:44 15,2 C 72 % 1019,7 hPa 0,0 l/m 3,7 km/h (1 Bft) S-SW 194 0 min 0,000 mm 0,0 UV-I 65 W/m 10,2 C 15,2 C 6,4 km/h (2 Bft) 100,00 %
20.05.2016 19:45 15,2 C 72 % 1019,7 hPa 0,0 l/m 6,6 km/h (2 Bft) W-SW 239 0 min 0,000 mm 0,0 UV-I 67 W/m 10,2 C 15,1 C 9,7 km/h (2 Bft) 96,15 %
20.05.2016 19:46 15,1 C 72 % 1019,7 hPa 0,0 l/m 6,4 km/h (2 Bft) SW 232 0 min 0,000 mm 0,0 UV-I 66 W/m 10,1 C 15,1 C 8,0 km/h (2 Bft) 100,00 %
20.05.2016 19:47 15,1 C 71 % 1019,7 hPa 0,0 l/m 4,8 km/h (1 Bft) SW 232 0 min 0,000 mm 0,0 UV-I 61 W/m 9,9 C 15,1 C 8,0 km/h (2 Bft) 95,65 %
20.05.2016 19:48 15,1 C 72 % 1019,7 hPa 0,0 l/m 3,4 km/h (1 Bft) SW 232 0 min 0,000 mm 0,0 UV-I 51 W/m 10,1 C 15,1 C 4,8 km/h (1 Bft) 100,00 %
20.05.2016 19:49 15,1 C 72 % 1019,7 hPa 0,0 l/m 6,3 km/h (2 Bft) SW 227 0 min 0,000 mm 0,0 UV-I 44 W/m 10,1 C 15,1 C 9,7 km/h (2 Bft) 100,00 %
20.05.2016 19:50 15,1 C 72 % 1019,7 hPa 0,0 l/m 4,9 km/h (1 Bft) SW 229 0 min 0,000 mm 0,0 UV-I 42 W/m 10,1 C 15,1 C 6,4 km/h (2 Bft) 100,00 %
20.05.2016 19:51 15,1 C 71 % 1019,7 hPa 0,0 l/m 5,5 km/h (1 Bft) W-SW 246 0 min 0,000 mm 0,0 UV-I 42 W/m 9,9 C 15,1 C 8,0 km/h (2 Bft) 100,00 %
20.05.2016 19:52 15,0 C 71 % 1019,8 hPa 0,0 l/m 7,5 km/h (2 Bft) SW 215 0 min 0,000 mm 0,0 UV-I 43 W/m 9,8 C 14,4 C 11,3 km/h (2 Bft) 100,00 %
20.05.2016 19:53 14,9 C 71 % 1019,8 hPa 0,0 l/m 7,2 km/h (2 Bft) S-SW 208 0 min 0,000 mm 0,0 UV-I 41 W/m 9,7 C 14,4 C 8,0 km/h (2 Bft) 100,00 %
20.05.2016 19:54 14,9 C 71 % 1019,7 hPa 0,0 l/m 4,7 km/h (1 Bft) S-SW 194 0 min 0,000 mm 0,0 UV-I 40 W/m 9,7 C 14,9 C 6,4 km/h (2 Bft) 100,00 %
20.05.2016 19:55 14,9 C 71 % 1019,7 hPa 0,0 l/m 5,1 km/h (1 Bft) S 188 0 min 0,000 mm 0,0 UV-I 39 W/m 9,7 C 14,9 C 8,0 km/h (2 Bft) 100,00 %
20.05.2016 19:56 14,9 C 72 % 1019,7 hPa 0,0 l/m 6,4 km/h (2 Bft) S 180 0 min 0,000 mm 0,0 UV-I 39 W/m 9,9 C 14,9 C 9,7 km/h (2 Bft) 100,00 %
20.05.2016 19:57 14,8 C 71 % 1019,7 hPa 0,0 l/m 6,9 km/h (2 Bft) SW 221 0 min 0,000 mm 0,0 UV-I 33 W/m 9,6 C 14,5 C 9,7 km/h (2 Bft) 100,00 %
20.05.2016 19:58 14,8 C 72 % 1019,7 hPa 0,0 l/m 5,5 km/h (1 Bft) S 181 0 min 0,000 mm 0,0 UV-I 32 W/m 9,8 C 14,8 C 8,0 km/h (2 Bft) 100,00 %
20.05.2016 19:59 14,8 C 72 % 1019,7 hPa 0,0 l/m 3,5 km/h (1 Bft) S 182 0 min 0,000 mm 0,0 UV-I 33 W/m 9,8 C 14,8 C 6,4 km/h (2 Bft) 100,00 %
20.05.2016 20:00 14,8 C 73 % 1019,7 hPa 0,0 l/m 6,9 km/h (2 Bft) S-SW 205 0 min 0,000 mm 0,0 UV-I 32 W/m 10,0 C 14,5 C 9,7 km/h (2 Bft) 100,00 %
20.05.2016 20:01 14,7 C 73 % 1019,7 hPa 0,0 l/m 4,7 km/h (1 Bft) SW 215 0 min 0,076 mm 0,0 UV-I 29 W/m 9,9 C 14,7 C 6,4 km/h (2 Bft) 100,00 %
20.05.2016 20:02 14,7 C 73 % 1019,8 hPa 0,0 l/m 4,0 km/h (1 Bft) SW 214 0 min 0,000 mm 0,0 UV-I 26 W/m 9,9 C 14,7 C 6,4 km/h (2 Bft) 100,00 %
20.05.2016 20:03 14,7 C 73 % 1019,7 hPa 0,0 l/m 7,0 km/h (2 Bft) S 186 0 min 0,000 mm 0,0 UV-I 26 W/m 9,9 C 14,4 C 9,7 km/h (2 Bft) 95,83 %
20.05.2016 20:04 14,6 C 73 % 1019,7 hPa 0,0 l/m 5,3 km/h (1 Bft) SW 227 0 min 0,000 mm 0,0 UV-I 26 W/m 9,8 C 14,6 C 8,0 km/h (2 Bft) 100,00 %
20.05.2016 20:05 14,6 C 72 % 1019,8 hPa 0,0 l/m 3,5 km/h (1 Bft) SW 227 0 min 0,000 mm 0,0 UV-I 26 W/m 9,6 C 14,6 C 6,4 km/h (2 Bft) 100,00 %
20.05.2016 20:06 14,6 C 73 % 1019,7 hPa 0,0 l/m 5,0 km/h (1 Bft) S-SW 204 0 min 0,000 mm 0,0 UV-I 26 W/m 9,8 C 14,6 C 6,4 km/h (2 Bft) 100,00 %
20.05.2016 20:07 14,6 C 74 % 1019,7 hPa 0,0 l/m 6,2 km/h (2 Bft) S-SW 198 0 min 0,000 mm 0,0 UV-I 25 W/m 10,0 C 14,6 C 9,7 km/h (2 Bft) 100,00 %
20.05.2016 20:08 14,6 C 73 % 1019,7 hPa 0,0 l/m 5,7 km/h (1 Bft) S-SW 207 0 min 0,000 mm 0,0 UV-I 25 W/m 9,8 C 14,6 C 6,4 km/h (2 Bft) 100,00 %
20.05.2016 20:09 14,5 C 73 % 1019,7 hPa 0,0 l/m 5,0 km/h (1 Bft) SW 225 0 min 0,000 mm 0,0 UV-I 25 W/m 9,7 C 14,5 C 8,0 km/h (2 Bft) 100,00 %
20.05.2016 20:10 14,6 C 73 % 1019,7 hPa 0,0 l/m 7,2 km/h (2 Bft) S-SW 202 0 min 0,000 mm 0,0 UV-I 23 W/m 9,8 C 14,1 C 9,7 km/h (2 Bft) 100,00 %
20.05.2016 20:11 14,5 C 73 % 1019,7 hPa 0,0 l/m 6,8 km/h (2 Bft) S-SW 212 0 min 0,000 mm 0,0 UV-I 23 W/m 9,7 C 14,3 C 11,3 km/h (2 Bft) 100,00 %
20.05.2016 20:12 14,5 C 73 % 1019,8 hPa 0,0 l/m 5,5 km/h (1 Bft) S-SW 196 0 min 0,000 mm 0,0 UV-I 21 W/m 9,7 C 14,5 C 8,0 km/h (2 Bft) 100,00 %
20.05.2016 20:13 14,5 C 73 % 1019,7 hPa 0,0 l/m 6,1 km/h (2 Bft) S-SW 210 0 min 0,000 mm 0,0 UV-I 21 W/m 9,7 C 14,5 C 9,7 km/h (2 Bft) 100,00 %
20.05.2016 20:14 14,5 C 73 % 1019,8 hPa 0,0 l/m 5,7 km/h (1 Bft) S-SW 203 0 min 0,000 mm 0,0 UV-I 21 W/m 9,7 C 14,5 C 8,0 km/h (2 Bft) 100,00 %
20.05.2016 20:15 14,4 C 73 % 1019,7 hPa 0,0 l/m 5,6 km/h (1 Bft) S-SW 200 0 min 0,000 mm 0,0 UV-I 19 W/m 9,6 C 14,4 C 6,4 km/h (2 Bft) 100,00 %
20.05.2016 20:16 14,4 C 74 % 1019,7 hPa 0,0 l/m 6,4 km/h (2 Bft) S 190 0 min 0,000 mm 0,0 UV-I 18 W/m 9,8 C 14,4 C 11,3 km/h (2 Bft) 100,00 %
20.05.2016 20:17 14,4 C 74 % 1019,8 hPa 0,0 l/m 3,9 km/h (1 Bft) S 181 0 min 0,000 mm 0,0 UV-I 18 W/m 9,8 C 14,4 C 8,0 km/h (2 Bft) 100,00 %
20.05.2016 20:18 14,3 C 73 % 1019,8 hPa 0,0 l/m 4,4 km/h (1 Bft) S 180 0 min 0,000 mm 0,0 UV-I 18 W/m 9,5 C 14,3 C 6,4 km/h (2 Bft) 100,00 %
20.05.2016 20:19 14,3 C 73 % 1019,8 hPa 0,0 l/m 6,5 km/h (2 Bft) S 178 0 min 0,000 mm 0,0 UV-I 18 W/m 9,5 C 14,3 C 8,0 km/h (2 Bft) 96,15 %
20.05.2016 20:20 14,3 C 73 % 1019,8 hPa 0,0 l/m 6,4 km/h (2 Bft) S 182 0 min 0,000 mm 0,0 UV-I 16 W/m 9,5 C 14,3 C 8,0 km/h (2 Bft) 100,00 %
20.05.2016 20:21 14,3 C 73 % 1019,7 hPa 0,0 l/m 6,2 km/h (2 Bft) S-SW 196 0 min 0,000 mm 0,0 UV-I 16 W/m 9,5 C 14,3 C 8,0 km/h (2 Bft) 100,00 %
20.05.2016 20:22 14,3 C 74 % 1019,8 hPa 0,0 l/m 4,9 km/h (1 Bft) SW 219 0 min 0,000 mm 0,0 UV-I 16 W/m 9,7 C 14,3 C 8,0 km/h (2 Bft) 96,30 %
20.05.2016 20:23 14,3 C 73 % 1019,7 hPa 0,0 l/m 4,0 km/h (1 Bft) S-SW 213 0 min 0,000 mm 0,0 UV-I 15 W/m 9,5 C 14,3 C 6,4 km/h (2 Bft) 95,65 %
20.05.2016 20:24 14,3 C 73 % 1019,8 hPa 0,0 l/m 5,4 km/h (1 Bft) S-SW 196 0 min 0,000 mm 0,0 UV-I 14 W/m 9,5 C 14,3 C 6,4 km/h (2 Bft) 100,00 %
20.05.2016 20:25 14,2 C 74 % 1019,8 hPa 0,0 l/m 5,3 km/h (1 Bft) S-SW 192 0 min 0,000 mm 0,0 UV-I 14 W/m 9,6 C 14,2 C 9,7 km/h (2 Bft) 100,00 %
20.05.2016 20:26 14,2 C 75 % 1019,8 hPa 0,0 l/m 4,3 km/h (1 Bft) S 177 0 min 0,000 mm 0,0 UV-I 14 W/m 9,8 C 14,2 C 6,4 km/h (2 Bft) 100,00 %
20.05.2016 20:27 14,1 C 74 % 1019,8 hPa 0,0 l/m 4,2 km/h (1 Bft) S 177 0 min 0,000 mm 0,0 UV-I 12 W/m 9,5 C 14,1 C 6,4 km/h (2 Bft) 100,00 %
20.05.2016 20:28 14,1 C 75 % 1019,8 hPa 0,0 l/m 4,4 km/h (1 Bft) S 175 0 min 0,000 mm 0,0 UV-I 12 W/m 9,7 C 14,1 C 6,4 km/h (2 Bft) 100,00 %
20.05.2016 20:29 14,1 C 75 % 1019,8 hPa 0,0 l/m 4,1 km/h (1 Bft) S 182 1 min 0,000 mm 0,0 UV-I 11 W/m 9,7 C 14,1 C 6,4 km/h (2 Bft) 100,00 %
20.05.2016 20:30 14,1 C 74 % 1019,8 hPa 0,0 l/m 3,6 km/h (1 Bft) S 182 1 min 0,000 mm 0,0 UV-I 11 W/m 9,5 C 14,1 C 4,8 km/h (1 Bft) 100,00 %
20.05.2016 20:31 14,0 C 75 % 1019,9 hPa 0,0 l/m 3,2 km/h (1 Bft) S 182 1 min 0,000 mm 0,0 UV-I 11 W/m 9,6 C 14,0 C 4,8 km/h (1 Bft) 100,00 %
20.05.2016 20:32 14,0 C 75 % 1019,8 hPa 0,0 l/m 4,7 km/h (1 Bft) S 182 0 min 0,000 mm 0,0 UV-I 11 W/m 9,6 C 14,0 C 8,0 km/h (2 Bft) 100,00 %
20.05.2016 20:33 13,9 C 75 % 1019,8 hPa 0,0 l/m 5,9 km/h (2 Bft) S 171 0 min 0,000 mm 0,0 UV-I 9 W/m 9,5 C 13,9 C 8,0 km/h (2 Bft) 100,00 %
20.05.2016 20:34 13,9 C 75 % 1019,8 hPa 0,0 l/m 3,0 km/h (1 Bft) S 173 0 min 0,000 mm 0,0 UV-I 9 W/m 9,5 C 13,9 C 4,8 km/h (1 Bft) 100,00 %
20.05.2016 20:35 13,9 C 75 % 1019,8 hPa 0,0 l/m 3,7 km/h (1 Bft) S 173 0 min 0,000 mm 0,0 UV-I 8 W/m 9,5 C 13,9 C 8,0 km/h (2 Bft) 100,00 %
20.05.2016 20:36 13,9 C 75 % 1019,8 hPa 0,0 l/m 3,1 km/h (1 Bft) S 173 0 min 0,000 mm 0,0 UV-I 7 W/m 9,5 C 13,9 C 4,8 km/h (1 Bft) 100,00 %
20.05.2016 20:37 13,8 C 76 % 1019,9 hPa 0,0 l/m 2,3 km/h (1 Bft) S 183 0 min 0,000 mm 0,0 UV-I 7 W/m 9,6 C 13,8 C 4,8 km/h (1 Bft) 100,00 %
20.05.2016 20:38 13,8 C 76 % 1019,9 hPa 0,0 l/m 3,8 km/h (1 Bft) S 176 0 min 0,000 mm 0,0 UV-I 7 W/m 9,6 C 13,8 C 4,8 km/h (1 Bft) 100,00 %
20.05.2016 20:39 13,8 C 75 % 1019,8 hPa 0,0 l/m 2,8 km/h (1 Bft) S 169 0 min 0,000 mm 0,0 UV-I 6 W/m 9,4 C 13,8 C 8,0 km/h (2 Bft) 100,00 %
20.05.2016 20:40 13,8 C 76 % 1019,8 hPa 0,0 l/m 4,6 km/h (1 Bft) S 172 0 min 0,000 mm 0,0 UV-I 5 W/m 9,6 C 13,8 C 8,0 km/h (2 Bft) 100,00 %
20.05.2016 20:41 13,8 C 75 % 1019,8 hPa 0,0 l/m 4,2 km/h (1 Bft) S 173 0 min 0,000 mm 0,0 UV-I 5 W/m 9,4 C 13,8 C 8,0 km/h (2 Bft) 100,00 %
20.05.2016 20:42 13,8 C 75 % 1019,8 hPa 0,0 l/m 2,7 km/h (1 Bft) S 175 0 min 0,000 mm 0,0 UV-I 5 W/m 9,4 C 13,8 C 3,2 km/h (1 Bft) 100,00 %
20.05.2016 20:43 13,7 C 76 % 1019,8 hPa 0,0 l/m 4,1 km/h (1 Bft) S 178 0 min 0,000 mm 0,0 UV-I 4 W/m 9,5 C 13,7 C 6,4 km/h (2 Bft) 100,00 %
20.05.2016 20:44 13,7 C 75 % 1019,8 hPa 0,0 l/m 4,3 km/h (1 Bft) S 180 0 min 0,000 mm 0,0 UV-I 0 W/m 9,3 C 13,7 C 6,4 km/h (2 Bft) 100,00 %
20.05.2016 20:45 13,7 C 75 % 1019,8 hPa 0,0 l/m 5,3 km/h (1 Bft) S 171 0 min 0,000 mm 0,0 UV-I 0 W/m 9,3 C 13,7 C 9,7 km/h (2 Bft) 100,00 %
20.05.2016 20:46 13,6 C 76 % 1019,8 hPa 0,0 l/m 4,9 km/h (1 Bft) S 178 0 min 0,000 mm 0,0 UV-I 0 W/m 9,4 C 13,6 C 8,0 km/h (2 Bft) 100,00 %
20.05.2016 20:47 13,6 C 76 % 1019,8 hPa 0,0 l/m 4,3 km/h (1 Bft) S 169 0 min 0,000 mm 0,0 UV-I 0 W/m 9,4 C 13,6 C 6,4 km/h (2 Bft) 100,00 %
20.05.2016 20:48 13,5 C 76 % 1019,8 hPa 0,0 l/m 5,2 km/h (1 Bft) S 175 0 min 0,000 mm 0,0 UV-I 0 W/m 9,4 C 13,5 C 6,4 km/h (2 Bft) 100,00 %
20.05.2016 20:49 13,5 C 76 % 1019,8 hPa 0,0 l/m 4,3 km/h (1 Bft) S 177 0 min 0,000 mm 0,0 UV-I 0 W/m 9,4 C 13,5 C 8,0 km/h (2 Bft) 100,00 %
20.05.2016 20:50 13,4 C 76 % 1019,8 hPa 0,0 l/m 3,5 km/h (1 Bft) S 178 0 min 0,000 mm 0,0 UV-I 0 W/m 9,3 C 13,4 C 6,4 km/h (2 Bft) 100,00 %
20.05.2016 20:51 13,4 C 76 % 1019,8 hPa 0,0 l/m 3,9 km/h (1 Bft) S 178 0 min 0,000 mm 0,0 UV-I 0 W/m 9,3 C 13,4 C 4,8 km/h (1 Bft) 100,00 %
20.05.2016 20:52 13,4 C 76 % 1019,8 hPa 0,0 l/m 5,0 km/h (1 Bft) S 178 0 min 0,000 mm 0,0 UV-I 0 W/m 9,3 C 13,4 C 6,4 km/h (2 Bft) 95,65 %
20.05.2016 20:53 13,4 C 76 % 1019,8 hPa 0,0 l/m 4,3 km/h (1 Bft) S 178 0 min 0,000 mm 0,0 UV-I 0 W/m 9,3 C 13,4 C 6,4 km/h (2 Bft) 100,00 %
20.05.2016 20:54 13,3 C 76 % 1019,8 hPa 0,0 l/m 4,2 km/h (1 Bft) S 181 0 min 0,000 mm 0,0 UV-I 0 W/m 9,2 C 13,3 C 6,4 km/h (2 Bft) 96,15 %
20.05.2016 20:55 13,3 C 76 % 1019,8 hPa 0,0 l/m 4,1 km/h (1 Bft) S 174 0 min 0,000 mm 0,0 UV-I 0 W/m 9,2 C 13,3 C 6,4 km/h (2 Bft) 100,00 %
20.05.2016 20:56 13,2 C 76 % 1019,8 hPa 0,0 l/m 2,8 km/h (1 Bft) S 181 0 min 0,000 mm 0,0 UV-I 0 W/m 9,1 C 13,2 C 4,8 km/h (1 Bft) 100,00 %
20.05.2016 20:57 13,2 C 77 % 1019,8 hPa 0,0 l/m 3,4 km/h (1 Bft) S 180 0 min 0,000 mm 0,0 UV-I 0 W/m 9,3 C 13,2 C 6,4 km/h (2 Bft) 100,00 %
20.05.2016 20:58 13,1 C 77 % 1019,8 hPa 0,0 l/m 4,1 km/h (1 Bft) S 183 0 min 0,000 mm 0,0 UV-I 0 W/m 9,2 C 13,1 C 6,4 km/h (2 Bft) 100,00 %
20.05.2016 20:59 13,1 C 77 % 1019,8 hPa 0,0 l/m 3,2 km/h (1 Bft) S 175 0 min 0,000 mm 0,0 UV-I 0 W/m 9,2 C 13,1 C 4,8 km/h (1 Bft) 100,00 %
20.05.2016 21:00 13,1 C 77 % 1019,8 hPa 0,0 l/m 4,8 km/h (1 Bft) S-SO 148 0 min 0,000 mm 0,0 UV-I 0 W/m 9,2 C 13,1 C 8,0 km/h (2 Bft) 95,83 %
20.05.2016 21:01 13,1 C 77 % 1019,8 hPa 0,0 l/m 3,2 km/h (1 Bft) S-SO 168 0 min 0,026 mm 0,0 UV-I 0 W/m 9,2 C 13,1 C 6,4 km/h (2 Bft) 100,00 %
20.05.2016 21:02 13,0 C 77 % 1019,8 hPa 0,0 l/m 4,0 km/h (1 Bft) S-SO 167 0 min 0,000 mm 0,0 UV-I 0 W/m 9,1 C 13,0 C 6,4 km/h (2 Bft) 100,00 %
20.05.2016 21:03 13,0 C 77 % 1019,8 hPa 0,0 l/m 4,4 km/h (1 Bft) S-SO 167 0 min 0,000 mm 0,0 UV-I 0 W/m 9,1 C 13,0 C 6,4 km/h (2 Bft) 96,15 %
20.05.2016 21:04 13,0 C 77 % 1019,8 hPa 0,0 l/m 3,6 km/h (1 Bft) S 183 0 min 0,000 mm 0,0 UV-I 0 W/m 9,1 C 13,0 C 6,4 km/h (2 Bft) 100,00 %
20.05.2016 21:05 13,0 C 77 % 1019,8 hPa 0,0 l/m 2,9 km/h (1 Bft) S 180 0 min 0,000 mm 0,0 UV-I 0 W/m 9,1 C 13,0 C 3,2 km/h (1 Bft) 100,00 %
20.05.2016 21:06 13,0 C 77 % 1019,8 hPa 0,0 l/m 2,3 km/h (1 Bft) S 180 0 min 0,000 mm 0,0 UV-I 0 W/m 9,1 C 13,0 C 3,2 km/h (1 Bft) 100,00 %
20.05.2016 21:07 12,9 C 77 % 1019,8 hPa 0,0 l/m 2,2 km/h (1 Bft) S 178 0 min 0,000 mm 0,0 UV-I 0 W/m 9,0 C 12,9 C 4,8 km/h (1 Bft) 100,00 %
20.05.2016 21:08 12,9 C 78 % 1019,8 hPa 0,0 l/m 1,9 km/h (1 Bft) S 169 0 min 0,000 mm 0,0 UV-I 0 W/m 9,2 C 12,9 C 3,2 km/h (1 Bft) 96,55 %
20.05.2016 21:09 12,9 C 77 % 1019,8 hPa 0,0 l/m 3,5 km/h (1 Bft) S-SO 164 0 min 0,000 mm 0,0 UV-I 0 W/m 9,0 C 12,9 C 6,4 km/h (2 Bft) 100,00 %
20.05.2016 21:10 12,9 C 77 % 1019,8 hPa 0,0 l/m 3,8 km/h (1 Bft) S-SO 160 0 min 0,000 mm 0,0 UV-I 0 W/m 9,0 C 12,9 C 6,4 km/h (2 Bft) 95,83 %
20.05.2016 21:11 12,9 C 77 % 1019,8 hPa 0,0 l/m 1,7 km/h (1 Bft) S-SO 160 0 min 0,000 mm 0,0 UV-I 0 W/m 9,0 C 12,9 C 3,2 km/h (1 Bft) 100,00 %
20.05.2016 21:12 12,9 C 76 % 1019,8 hPa 0,0 l/m 3,3 km/h (1 Bft) S 182 0 min 0,000 mm 0,0 UV-I 0 W/m 8,8 C 12,9 C 6,4 km/h (2 Bft) 95,65 %
20.05.2016 21:13 12,9 C 76 % 1019,8 hPa 0,0 l/m 1,9 km/h (1 Bft) S 178 0 min 0,000 mm 0,0 UV-I 0 W/m 8,8 C 12,9 C 3,2 km/h (1 Bft) 95,83 %
20.05.2016 21:14 12,9 C 76 % 1019,8 hPa 0,0 l/m 3,5 km/h (1 Bft) S 178 0 min 0,000 mm 0,0 UV-I 0 W/m 8,8 C 12,9 C 4,8 km/h (1 Bft) 100,00 %
20.05.2016 21:15 12,9 C 76 % 1019,8 hPa 0,0 l/m 3,0 km/h (1 Bft) S-SO 165 0 min 0,000 mm 0,0 UV-I 0 W/m 8,8 C 12,9 C 4,8 km/h (1 Bft) 93,33 %
20.05.2016 21:16 12,9 C 76 % 1019,8 hPa 0,0 l/m 2,5 km/h (1 Bft) S-SO 165 0 min 0,000 mm 0,0 UV-I 0 W/m 8,8 C 12,9 C 3,2 km/h (1 Bft) 100,00 %
20.05.2016 21:17 12,9 C 76 % 1019,9 hPa 0,0 l/m 1,3 km/h (1 Bft) S-SO 165 0 min 0,000 mm 0,0 UV-I 0 W/m 8,8 C 12,9 C 3,2 km/h (1 Bft) 96,30 %
20.05.2016 21:18 12,9 C 76 % 1019,9 hPa 0,0 l/m 1,4 km/h (1 Bft) S-SO 165 0 min 0,000 mm 0,0 UV-I 0 W/m 8,8 C 12,9 C 3,2 km/h (1 Bft) 96,15 %
20.05.2016 21:19 12,9 C 76 % 1019,9 hPa 0,0 l/m 1,9 km/h (1 Bft) S-SO 166 0 min 0,000 mm 0,0 UV-I 0 W/m 8,8 C 12,9 C 4,8 km/h (1 Bft) 100,00 %
20.05.2016 21:20 12,9 C 76 % 1019,9 hPa 0,0 l/m 2,9 km/h (1 Bft) S-SO 157 0 min 0,000 mm 0,0 UV-I 0 W/m 8,8 C 12,9 C 6,4 km/h (2 Bft) 100,00 %
20.05.2016 21:21 13,0 C 76 % 1019,9 hPa 0,0 l/m 3,7 km/h (1 Bft) S-SO 160 0 min 0,000 mm 0,0 UV-I 0 W/m 8,9 C 13,0 C 6,4 km/h (2 Bft) 92,59 %
20.05.2016 21:22 12,9 C 76 % 1019,9 hPa 0,0 l/m 3,8 km/h (1 Bft) S-SO 165 0 min 0,000 mm 0,0 UV-I 0 W/m 8,8 C 12,9 C 6,4 km/h (2 Bft) 95,65 %
20.05.2016 21:23 12,9 C 76 % 1019,9 hPa 0,0 l/m 3,8 km/h (1 Bft) S-SO 158 0 min 0,000 mm 0,0 UV-I 0 W/m 8,8 C 12,9 C 6,4 km/h (2 Bft) 100,00 %
20.05.2016 21:24 12,9 C 76 % 1019,9 hPa 0,0 l/m 3,0 km/h (1 Bft) S-SO 165 0 min 0,000 mm 0,0 UV-I 0 W/m 8,8 C 12,9 C 6,4 km/h (2 Bft) 95,65 %
20.05.2016 21:25 12,9 C 76 % 1019,9 hPa 0,0 l/m 4,7 km/h (1 Bft) S-SO 157 0 min 0,000 mm 0,0 UV-I 0 W/m 8,8 C 12,9 C 9,7 km/h (2 Bft) 95,83 %
20.05.2016 21:26 12,9 C 76 % 1019,9 hPa 0,0 l/m 2,5 km/h (1 Bft) S-SO 159 0 min 0,000 mm 0,0 UV-I 0 W/m 8,8 C 12,9 C 6,4 km/h (2 Bft) 95,65 %
20.05.2016 21:27 12,9 C 76 % 1019,9 hPa 0,0 l/m 4,0 km/h (1 Bft) S 171 0 min 0,000 mm 0,0 UV-I 0 W/m 8,8 C 12,9 C 6,4 km/h (2 Bft) 100,00 %
20.05.2016 21:28 12,8 C 76 % 1019,9 hPa 0,0 l/m 2,4 km/h (1 Bft) S 169 0 min 0,000 mm 0,0 UV-I 0 W/m 8,7 C 12,8 C 6,4 km/h (2 Bft) 94,12 %
20.05.2016 21:29 12,8 C 76 % 1019,9 hPa 0,0 l/m 3,3 km/h (1 Bft) S 169 0 min 0,000 mm 0,0 UV-I 0 W/m 8,7 C 12,8 C 6,4 km/h (2 Bft) 100,00 %
20.05.2016 21:30 12,8 C 76 % 1019,9 hPa 0,0 l/m 3,5 km/h (1 Bft) S 169 0 min 0,000 mm 0,0 UV-I 0 W/m 8,7 C 12,8 C 6,4 km/h (2 Bft) 92,31 %
20.05.2016 21:31 12,8 C 76 % 1019,9 hPa 0,0 l/m 3,6 km/h (1 Bft) S-SO 163 0 min 0,000 mm 0,0 UV-I 0 W/m 8,7 C 12,8 C 6,4 km/h (2 Bft) 96,30 %
20.05.2016 21:32 12,8 C 76 % 1019,9 hPa 0,0 l/m 2,6 km/h (1 Bft) S-SO 162 0 min 0,000 mm 0,0 UV-I 0 W/m 8,7 C 12,8 C 3,2 km/h (1 Bft) 100,00 %
20.05.2016 21:33 12,8 C 76 % 1019,9 hPa 0,0 l/m 2,3 km/h (1 Bft) S-SO 159 0 min 0,000 mm 0,0 UV-I 0 W/m 8,7 C 12,8 C 6,4 km/h (2 Bft) 96,55 %
20.05.2016 21:34 12,8 C 76 % 1019,9 hPa 0,0 l/m 2,6 km/h (1 Bft) S-SO 159 0 min 0,000 mm 0,0 UV-I 0 W/m 8,7 C 12,8 C 6,4 km/h (2 Bft) 95,83 %
20.05.2016 21:35 12,8 C 76 % 1019,9 hPa 0,0 l/m 2,5 km/h (1 Bft) S-SO 159 0 min 0,000 mm 0,0 UV-I 0 W/m 8,7 C 12,8 C 6,4 km/h (2 Bft) 95,65 %
20.05.2016 21:36 12,8 C 76 % 1019,9 hPa 0,0 l/m 2,1 km/h (1 Bft) S-SO 159 0 min 0,000 mm 0,0 UV-I 0 W/m 8,7 C 12,8 C 3,2 km/h (1 Bft) 100,00 %
20.05.2016 21:37 12,8 C 76 % 1019,9 hPa 0,0 l/m 1,9 km/h (1 Bft) S-SO 159 0 min 0,000 mm 0,0 UV-I 0 W/m 8,7 C 12,8 C 3,2 km/h (1 Bft) 96,15 %
20.05.2016 21:38 12,7 C 76 % 1019,9 hPa 0,0 l/m 2,7 km/h (1 Bft) S-SO 159 0 min 0,000 mm 0,0 UV-I 0 W/m 8,6 C 12,7 C 3,2 km/h (1 Bft) 95,83 %
20.05.2016 21:39 12,7 C 77 % 1020,0 hPa 0,0 l/m 2,9 km/h (1 Bft) S-SO 159 0 min 0,000 mm 0,0 UV-I 0 W/m 8,8 C 12,7 C 3,2 km/h (1 Bft) 100,00 %
20.05.2016 21:40 12,6 C 78 % 1020,0 hPa 0,0 l/m 3,1 km/h (1 Bft) S-SO 159 0 min 0,000 mm 0,0 UV-I 0 W/m 8,9 C 12,6 C 6,4 km/h (2 Bft) 95,83 %
20.05.2016 21:41 12,5 C 78 % 1020,0 hPa 0,0 l/m 3,5 km/h (1 Bft) S-SO 159 0 min 0,000 mm 0,0 UV-I 0 W/m 8,8 C 12,5 C 6,4 km/h (2 Bft) 100,00 %
20.05.2016 21:42 12,4 C 78 % 1020,0 hPa 0,0 l/m 1,9 km/h (1 Bft) S-SO 159 0 min 0,000 mm 0,0 UV-I 0 W/m 8,7 C 12,4 C 3,2 km/h (1 Bft) 91,67 %
20.05.2016 21:43 12,3 C 78 % 1020,0 hPa 0,0 l/m 2,1 km/h (1 Bft) S-SO 159 0 min 0,000 mm 0,0 UV-I 0 W/m 8,6 C 12,3 C 3,2 km/h (1 Bft) 100,00 %
20.05.2016 21:44 12,1 C 79 % 1020,1 hPa 0,0 l/m 2,2 km/h (1 Bft) S-SO 159 0 min 0,000 mm 0,0 UV-I 0 W/m 8,6 C 12,1 C 3,2 km/h (1 Bft) 100,00 %
20.05.2016 21:45 12,0 C 81 % 1020,0 hPa 0,0 l/m 2,8 km/h (1 Bft) S-SO 159 0 min 0,000 mm 0,0 UV-I 0 W/m 8,8 C 12,0 C 3,2 km/h (1 Bft) 100,00 %
20.05.2016 21:46 11,8 C 81 % 1020,0 hPa 0,0 l/m 2,7 km/h (1 Bft) S-SO 159 0 min 0,000 mm 0,0 UV-I 0 W/m 8,6 C 11,8 C 3,2 km/h (1 Bft) 100,00 %
20.05.2016 21:47 11,8 C 82 % 1020,0 hPa 0,0 l/m 3,4 km/h (1 Bft) S-SO 159 0 min 0,000 mm 0,0 UV-I 0 W/m 8,8 C 11,8 C 6,4 km/h (2 Bft) 100,00 %
20.05.2016 21:48 11,7 C 82 % 1020,0 hPa 0,0 l/m 3,2 km/h (1 Bft) S-SO 159 0 min 0,000 mm 0,0 UV-I 0 W/m 8,7 C 11,7 C 6,4 km/h (2 Bft) 100,00 %
20.05.2016 21:49 11,7 C 82 % 1020,0 hPa 0,0 l/m 3,4 km/h (1 Bft) S-SO 159 0 min 0,000 mm 0,0 UV-I 0 W/m 8,7 C 11,7 C 6,4 km/h (2 Bft) 100,00 %
20.05.2016 21:50 11,7 C 82 % 1020,0 hPa 0,0 l/m 3,6 km/h (1 Bft) S-SO 159 0 min 0,000 mm 0,0 UV-I 0 W/m 8,7 C 11,7 C 6,4 km/h (2 Bft) 100,00 %
20.05.2016 21:51 11,6 C 83 % 1020,1 hPa 0,0 l/m 4,3 km/h (1 Bft) S-SO 163 0 min 0,000 mm 0,0 UV-I 0 W/m 8,8 C 11,6 C 6,4 km/h (2 Bft) 93,33 %
20.05.2016 21:52 11,6 C 83 % 1020,1 hPa 0,0 l/m 3,6 km/h (1 Bft) S-SO 163 0 min 0,000 mm 0,0 UV-I 0 W/m 8,8 C 11,6 C 6,4 km/h (2 Bft) 100,00 %
20.05.2016 21:53 11,5 C 82 % 1020,1 hPa 0,0 l/m 3,9 km/h (1 Bft) S-SO 164 0 min 0,000 mm 0,0 UV-I 0 W/m 8,5 C 11,5 C 6,4 km/h (2 Bft) 91,67 %
20.05.2016 21:54 11,4 C 82 % 1020,1 hPa 0,0 l/m 4,4 km/h (1 Bft) S-SO 164 0 min 0,000 mm 0,0 UV-I 0 W/m 8,4 C 11,4 C 6,4 km/h (2 Bft) 100,00 %
20.05.2016 21:55 11,4 C 83 % 1020,1 hPa 0,0 l/m 3,4 km/h (1 Bft) S-SO 164 0 min 0,000 mm 0,0 UV-I 0 W/m 8,6 C 11,4 C 6,4 km/h (2 Bft) 100,00 %
20.05.2016 21:56 11,4 C 83 % 1020,1 hPa 0,0 l/m 3,9 km/h (1 Bft) S-SO 164 0 min 0,000 mm 0,0 UV-I 0 W/m 8,6 C 11,4 C 6,4 km/h (2 Bft) 100,00 %
20.05.2016 21:57 11,3 C 83 % 1020,1 hPa 0,0 l/m 3,6 km/h (1 Bft) S-SO 164 0 min 0,000 mm 0,0 UV-I 0 W/m 8,5 C 11,3 C 6,4 km/h (2 Bft) 100,00 %
20.05.2016 21:58 11,3 C 83 % 1020,1 hPa 0,0 l/m 2,9 km/h (1 Bft) S-SO 164 0 min 0,000 mm 0,0 UV-I 0 W/m 8,5 C 11,3 C 3,2 km/h (1 Bft) 100,00 %
20.05.2016 21:59 11,3 C 83 % 1020,1 hPa 0,0 l/m 4,7 km/h (1 Bft) S-SO 164 0 min 0,000 mm 0,0 UV-I 0 W/m 8,5 C 11,3 C 6,4 km/h (2 Bft) 100,00 %
20.05.2016 22:00 11,3 C 83 % 1020,1 hPa 0,0 l/m 5,5 km/h (1 Bft) S 169 0 min 0,000 mm 0,0 UV-I 0 W/m 8,5 C 11,3 C 6,4 km/h (2 Bft) 100,00 %
20.05.2016 22:01 11,3 C 83 % 1020,1 hPa 0,0 l/m 5,0 km/h (1 Bft) S 171 0 min 0,000 mm 0,0 UV-I 0 W/m 8,5 C 11,3 C 8,0 km/h (2 Bft) 100,00 %
20.05.2016 22:02 11,3 C 83 % 1020,1 hPa 0,0 l/m 4,0 km/h (1 Bft) S 171 0 min 0,000 mm 0,0 UV-I 0 W/m 8,5 C 11,3 C 6,4 km/h (2 Bft) 100,00 %
20.05.2016 22:03 11,3 C 83 % 1020,1 hPa 0,0 l/m 2,4 km/h (1 Bft) S 171 0 min 0,000 mm 0,0 UV-I 0 W/m 8,5 C 11,3 C 3,2 km/h (1 Bft) 100,00 %
20.05.2016 22:04 11,2 C 84 % 1020,1 hPa 0,0 l/m 3,1 km/h (1 Bft) S 171 0 min 0,000 mm 0,0 UV-I 0 W/m 8,6 C 11,2 C 3,2 km/h (1 Bft) 95,65 %
20.05.2016 22:05 11,2 C 84 % 1020,1 hPa 0,0 l/m 4,1 km/h (1 Bft) S 171 0 min 0,000 mm 0,0 UV-I 0 W/m 8,6 C 11,2 C 6,4 km/h (2 Bft) 100,00 %
20.05.2016 22:06 11,1 C 84 % 1020,1 hPa 0,0 l/m 3,7 km/h (1 Bft) S 172 0 min 0,000 mm 0,0 UV-I 0 W/m 8,5 C 11,1 C 4,8 km/h (1 Bft) 96,15 %
20.05.2016 22:07 11,1 C 84 % 1020,1 hPa 0,0 l/m 4,2 km/h (1 Bft) S 172 0 min 0,000 mm 0,0 UV-I 0 W/m 8,5 C 11,1 C 4,8 km/h (1 Bft) 100,00 %
20.05.2016 22:08 11,0 C 85 % 1020,1 hPa 0,0 l/m 3,8 km/h (1 Bft) S 172 0 min 0,000 mm 0,0 UV-I 0 W/m 8,6 C 11,0 C 4,8 km/h (1 Bft) 100,00 %
20.05.2016 22:09 10,9 C 85 % 1020,1 hPa 0,0 l/m 4,6 km/h (1 Bft) S 175 0 min 0,000 mm 0,0 UV-I 0 W/m 8,5 C 10,9 C 8,0 km/h (2 Bft) 100,00 %
20.05.2016 22:10 10,9 C 85 % 1020,1 hPa 0,0 l/m 4,6 km/h (1 Bft) S 175 0 min 0,000 mm 0,0 UV-I 0 W/m 8,5 C 10,9 C 6,4 km/h (2 Bft) 95,65 %
20.05.2016 22:11 10,9 C 85 % 1020,1 hPa 0,0 l/m 4,2 km/h (1 Bft) S 175 0 min 0,000 mm 0,0 UV-I 0 W/m 8,5 C 10,9 C 4,8 km/h (1 Bft) 100,00 %
20.05.2016 22:12 11,0 C 84 % 1020,1 hPa 0,0 l/m 3,8 km/h (1 Bft) S 175 0 min 0,000 mm 0,0 UV-I 0 W/m 8,4 C 11,0 C 4,8 km/h (1 Bft) 100,00 %
20.05.2016 22:13 11,1 C 84 % 1020,1 hPa 0,0 l/m 3,7 km/h (1 Bft) S 175 0 min 0,000 mm 0,0 UV-I 0 W/m 8,5 C 11,1 C 4,8 km/h (1 Bft) 100,00 %
20.05.2016 22:14 11,1 C 83 % 1020,1 hPa 0,0 l/m 4,1 km/h (1 Bft) S 175 0 min 0,000 mm 0,0 UV-I 0 W/m 8,3 C 11,1 C 4,8 km/h (1 Bft) 100,00 %
20.05.2016 22:15 11,2 C 83 % 1020,1 hPa 0,0 l/m 4,0 km/h (1 Bft) S 175 0 min 0,000 mm 0,0 UV-I 0 W/m 8,4 C 11,2 C 4,8 km/h (1 Bft) 96,88 %
20.05.2016 22:16 11,2 C 83 % 1020,1 hPa 0,0 l/m 3,5 km/h (1 Bft) S 175 0 min 0,000 mm 0,0 UV-I 0 W/m 8,4 C 11,2 C 6,4 km/h (2 Bft) 100,00 %
20.05.2016 22:17 11,2 C 83 % 1020,1 hPa 0,0 l/m 3,6 km/h (1 Bft) S 175 0 min 0,000 mm 0,0 UV-I 0 W/m 8,4 C 11,2 C 4,8 km/h (1 Bft) 100,00 %
20.05.2016 22:18 11,1 C 83 % 1020,1 hPa 0,0 l/m 3,4 km/h (1 Bft) S 175 0 min 0,000 mm 0,0 UV-I 0 W/m 8,3 C 11,1 C 4,8 km/h (1 Bft) 100,00 %
20.05.2016 22:19 11,1 C 83 % 1020,1 hPa 0,0 l/m 3,1 km/h (1 Bft) S 175 0 min 0,000 mm 0,0 UV-I 0 W/m 8,3 C 11,1 C 3,2 km/h (1 Bft) 100,00 %
20.05.2016 22:20 10,9 C 83 % 1020,1 hPa 0,0 l/m 3,0 km/h (1 Bft) S 175 0 min 0,000 mm 0,0 UV-I 0 W/m 8,1 C 10,9 C 4,8 km/h (1 Bft) 100,00 %
20.05.2016 22:21 10,9 C 83 % 1020,1 hPa 0,0 l/m 3,4 km/h (1 Bft) S 175 0 min 0,000 mm 0,0 UV-I 0 W/m 8,1 C 10,9 C 4,8 km/h (1 Bft) 100,00 %
20.05.2016 22:22 10,9 C 84 % 1020,1 hPa 0,0 l/m 3,3 km/h (1 Bft) S 175 0 min 0,000 mm 0,0 UV-I 0 W/m 8,3 C 10,9 C 4,8 km/h (1 Bft) 100,00 %
20.05.2016 22:23 10,9 C 84 % 1020,1 hPa 0,0 l/m 3,0 km/h (1 Bft) S 174 0 min 0,000 mm 0,0 UV-I 0 W/m 8,3 C 10,9 C 4,8 km/h (1 Bft) 100,00 %
20.05.2016 22:24 10,8 C 84 % 1020,1 hPa 0,0 l/m 3,4 km/h (1 Bft) S 174 0 min 0,000 mm 0,0 UV-I 0 W/m 8,2 C 10,8 C 4,8 km/h (1 Bft) 95,83 %
20.05.2016 22:25 10,8 C 84 % 1020,1 hPa 0,0 l/m 5,0 km/h (1 Bft) S 174 0 min 0,000 mm 0,0 UV-I 0 W/m 8,2 C 10,8 C 8,0 km/h (2 Bft) 100,00 %
20.05.2016 22:26 10,8 C 84 % 1020,1 hPa 0,0 l/m 3,2 km/h (1 Bft) S 174 0 min 0,000 mm 0,0 UV-I 0 W/m 8,2 C 10,8 C 4,8 km/h (1 Bft) 95,83 %
20.05.2016 22:27 10,9 C 84 % 1020,1 hPa 0,0 l/m 3,4 km/h (1 Bft) S 174 0 min 0,000 mm 0,0 UV-I 0 W/m 8,3 C 10,9 C 4,8 km/h (1 Bft) 100,00 %
20.05.2016 22:28 10,8 C 84 % 1020,1 hPa 0,0 l/m 3,8 km/h (1 Bft) S 174 0 min 0,000 mm 0,0 UV-I 0 W/m 8,2 C 10,8 C 4,8 km/h (1 Bft) 100,00 %
20.05.2016 22:29 10,8 C 84 % 1020,2 hPa 0,0 l/m 3,9 km/h (1 Bft) S 188 0 min 0,000 mm 0,0 UV-I 0 W/m 8,2 C 10,8 C 4,8 km/h (1 Bft) 100,00 %
20.05.2016 22:30 10,8 C 84 % 1020,2 hPa 0,0 l/m 3,9 km/h (1 Bft) S-SW 210 0 min 0,000 mm 0,0 UV-I 0 W/m 8,2 C 10,8 C 6,4 km/h (2 Bft) 100,00 %
20.05.2016 22:31 10,8 C 84 % 1020,2 hPa 0,0 l/m 5,3 km/h (1 Bft) S-SW 199 0 min 0,000 mm 0,0 UV-I 0 W/m 8,2 C 10,8 C 6,4 km/h (2 Bft) 100,00 %
20.05.2016 22:32 10,8 C 85 % 1020,2 hPa 0,0 l/m 5,5 km/h (1 Bft) S-SW 198 0 min 0,000 mm 0,0 UV-I 0 W/m 8,4 C 10,8 C 6,4 km/h (2 Bft) 100,00 %
20.05.2016 22:33 10,7 C 85 % 1020,2 hPa 0,0 l/m 4,4 km/h (1 Bft) S 190 0 min 0,000 mm 0,0 UV-I 0 W/m 8,3 C 10,7 C 4,8 km/h (1 Bft) 100,00 %
20.05.2016 22:34 10,7 C 85 % 1020,2 hPa 0,0 l/m 3,5 km/h (1 Bft) S 190 0 min 0,000 mm 0,0 UV-I 0 W/m 8,3 C 10,7 C 4,8 km/h (1 Bft) 100,00 %
20.05.2016 22:35 10,6 C 85 % 1020,3 hPa 0,0 l/m 3,9 km/h (1 Bft) S 186 0 min 0,000 mm 0,0 UV-I 0 W/m 8,2 C 10,6 C 6,4 km/h (2 Bft) 100,00 %
20.05.2016 22:36 10,5 C 86 % 1020,3 hPa 0,0 l/m 5,8 km/h (2 Bft) S 184 0 min 0,000 mm 0,0 UV-I 0 W/m 8,3 C 10,5 C 9,7 km/h (2 Bft) 100,00 %
20.05.2016 22:37 10,5 C 86 % 1020,3 hPa 0,0 l/m 6,7 km/h (2 Bft) S 170 0 min 0,000 mm 0,0 UV-I 0 W/m 8,3 C 10,3 C 9,7 km/h (2 Bft) 100,00 %
20.05.2016 22:38 10,5 C 86 % 1020,3 hPa 0,0 l/m 3,9 km/h (1 Bft) S 186 0 min 0,000 mm 0,0 UV-I 0 W/m 8,3 C 10,5 C 6,4 km/h (2 Bft) 100,00 %
20.05.2016 22:39 10,4 C 86 % 1020,3 hPa 0,0 l/m 4,6 km/h (1 Bft) S 186 0 min 0,000 mm 0,0 UV-I 0 W/m 8,2 C 10,4 C 6,4 km/h (2 Bft) 100,00 %
20.05.2016 22:40 10,4 C 86 % 1020,3 hPa 0,0 l/m 5,8 km/h (2 Bft) S-SW 198 0 min 0,000 mm 0,0 UV-I 0 W/m 8,2 C 10,4 C 8,0 km/h (2 Bft) 95,65 %
20.05.2016 22:41 10,4 C 86 % 1020,3 hPa 0,0 l/m 4,8 km/h (1 Bft) S 187 0 min 0,000 mm 0,0 UV-I 0 W/m 8,2 C 10,4 C 6,4 km/h (2 Bft) 100,00 %
20.05.2016 22:42 10,5 C 86 % 1020,3 hPa 0,0 l/m 5,3 km/h (1 Bft) S 186 0 min 0,000 mm 0,0 UV-I 0 W/m 8,3 C 10,5 C 6,4 km/h (2 Bft) 92,86 %
20.05.2016 22:43 10,5 C 86 % 1020,2 hPa 0,0 l/m 6,1 km/h (2 Bft) S 171 0 min 0,000 mm 0,0 UV-I 0 W/m 8,3 C 10,5 C 8,0 km/h (2 Bft) 100,00 %
20.05.2016 22:44 10,6 C 86 % 1020,3 hPa 0,0 l/m 6,5 km/h (2 Bft) S-SO 164 0 min 0,000 mm 0,0 UV-I 0 W/m 8,4 C 10,6 C 9,7 km/h (2 Bft) 100,00 %
20.05.2016 22:45 10,6 C 85 % 1020,3 hPa 0,0 l/m 4,2 km/h (1 Bft) S 181 0 min 0,000 mm 0,0 UV-I 0 W/m 8,2 C 10,6 C 6,4 km/h (2 Bft) 100,00 %
20.05.2016 22:46 10,6 C 85 % 1020,3 hPa 0,0 l/m 5,3 km/h (1 Bft) S-SO 164 0 min 0,000 mm 0,0 UV-I 0 W/m 8,2 C 10,6 C 8,0 km/h (2 Bft) 92,86 %
20.05.2016 22:47 10,7 C 85 % 1020,3 hPa 0,0 l/m 4,7 km/h (1 Bft) S-SO 163 0 min 0,000 mm 0,0 UV-I 0 W/m 8,3 C 10,7 C 8,0 km/h (2 Bft) 100,00 %
20.05.2016 22:48 10,7 C 85 % 1020,2 hPa 0,0 l/m 6,4 km/h (2 Bft) S 180 0 min 0,000 mm 0,0 UV-I 0 W/m 8,3 C 10,7 C 8,0 km/h (2 Bft) 100,00 %
20.05.2016 22:49 10,7 C 85 % 1020,2 hPa 0,0 l/m 5,1 km/h (1 Bft) S-SO 167 0 min 0,000 mm 0,0 UV-I 0 W/m 8,3 C 10,7 C 9,7 km/h (2 Bft) 100,00 %
20.05.2016 22:50 10,8 C 85 % 1020,2 hPa 0,0 l/m 6,4 km/h (2 Bft) S 180 0 min 0,000 mm 0,0 UV-I 0 W/m 8,4 C 10,8 C 8,0 km/h (2 Bft) 98,63 %
20.05.2016 22:51 10,8 C 84 % 1020,3 hPa 0,0 l/m 5,9 km/h (2 Bft) S 188 0 min 0,000 mm 0,0 UV-I 0 W/m 8,2 C 10,8 C 8,0 km/h (2 Bft) 100,00 %
20.05.2016 22:52 10,8 C 84 % 1020,2 hPa 0,0 l/m 7,3 km/h (2 Bft) S-SO 165 0 min 0,000 mm 0,0 UV-I 0 W/m 8,2 C 10,2 C 9,7 km/h (2 Bft) 100,00 %
20.05.2016 22:53 10,8 C 84 % 1020,3 hPa 0,0 l/m 6,6 km/h (2 Bft) S-SO 168 0 min 0,000 mm 0,0 UV-I 0 W/m 8,2 C 10,7 C 8,0 km/h (2 Bft) 95,65 %
20.05.2016 22:54 10,8 C 84 % 1020,2 hPa 0,0 l/m 7,3 km/h (2 Bft) S 179 0 min 0,000 mm 0,0 UV-I 0 W/m 8,2 C 10,2 C 9,7 km/h (2 Bft) 100,00 %
20.05.2016 22:55 10,8 C 84 % 1020,2 hPa 0,0 l/m 5,3 km/h (1 Bft) S 178 0 min 0,000 mm 0,0 UV-I 0 W/m 8,2 C 10,8 C 9,7 km/h (2 Bft) 100,00 %
20.05.2016 22:56 10,8 C 84 % 1020,2 hPa 0,0 l/m 5,0 km/h (1 Bft) S 182 0 min 0,000 mm 0,0 UV-I 0 W/m 8,2 C 10,8 C 8,0 km/h (2 Bft) 100,00 %
20.05.2016 22:57 10,8 C 84 % 1020,2 hPa 0,0 l/m 3,9 km/h (1 Bft) S 178 0 min 0,000 mm 0,0 UV-I 0 W/m 8,2 C 10,8 C 6,4 km/h (2 Bft) 96,15 %
20.05.2016 22:58 10,7 C 84 % 1020,3 hPa 0,0 l/m 3,6 km/h (1 Bft) S 178 0 min 0,000 mm 0,0 UV-I 0 W/m 8,1 C 10,7 C 4,8 km/h (1 Bft) 100,00 %
20.05.2016 22:59 10,7 C 85 % 1020,2 hPa 0,0 l/m 4,4 km/h (1 Bft) S 176 0 min 0,000 mm 0,0 UV-I 0 W/m 8,3 C 10,7 C 8,0 km/h (2 Bft) 91,30 %
20.05.2016 23:00 10,7 C 85 % 1020,2 hPa 0,0 l/m 4,5 km/h (1 Bft) S 183 0 min 0,000 mm 0,0 UV-I 0 W/m 8,3 C 10,7 C 6,4 km/h (2 Bft) 100,00 %
20.05.2016 23:02 10,7 C 85 % 1020,1 hPa 0,0 l/m 5,7 km/h (1 Bft) S 177 0 min 0,000 mm 0,0 UV-I 0 W/m 8,3 C 10,7 C 6,4 km/h (2 Bft) 98,00 %
20.05.2016 23:03 10,7 C 85 % 1020,1 hPa 0,0 l/m 5,0 km/h (1 Bft) S 183 0 min 0,000 mm 0,0 UV-I 0 W/m 8,3 C 10,7 C 8,0 km/h (2 Bft) 100,00 %
20.05.2016 23:04 10,7 C 85 % 1020,2 hPa 0,0 l/m 5,6 km/h (1 Bft) S 183 0 min 0,000 mm 0,0 UV-I 0 W/m 8,3 C 10,7 C 8,0 km/h (2 Bft) 96,30 %
20.05.2016 23:05 10,7 C 85 % 1020,1 hPa 0,0 l/m 5,4 km/h (1 Bft) S 178 0 min 0,000 mm 0,0 UV-I 0 W/m 8,3 C 10,7 C 6,4 km/h (2 Bft) 100,00 %
20.05.2016 23:06 10,7 C 85 % 1020,1 hPa 0,0 l/m 5,0 km/h (1 Bft) S 175 0 min 0,000 mm 0,0 UV-I 0 W/m 8,3 C 10,7 C 8,0 km/h (2 Bft) 100,00 %
20.05.2016 23:07 10,7 C 85 % 1020,2 hPa 0,0 l/m 4,4 km/h (1 Bft) S 179 0 min 0,000 mm 0,0 UV-I 0 W/m 8,3 C 10,7 C 6,4 km/h (2 Bft) 100,00 %
20.05.2016 23:08 10,7 C 85 % 1020,2 hPa 0,0 l/m 5,9 km/h (2 Bft) S 171 0 min 0,000 mm 0,0 UV-I 0 W/m 8,3 C 10,7 C 8,0 km/h (2 Bft) 100,00 %
20.05.2016 23:09 10,7 C 85 % 1020,2 hPa 0,0 l/m 5,4 km/h (1 Bft) S 176 0 min 0,000 mm 0,0 UV-I 0 W/m 8,3 C 10,7 C 6,4 km/h (2 Bft) 100,00 %
20.05.2016 23:10 10,7 C 85 % 1020,2 hPa 0,0 l/m 4,9 km/h (1 Bft) S 184 0 min 0,000 mm 0,0 UV-I 0 W/m 8,3 C 10,7 C 8,0 km/h (2 Bft) 96,55 %
20.05.2016 23:11 10,7 C 85 % 1020,2 hPa 0,0 l/m 4,8 km/h (1 Bft) S 181 0 min 0,000 mm 0,0 UV-I 0 W/m 8,3 C 10,7 C 6,4 km/h (2 Bft) 93,10 %
20.05.2016 23:12 10,6 C 85 % 1020,3 hPa 0,0 l/m 4,4 km/h (1 Bft) S 186 0 min 0,000 mm 0,0 UV-I 0 W/m 8,2 C 10,6 C 6,4 km/h (2 Bft) 100,00 %
20.05.2016 23:13 10,6 C 85 % 1020,3 hPa 0,0 l/m 4,9 km/h (1 Bft) S 179 0 min 0,000 mm 0,0 UV-I 0 W/m 8,2 C 10,6 C 6,4 km/h (2 Bft) 100,00 %
20.05.2016 23:14 10,6 C 85 % 1020,3 hPa 0,0 l/m 6,8 km/h (2 Bft) S 169 0 min 0,000 mm 0,0 UV-I 0 W/m 8,2 C 10,3 C 9,7 km/h (2 Bft) 91,30 %
20.05.2016 23:15 10,6 C 85 % 1020,2 hPa 0,0 l/m 6,7 km/h (2 Bft) S 183 0 min 0,000 mm 0,0 UV-I 0 W/m 8,2 C 10,4 C 9,7 km/h (2 Bft) 95,83 %
20.05.2016 23:16 10,5 C 85 % 1020,2 hPa 0,0 l/m 5,9 km/h (2 Bft) S-SW 192 0 min 0,000 mm 0,0 UV-I 0 W/m 8,1 C 10,5 C 8,0 km/h (2 Bft) 100,00 %
20.05.2016 23:17 10,5 C 85 % 1020,2 hPa 0,0 l/m 6,3 km/h (2 Bft) S 181 0 min 0,000 mm 0,0 UV-I 0 W/m 8,1 C 10,5 C 8,0 km/h (2 Bft) 91,67 %
20.05.2016 23:18 10,4 C 85 % 1020,2 hPa 0,0 l/m 5,0 km/h (1 Bft) S 184 0 min 0,000 mm 0,0 UV-I 0 W/m 8,0 C 10,4 C 8,0 km/h (2 Bft) 100,00 %
20.05.2016 23:19 10,4 C 85 % 1020,2 hPa 0,0 l/m 7,0 km/h (2 Bft) S-SO 151 0 min 0,000 mm 0,0 UV-I 0 W/m 8,0 C 10,0 C 9,7 km/h (2 Bft) 96,97 %
20.05.2016 23:20 10,4 C 86 % 1020,2 hPa 0,0 l/m 5,5 km/h (1 Bft) S 184 0 min 0,000 mm 0,0 UV-I 0 W/m 8,2 C 10,4 C 8,0 km/h (2 Bft) 95,65 %
20.05.2016 23:21 10,4 C 86 % 1020,2 hPa 0,0 l/m 6,0 km/h (2 Bft) S 179 0 min 0,000 mm 0,0 UV-I 0 W/m 8,2 C 10,4 C 8,0 km/h (2 Bft) 100,00 %
20.05.2016 23:22 10,4 C 86 % 1020,2 hPa 0,0 l/m 5,1 km/h (1 Bft) S 184 0 min 0,000 mm 0,0 UV-I 0 W/m 8,2 C 10,4 C 8,0 km/h (2 Bft) 95,65 %
20.05.2016 23:23 10,4 C 86 % 1020,2 hPa 0,0 l/m 5,1 km/h (1 Bft) S 178 0 min 0,000 mm 0,0 UV-I 0 W/m 8,2 C 10,4 C 8,0 km/h (2 Bft) 100,00 %
20.05.2016 23:24 10,3 C 86 % 1020,2 hPa 0,0 l/m 6,2 km/h (2 Bft) S-SW 204 0 min 0,000 mm 0,0 UV-I 0 W/m 8,1 C 10,3 C 9,7 km/h (2 Bft) 96,15 %
20.05.2016 23:25 10,3 C 86 % 1020,2 hPa 0,0 l/m 6,8 km/h (2 Bft) S-SO 160 0 min 0,000 mm 0,0 UV-I 0 W/m 8,1 C 10,0 C 11,3 km/h (2 Bft) 100,00 %
20.05.2016 23:26 10,3 C 86 % 1020,3 hPa 0,0 l/m 6,8 km/h (2 Bft) S 169 0 min 0,000 mm 0,0 UV-I 0 W/m 8,1 C 10,0 C 9,7 km/h (2 Bft) 92,31 %
20.05.2016 23:27 10,4 C 86 % 1020,3 hPa 0,0 l/m 5,7 km/h (1 Bft) S 178 0 min 0,000 mm 0,0 UV-I 0 W/m 8,2 C 10,4 C 9,7 km/h (2 Bft) 100,00 %
20.05.2016 23:28 10,4 C 86 % 1020,3 hPa 0,0 l/m 7,7 km/h (2 Bft) S-SO 154 0 min 0,000 mm 0,0 UV-I 0 W/m 8,2 C 9,5 C 12,9 km/h (3 Bft) 86,67 %
20.05.2016 23:29 10,4 C 86 % 1020,3 hPa 0,0 l/m 6,5 km/h (2 Bft) S-SW 192 0 min 0,000 mm 0,0 UV-I 0 W/m 8,2 C 10,4 C 11,3 km/h (2 Bft) 100,00 %
20.05.2016 23:30 10,4 C 86 % 1020,3 hPa 0,0 l/m 7,4 km/h (2 Bft) S 182 0 min 0,000 mm 0,0 UV-I 0 W/m 8,2 C 9,7 C 11,3 km/h (2 Bft) 96,15 %
20.05.2016 23:31 10,4 C 86 % 1020,3 hPa 0,0 l/m 7,1 km/h (2 Bft) S 182 0 min 0,000 mm 0,0 UV-I 0 W/m 8,2 C 9,9 C 9,7 km/h (2 Bft) 100,00 %
20.05.2016 23:32 10,4 C 86 % 1020,3 hPa 0,0 l/m 5,7 km/h (1 Bft) S 173 0 min 0,000 mm 0,0 UV-I 0 W/m 8,2 C 10,4 C 8,0 km/h (2 Bft) 92,59 %
20.05.2016 23:33 10,3 C 86 % 1020,3 hPa 0,0 l/m 6,5 km/h (2 Bft) S 188 0 min 0,000 mm 0,0 UV-I 0 W/m 8,1 C 10,3 C 9,7 km/h (2 Bft) 95,65 %
20.05.2016 23:34 10,3 C 86 % 1020,3 hPa 0,0 l/m 5,9 km/h (2 Bft) S-SO 163 0 min 0,000 mm 0,0 UV-I 0 W/m 8,1 C 10,3 C 8,0 km/h (2 Bft) 93,10 %
20.05.2016 23:35 10,3 C 86 % 1020,4 hPa 0,0 l/m 6,9 km/h (2 Bft) S 180 0 min 0,000 mm 0,0 UV-I 0 W/m 8,1 C 9,9 C 8,0 km/h (2 Bft) 95,83 %
20.05.2016 23:36 10,3 C 86 % 1020,3 hPa 0,0 l/m 6,7 km/h (2 Bft) S-SW 196 0 min 0,000 mm 0,0 UV-I 0 W/m 8,1 C 10,1 C 9,7 km/h (2 Bft) 86,67 %
20.05.2016 23:37 10,3 C 86 % 1020,4 hPa 0,0 l/m 6,6 km/h (2 Bft) S 188 0 min 0,000 mm 0,0 UV-I 0 W/m 8,1 C 10,2 C 8,0 km/h (2 Bft) 95,65 %
20.05.2016 23:38 10,2 C 86 % 1020,3 hPa 0,0 l/m 6,7 km/h (2 Bft) S 180 0 min 0,000 mm 0,0 UV-I 0 W/m 8,0 C 10,0 C 8,0 km/h (2 Bft) 96,67 %
20.05.2016 23:39 10,2 C 86 % 1020,4 hPa 0,0 l/m 7,1 km/h (2 Bft) S 183 0 min 0,000 mm 0,0 UV-I 0 W/m 8,0 C 9,7 C 9,7 km/h (2 Bft) 100,00 %
20.05.2016 23:40 10,2 C 87 % 1020,3 hPa 0,0 l/m 6,4 km/h (2 Bft) S-SO 164 0 min 0,000 mm 0,0 UV-I 0 W/m 8,1 C 10,2 C 8,0 km/h (2 Bft) 96,30 %
20.05.2016 23:41 10,2 C 86 % 1020,3 hPa 0,0 l/m 7,3 km/h (2 Bft) S 189 0 min 0,000 mm 0,0 UV-I 0 W/m 8,0 C 9,6 C 8,0 km/h (2 Bft) 94,12 %
20.05.2016 23:42 10,1 C 87 % 1020,3 hPa 0,0 l/m 7,7 km/h (2 Bft) S 187 0 min 0,000 mm 0,0 UV-I 0 W/m 8,0 C 9,2 C 9,7 km/h (2 Bft) 96,30 %
20.05.2016 23:43 10,1 C 87 % 1020,3 hPa 0,0 l/m 7,4 km/h (2 Bft) S 185 0 min 0,000 mm 0,0 UV-I 0 W/m 8,0 C 9,4 C 11,3 km/h (2 Bft) 100,00 %
20.05.2016 23:44 10,1 C 87 % 1020,3 hPa 0,0 l/m 8,1 km/h (2 Bft) S 173 0 min 0,000 mm 0,0 UV-I 0 W/m 8,0 C 8,9 C 9,7 km/h (2 Bft) 100,00 %
20.05.2016 23:45 10,1 C 87 % 1020,3 hPa 0,0 l/m 9,2 km/h (2 Bft) S-SW 194 0 min 0,000 mm 0,0 UV-I 0 W/m 8,0 C 8,2 C 12,9 km/h (3 Bft) 100,00 %
20.05.2016 23:46 10,1 C 87 % 1020,3 hPa 0,0 l/m 7,9 km/h (2 Bft) S 191 0 min 0,000 mm 0,0 UV-I 0 W/m 8,0 C 9,0 C 9,7 km/h (2 Bft) 100,00 %
20.05.2016 23:47 10,1 C 87 % 1020,3 hPa 0,0 l/m 7,9 km/h (2 Bft) S 186 0 min 0,000 mm 0,0 UV-I 0 W/m 8,0 C 9,0 C 11,3 km/h (2 Bft) 96,15 %
20.05.2016 23:48 10,1 C 87 % 1020,3 hPa 0,0 l/m 7,4 km/h (2 Bft) S 187 0 min 0,000 mm 0,0 UV-I 0 W/m 8,0 C 9,4 C 9,7 km/h (2 Bft) 91,67 %
20.05.2016 23:49 10,1 C 87 % 1020,3 hPa 0,0 l/m 7,3 km/h (2 Bft) S-SW 196 0 min 0,000 mm 0,0 UV-I 0 W/m 8,0 C 9,4 C 9,7 km/h (2 Bft) 100,00 %
20.05.2016 23:50 10,1 C 87 % 1020,3 hPa 0,0 l/m 7,4 km/h (2 Bft) S 188 0 min 0,000 mm 0,0 UV-I 0 W/m 8,0 C 9,4 C 11,3 km/h (2 Bft) 95,65 %
20.05.2016 23:51 10,1 C 87 % 1020,3 hPa 0,0 l/m 6,9 km/h (2 Bft) S 182 0 min 0,000 mm 0,0 UV-I 0 W/m 8,0 C 9,7 C 9,7 km/h (2 Bft) 100,00 %
20.05.2016 23:52 10,1 C 87 % 1020,3 hPa 0,0 l/m 6,1 km/h (2 Bft) S 190 0 min 0,000 mm 0,0 UV-I 0 W/m 8,0 C 10,1 C 8,0 km/h (2 Bft) 100,00 %
20.05.2016 23:53 10,0 C 87 % 1020,3 hPa 0,0 l/m 5,9 km/h (2 Bft) S 185 0 min 0,000 mm 0,0 UV-I 0 W/m 7,9 C 10,0 C 8,0 km/h (2 Bft) 100,00 %
20.05.2016 23:54 10,0 C 87 % 1020,3 hPa 0,0 l/m 5,2 km/h (1 Bft) S-SW 205 0 min 0,000 mm 0,0 UV-I 0 W/m 7,9 C 10,0 C 8,0 km/h (2 Bft) 100,00 %
20.05.2016 23:55 9,9 C 87 % 1020,3 hPa 0,0 l/m 4,7 km/h (1 Bft) S-SW 210 0 min 0,000 mm 0,0 UV-I 0 W/m 7,8 C 9,9 C 6,4 km/h (2 Bft) 100,00 %
20.05.2016 23:56 9,9 C 87 % 1020,3 hPa 0,0 l/m 5,4 km/h (1 Bft) S-SW 195 0 min 0,000 mm 0,0 UV-I 0 W/m 7,8 C 9,9 C 6,4 km/h (2 Bft) 96,88 %
20.05.2016 23:57 9,9 C 87 % 1020,3 hPa 0,0 l/m 5,8 km/h (2 Bft) S 186 0 min 0,000 mm 0,0 UV-I 0 W/m 7,8 C 9,9 C 8,0 km/h (2 Bft) 100,00 %
20.05.2016 23:58 9,8 C 87 % 1020,4 hPa 0,0 l/m 6,5 km/h (2 Bft) S-SO 167 0 min 0,000 mm 0,0 UV-I 0 W/m 7,7 C 9,8 C 8,0 km/h (2 Bft) 100,00 %
20.05.2016 23:59 9,8 C 87 % 1020,3 hPa 0,0 l/m 6,0 km/h (2 Bft) S 186 0 min 0,000 mm 0,0 UV-I 0 W/m 7,7 C 9,8 C 8,0 km/h (2 Bft) 100,00 %
_ Min-Zeit 00:00 18:14 00:00 - 21:17 - - - - - - 00:00 01:31 20:42 13:14
Minimum _ 8,9 C 64 % 1016,3 hPa - 1,3 km/h (1 Bft) - - - - - - 7,7 C 1,0 C 3,2 km/h (1 Bft) 86,67 %
_ Max-Zeit 17:49 06:09 12:58 05:47 01:31 - - 19:00 16:01 15:05 16:30 15:55 18:03 05:12 00:00
Maximum _ 16,9 C 93 % 1020,5 hPa 0,2 l/m 24,6 km/h
S-SW (4 Bft)
- - 5 min 0,330 mm 3,4 UV-I 782 W/m 11,4 C 16,9 C 38,6 km/h
SW (5 Bft)
100,00 %
Durchschnitt _ 11,9 C 84 % 1019,1 hPa #0,6 l/m 13,3 km/h (3 Bft) SW - #3:59 h #2,210 mm 1,5 UV-I 208 W/m 9,1 C 8,2 C 19,0 km/h (3 Bft) 98,54 %